[[{"header":{"parameterUnit":"m.s-1","parameterCategory":1,"la1":30.6,"la2":29.2853,"lo1":-89.7004,"lo2":-87.6739,"dy":0.0162,"dx":0.0183,"nx":112,"ny":82,"refTime":"2024-05-01T00:00:00:Z","depth":0,"parameterNumber":2,"parameterNumberName":"U-component_of_WINDS"},"data":[0.0,0.0,0.0,0.0,0.0,0.0,0.0,0.0,0.0,0.0,0.0,0.0,0.0,0.0,0.0,0.0,0.0,0.0,0.0,0.0,0.0,0.0,0.0,0.0,0.0,0.0,0.0,0.0,0.0,0.0,0.0,0.0,0.0,0.0,0.0,0.0,0.0,0.0,0.0,0.0,0.0,0.0,0.0,0.0,0.0,0.0,0.0,0.0,0.0,0.0,0.0,0.0,0.0,0.0,0.0,0.0,0.0,0.0,0.0,0.0,0.0,0.0,0.0,0.0,0.0,0.0,0.0,0.0,0.0,0.0,0.0,0.0,0.0,0.0,0.0,0.0,0.0,0.0,0.0,0.0,0.0,0.0,0.0,0.0,0.0,0.0,0.0,0.0,0.0,0.0,-4.7127,-4.8309,-4.9914,-5.0898,-5.0898,-5.0782,-5.0047,-4.8508,0.0,0.0,0.0,0.0,0.0,0.0,0.0,0.0,0.0,0.0,0.0,0.0,0.0,0.0,0.0,0.0,0.0,0.0,0.0,0.0,0.0,0.0,0.0,0.0,0.0,0.0,0.0,0.0,0.0,0.0,0.0,0.0,0.0,0.0,0.0,0.0,0.0,0.0,0.0,0.0,0.0,0.0,0.0,0.0,0.0,0.0,0.0,0.0,0.0,0.0,0.0,0.0,0.0,0.0,0.0,0.0,0.0,0.0,0.0,0.0,0.0,0.0,0.0,0.0,0.0,0.0,0.0,0.0,0.0,0.0,0.0,0.0,0.0,0.0,0.0,0.0,0.0,0.0,0.0,0.0,0.0,0.0,0.0,0.0,0.0,0.0,0.0,0.0,0.0,0.0,0.0,0.0,0.0,0.0,0.0,0.0,0.0,0.0,0.0,0.0,0.0,0.0,0.0,0.0,-4.6744,-4.9204,-5.031,-5.0898,-5.0898,-5.0279,-4.9475,-4.8469,0.0,0.0,0.0,0.0,0.0,0.0,0.0,0.0,0.0,0.0,0.0,0.0,0.0,0.0,0.0,0.0,0.0,0.0,0.0,0.0,0.0,0.0,0.0,0.0,0.0,0.0,0.0,0.0,0.0,0.0,0.0,0.0,0.0,0.0,0.0,0.0,0.0,0.0,0.0,0.0,0.0,0.0,0.0,0.0,0.0,0.0,0.0,0.0,0.0,0.0,0.0,0.0,0.0,0.0,0.0,0.0,0.0,0.0,0.0,0.0,0.0,0.0,0.0,0.0,0.0,0.0,0.0,0.0,0.0,0.0,0.0,0.0,0.0,0.0,0.0,0.0,0.0,0.0,0.0,0.0,0.0,0.0,0.0,0.0,0.0,0.0,0.0,0.0,0.0,0.0,0.0,0.0,0.0,0.0,0.0,0.0,0.0,0.0,0.0,0.0,0.0,0.0,0.0,-4.6482,-4.7527,-4.9354,-5.0356,-5.0898,-5.0898,-4.9745,-4.8817,-4.843,-4.5955,0.0,0.0,0.0,0.0,0.0,0.0,0.0,0.0,0.0,0.0,0.0,0.0,0.0,0.0,0.0,0.0,0.0,0.0,0.0,0.0,0.0,0.0,0.0,0.0,0.0,0.0,0.0,0.0,0.0,0.0,0.0,0.0,0.0,0.0,0.0,0.0,0.0,0.0,0.0,0.0,0.0,0.0,0.0,0.0,0.0,0.0,0.0,0.0,0.0,0.0,0.0,0.0,0.0,0.0,0.0,0.0,0.0,0.0,0.0,0.0,0.0,0.0,0.0,0.0,0.0,0.0,0.0,0.0,0.0,0.0,0.0,0.0,0.0,0.0,0.0,0.0,0.0,0.0,0.0,0.0,0.0,0.0,0.0,0.0,0.0,0.0,0.0,0.0,0.0,0.0,0.0,0.0,0.0,0.0,0.0,0.0,0.0,0.0,0.0,0.0,0.0,0.0,-4.7821,-4.8419,-4.924,-5.0233,-5.0858,-5.0858,-4.9328,-4.8384,-4.8392,-4.5174,0.0,0.0,0.0,0.0,0.0,0.0,0.0,0.0,0.0,0.0,0.0,0.0,0.0,0.0,0.0,0.0,0.0,0.0,0.0,0.0,0.0,0.0,0.0,0.0,0.0,0.0,0.0,0.0,0.0,0.0,0.0,0.0,0.0,0.0,0.0,0.0,0.0,0.0,0.0,0.0,0.0,0.0,0.0,0.0,0.0,0.0,0.0,0.0,0.0,0.0,0.0,0.0,0.0,0.0,0.0,0.0,0.0,0.0,0.0,0.0,0.0,0.0,0.0,0.0,0.0,0.0,0.0,0.0,0.0,0.0,0.0,0.0,0.0,0.0,0.0,0.0,0.0,0.0,0.0,0.0,0.0,0.0,0.0,0.0,0.0,0.0,0.0,0.0,0.0,0.0,0.0,0.0,0.0,0.0,0.0,0.0,0.0,0.0,0.0,0.0,0.0,0.0,-4.7753,-4.8791,-4.9158,-5.0125,-5.071,-5.071,-4.9217,-4.8315,-4.8392,-4.5114,0.0,0.0,0.0,0.0,0.0,0.0,0.0,0.0,0.0,0.0,0.0,0.0,0.0,0.0,0.0,0.0,0.0,0.0,0.0,0.0,0.0,0.0,0.0,0.0,0.0,0.0,0.0,0.0,0.0,0.0,0.0,0.0,0.0,0.0,0.0,0.0,0.0,0.0,0.0,0.0,0.0,0.0,0.0,0.0,0.0,0.0,0.0,0.0,0.0,0.0,0.0,0.0,0.0,0.0,0.0,0.0,0.0,0.0,0.0,0.0,0.0,0.0,0.0,0.0,0.0,0.0,0.0,0.0,0.0,0.0,0.0,0.0,0.0,0.0,0.0,0.0,0.0,0.0,0.0,0.0,0.0,0.0,0.0,0.0,0.0,0.0,0.0,0.0,0.0,0.0,0.0,0.0,0.0,0.0,0.0,0.0,0.0,0.0,0.0,0.0,0.0,0.0,-4.6853,-4.7483,-4.8102,-4.8564,-4.8802,-4.8701,-4.765,-4.6819,-4.6416,0.0,0.0,0.0,0.0,0.0,0.0,0.0,0.0,0.0,0.0,0.0,0.0,0.0,0.0,0.0,0.0,0.0,0.0,0.0,0.0,0.0,0.0,0.0,0.0,0.0,0.0,0.0,0.0,0.0,0.0,0.0,0.0,0.0,0.0,0.0,0.0,0.0,0.0,0.0,0.0,0.0,0.0,0.0,0.0,0.0,0.0,0.0,0.0,0.0,0.0,0.0,0.0,0.0,0.0,0.0,0.0,0.0,0.0,0.0,0.0,0.0,0.0,0.0,0.0,0.0,0.0,0.0,0.0,0.0,0.0,0.0,0.0,0.0,0.0,0.0,0.0,0.0,0.0,0.0,0.0,0.0,0.0,0.0,0.0,0.0,0.0,0.0,0.0,0.0,0.0,0.0,0.0,0.0,0.0,0.0,0.0,0.0,0.0,0.0,0.0,0.0,0.0,-4.5343,-4.595,-4.6329,-4.6884,-4.73,-4.7498,-4.7426,-4.6183,-4.5224,-4.4798,0.0,0.0,0.0,0.0,0.0,0.0,0.0,0.0,0.0,0.0,0.0,0.0,0.0,0.0,0.0,0.0,0.0,0.0,0.0,0.0,0.0,0.0,0.0,0.0,0.0,0.0,0.0,0.0,0.0,0.0,0.0,0.0,0.0,0.0,0.0,0.0,0.0,0.0,0.0,0.0,0.0,0.0,0.0,0.0,0.0,0.0,0.0,0.0,0.0,0.0,0.0,0.0,0.0,0.0,0.0,0.0,0.0,0.0,0.0,0.0,0.0,0.0,0.0,0.0,0.0,0.0,0.0,0.0,0.0,0.0,0.0,0.0,0.0,0.0,0.0,0.0,0.0,0.0,0.0,0.0,0.0,0.0,0.0,0.0,0.0,0.0,0.0,0.0,0.0,0.0,0.0,0.0,0.0,0.0,0.0,0.0,0.0,0.0,0.0,0.0,0.0,0.0,-4.428,-4.5094,-4.5552,-4.5683,-4.6547,-4.7173,-4.7173,-4.5038,-4.371,0.0,0.0,0.0,0.0,0.0,0.0,0.0,0.0,0.0,0.0,0.0,0.0,0.0,0.0,0.0,0.0,0.0,0.0,0.0,0.0,0.0,0.0,0.0,0.0,0.0,0.0,0.0,0.0,0.0,0.0,0.0,0.0,0.0,0.0,0.0,0.0,0.0,0.0,0.0,0.0,0.0,0.0,0.0,0.0,0.0,0.0,0.0,0.0,0.0,0.0,0.0,0.0,0.0,0.0,0.0,0.0,0.0,0.0,0.0,0.0,0.0,0.0,0.0,0.0,0.0,0.0,0.0,0.0,0.0,0.0,0.0,0.0,0.0,0.0,0.0,0.0,0.0,0.0,0.0,0.0,0.0,0.0,0.0,0.0,0.0,0.0,0.0,0.0,0.0,0.0,0.0,0.0,0.0,0.0,0.0,0.0,0.0,0.0,0.0,0.0,0.0,0.0,0.0,-4.428,-4.4679,-4.4786,-4.4728,-4.4974,-4.5086,-4.4969,-4.3778,-4.2888,-4.2408,0.0,0.0,0.0,0.0,0.0,0.0,0.0,0.0,0.0,0.0,0.0,0.0,0.0,0.0,0.0,0.0,0.0,0.0,0.0,0.0,0.0,0.0,0.0,0.0,0.0,0.0,0.0,0.0,0.0,0.0,0.0,0.0,0.0,0.0,0.0,0.0,0.0,0.0,0.0,0.0,0.0,0.0,0.0,0.0,0.0,0.0,0.0,0.0,0.0,0.0,0.0,0.0,0.0,0.0,0.0,0.0,0.0,0.0,0.0,0.0,0.0,0.0,0.0,0.0,0.0,0.0,0.0,0.0,0.0,0.0,0.0,0.0,0.0,0.0,0.0,0.0,0.0,0.0,0.0,0.0,0.0,0.0,0.0,0.0,0.0,0.0,0.0,0.0,0.0,0.0,0.0,0.0,0.0,0.0,0.0,0.0,0.0,0.0,0.0,0.0,0.0,0.0,-4.3623,-4.4086,-4.4266,-4.4192,-4.4177,-4.4131,-4.4002,-4.2983,-4.1876,-4.077,0.0,0.0,0.0,0.0,0.0,0.0,0.0,0.0,0.0,0.0,0.0,0.0,0.0,0.0,0.0,0.0,0.0,0.0,0.0,0.0,0.0,0.0,0.0,0.0,0.0,0.0,0.0,0.0,0.0,0.0,0.0,0.0,0.0,0.0,0.0,0.0,0.0,0.0,0.0,0.0,0.0,0.0,0.0,0.0,0.0,0.0,0.0,0.0,0.0,0.0,0.0,0.0,0.0,0.0,0.0,0.0,0.0,0.0,0.0,0.0,0.0,0.0,0.0,0.0,0.0,0.0,0.0,0.0,0.0,0.0,0.0,0.0,0.0,0.0,0.0,0.0,0.0,0.0,0.0,0.0,0.0,0.0,0.0,0.0,0.0,0.0,0.0,0.0,0.0,0.0,0.0,0.0,0.0,0.0,0.0,0.0,0.0,0.0,0.0,0.0,0.0,0.0,-4.2594,-4.3441,-4.3923,-4.3955,-4.3955,-4.3955,-4.3986,-4.2537,-4.0903,-3.9305,0.0,0.0,0.0,0.0,0.0,0.0,0.0,0.0,0.0,0.0,0.0,0.0,0.0,0.0,0.0,0.0,0.0,0.0,0.0,0.0,0.0,0.0,0.0,0.0,0.0,0.0,0.0,0.0,0.0,0.0,0.0,0.0,0.0,0.0,0.0,0.0,0.0,0.0,0.0,0.0,0.0,0.0,0.0,0.0,0.0,0.0,0.0,0.0,0.0,0.0,0.0,0.0,0.0,0.0,0.0,0.0,0.0,0.0,0.0,0.0,-4.508,0.0,0.0,0.0,0.0,0.0,0.0,0.0,0.0,0.0,0.0,0.0,0.0,0.0,0.0,0.0,0.0,0.0,0.0,0.0,0.0,0.0,0.0,0.0,0.0,0.0,0.0,0.0,0.0,0.0,0.0,0.0,0.0,0.0,0.0,0.0,0.0,0.0,0.0,0.0,0.0,0.0,-4.2072,-4.2861,-4.3443,-4.3664,-4.3697,-4.3779,-4.3971,-4.2537,-4.1163,-4.0197,-3.8711,0.0,0.0,0.0,0.0,0.0,0.0,0.0,0.0,0.0,0.0,0.0,0.0,0.0,0.0,0.0,0.0,0.0,0.0,0.0,0.0,0.0,0.0,0.0,0.0,0.0,0.0,0.0,0.0,0.0,0.0,0.0,0.0,0.0,0.0,0.0,0.0,0.0,0.0,0.0,0.0,0.0,0.0,0.0,0.0,0.0,0.0,0.0,0.0,0.0,0.0,0.0,0.0,0.0,0.0,0.0,0.0,0.0,0.0,0.0,0.0,-4.4565,0.0,0.0,0.0,0.0,0.0,0.0,0.0,0.0,0.0,0.0,0.0,0.0,0.0,0.0,0.0,0.0,0.0,0.0,0.0,0.0,0.0,0.0,0.0,0.0,0.0,0.0,0.0,0.0,0.0,0.0,0.0,0.0,0.0,0.0,0.0,0.0,0.0,0.0,0.0,0.0,-4.1372,-4.2466,-4.3232,-4.3391,-4.3409,-4.3461,-4.3597,-4.2456,-4.124,-4.0025,-3.8405,0.0,0.0,0.0,0.0,0.0,0.0,0.0,0.0,0.0,0.0,0.0,0.0,0.0,0.0,0.0,0.0,0.0,0.0,0.0,0.0,0.0,0.0,0.0,0.0,0.0,0.0,0.0,0.0,0.0,0.0,0.0,0.0,0.0,0.0,0.0,0.0,0.0,0.0,0.0,0.0,0.0,0.0,0.0,0.0,0.0,0.0,0.0,0.0,0.0,0.0,0.0,0.0,0.0,-4.9686,-5.0,-5.1067,-4.9959,-4.9577,-4.9577,-4.7284,-4.5987,-4.5524,-4.4926,0.0,0.0,0.0,0.0,0.0,0.0,0.0,0.0,0.0,0.0,0.0,0.0,0.0,0.0,0.0,0.0,0.0,0.0,0.0,0.0,0.0,0.0,0.0,0.0,-4.1181,-4.1145,-4.1288,0.0,0.0,0.0,0.0,0.0,0.0,0.0,0.0,0.0,0.0,0.0,-4.0652,-4.205,-4.305,-4.3123,-4.3105,-4.316,-4.3196,-4.2285,-4.1065,-3.9591,-3.8004,-3.651,0.0,0.0,0.0,0.0,0.0,0.0,0.0,0.0,0.0,0.0,0.0,0.0,0.0,0.0,0.0,0.0,0.0,0.0,0.0,0.0,0.0,0.0,0.0,0.0,0.0,0.0,0.0,0.0,0.0,0.0,0.0,0.0,-4.9189,-5.0817,0.0,0.0,0.0,0.0,0.0,0.0,0.0,0.0,0.0,0.0,0.0,0.0,0.0,-4.9969,-5.0472,-5.2159,-5.2525,-5.1568,-5.3441,-5.3927,-5.311,-5.275,-5.2976,-5.3551,-5.1765,0.0,-4.7046,-4.7657,0.0,0.0,0.0,0.0,0.0,0.0,0.0,0.0,0.0,0.0,0.0,0.0,0.0,0.0,0.0,0.0,0.0,0.0,0.0,0.0,0.0,0.0,-4.2272,-4.2165,-4.1609,-4.1288,0.0,-4.0396,-3.8826,-3.8826,-3.8255,0.0,0.0,0.0,0.0,0.0,0.0,0.0,-4.0119,-4.1407,-4.2494,-4.2732,-4.2787,-4.2882,-4.3196,-4.1792,-4.0516,-3.9554,-3.8004,-3.6999,-3.6781,-3.5453,0.0,0.0,0.0,0.0,0.0,0.0,0.0,0.0,0.0,0.0,0.0,0.0,0.0,0.0,0.0,0.0,0.0,0.0,0.0,0.0,0.0,0.0,0.0,0.0,0.0,0.0,0.0,0.0,0.0,-4.7682,-4.9187,-4.9881,-5.0227,-4.9657,0.0,0.0,0.0,0.0,0.0,0.0,0.0,0.0,0.0,-5.0961,-5.156,-5.227,-5.3046,-5.3924,-5.4473,-5.4641,-5.5184,-5.5424,-5.5343,-5.5189,-5.5066,-5.4896,-5.4086,-5.2487,-5.0354,-4.9459,-4.7676,-4.5545,0.0,0.0,0.0,0.0,-4.3837,-4.3817,-4.3713,-4.3456,-4.3206,-4.3429,0.0,0.0,0.0,0.0,0.0,0.0,0.0,0.0,0.0,0.0,-4.2308,-4.2308,-4.2037,-4.1859,-4.2216,-4.1145,-4.011,0.0,-3.9825,-3.9539,-3.9432,0.0,0.0,0.0,0.0,-4.0467,-4.0574,-4.1573,-4.2348,-4.2454,-4.2474,-4.2514,-4.2671,-4.1626,-4.0617,-3.9788,-3.8257,-3.7193,-3.6708,-3.6023,-3.5722,0.0,0.0,0.0,0.0,0.0,0.0,0.0,0.0,0.0,0.0,0.0,0.0,0.0,0.0,0.0,0.0,0.0,0.0,0.0,0.0,0.0,0.0,0.0,0.0,0.0,0.0,0.0,0.0,-4.8762,-4.9742,-4.9546,-5.0626,-5.0347,0.0,0.0,0.0,0.0,0.0,0.0,-5.2715,-5.3134,-5.3408,-5.3478,-5.4224,-5.4939,-5.5516,-5.5692,-5.6125,-5.6786,-5.6149,-5.6185,-5.676,-5.6385,-5.5937,-5.5303,-5.5018,-5.4135,-5.2768,-5.0843,-4.8685,-4.6547,-4.6376,-4.5739,-4.4842,-4.4578,-4.4485,-4.4443,-4.4191,-4.3948,-4.3748,-4.3496,-4.2851,-4.2164,-4.1987,0.0,0.0,0.0,0.0,-4.1917,-4.1917,-4.1917,-4.1917,-4.1917,-4.1917,-4.1938,-4.2065,-4.1624,-4.1182,0.0,-4.0931,-4.0681,-4.0269,0.0,0.0,0.0,0.0,-4.0646,-4.1038,-4.1787,-4.2308,-4.2308,-4.2308,-4.2308,-4.2308,-4.1359,-4.0538,-3.9948,-3.8433,-3.7345,-3.672,-3.6453,-3.6043,-3.542,0.0,0.0,0.0,0.0,0.0,0.0,0.0,0.0,0.0,0.0,0.0,0.0,0.0,0.0,0.0,0.0,0.0,0.0,0.0,0.0,0.0,0.0,0.0,0.0,0.0,0.0,0.0,0.0,0.0,-5.1249,-5.2575,0.0,0.0,0.0,0.0,-5.1616,-5.3176,-5.4422,-5.517,-5.5962,-5.6912,-5.8036,-5.8017,-5.7975,-5.8031,-5.7926,-5.7486,-5.6812,-5.6644,-5.6591,-5.6564,-5.5678,-5.5241,-5.5169,-5.4394,-5.3635,-5.284,-5.1947,-5.0198,-4.802,-4.7235,-4.6021,-4.4535,-4.3822,-4.3572,-4.3472,-4.2886,-4.2249,-4.1831,-4.2746,-4.259,-4.1853,-4.1103,-4.0873,0.0,0.0,-4.0873,-4.0873,-4.0873,-4.0873,-4.0873,-4.0873,-4.0873,-4.1013,-4.1445,-4.1521,-4.1406,0.0,-4.0503,-4.0217,-4.0895,0.0,-4.1002,-4.1038,-4.168,-4.1895,-4.1181,-4.1787,-4.2308,-4.2308,-4.2308,-4.2308,-4.2308,-4.086,-3.9948,-3.9877,-3.8433,-3.7595,-3.7559,-3.6611,-3.6111,-3.6058,-3.4464,0.0,0.0,0.0,0.0,0.0,0.0,0.0,0.0,0.0,0.0,0.0,0.0,0.0,0.0,0.0,0.0,0.0,0.0,0.0,0.0,0.0,0.0,0.0,0.0,0.0,0.0,0.0,0.0,-5.4291,-5.574,0.0,-5.4074,-5.4617,-5.516,-5.5267,-5.6309,-5.7231,-5.8067,-5.8282,-5.8337,-5.8254,-5.8052,-5.7945,-5.7945,-5.7307,-5.7083,-5.7297,-5.6742,-5.6465,-5.6429,-5.5589,-5.492,-5.4394,-5.3635,-5.285,-5.2065,-5.1244,-5.0138,-4.8889,-4.8603,-4.7533,-4.6105,-4.5856,-4.5511,-4.5141,-4.4472,-4.3803,-4.3152,-4.2531,-4.1826,-4.117,-4.0905,-4.0802,-4.0802,-4.0802,-4.0754,-4.0648,-4.0648,-4.0577,-4.047,-4.047,-4.047,-4.0518,-4.0709,-4.0733,-4.0804,-4.1006,-4.1279,-4.1538,-4.1823,-4.1431,-4.1288,-4.1787,-4.1579,-4.1466,-4.1823,-4.1985,-4.2121,-4.2287,-4.2308,-4.2308,-4.2308,-4.0824,-3.9838,-3.972,-3.8244,-3.7336,-3.7203,-3.6879,-3.6207,-3.522,-3.4584,-3.3595,0.0,0.0,0.0,0.0,0.0,0.0,0.0,0.0,0.0,0.0,0.0,0.0,0.0,0.0,0.0,0.0,0.0,0.0,0.0,0.0,0.0,0.0,0.0,0.0,0.0,-5.3916,-5.6174,-5.6355,-5.8311,-5.8999,-5.7369,-5.7949,-5.842,-5.842,-5.918,-5.9697,-5.9934,-6.0106,-5.9808,-5.8988,-5.8708,-5.8319,-5.7782,-5.7144,-5.6918,-5.7168,-5.6633,-5.6383,-5.6347,-5.5312,-5.4501,-5.393,-5.2921,-5.2172,-5.1637,-5.1137,-5.0182,-4.9039,-4.896,-4.8139,-4.6962,-4.6676,-4.6271,-4.5628,-4.4505,-4.3579,-4.2739,-4.1784,-4.0932,-4.0294,-4.0294,-4.0294,-4.0294,-4.0294,-4.022,-4.017,-4.0061,-3.9961,-3.9851,-3.98,-3.98,-3.9851,-4.0027,-4.0052,-4.0201,-4.0672,-4.1378,-4.1895,-4.2058,-4.1632,-4.1455,-4.1987,-4.1506,-4.1287,-4.1987,-4.1931,-4.1888,-4.2058,-4.2058,-4.1973,-4.1724,-4.0709,-3.9797,-3.9146,-3.8137,-3.7408,-3.7025,-3.6811,-3.6118,-3.4828,-3.4356,-3.3446,-3.2046,0.0,0.0,0.0,0.0,0.0,0.0,0.0,0.0,0.0,0.0,0.0,0.0,0.0,0.0,0.0,0.0,0.0,0.0,0.0,0.0,0.0,0.0,0.0,-5.2625,-5.5993,-5.8202,-5.7514,-6.0194,-6.1498,-5.9905,-6.0484,-6.0928,-6.0856,-6.158,-6.1634,-6.0702,-6.1387,-6.134,-6.0372,-6.016,-5.9322,-5.7782,-5.7608,-5.7168,-5.6383,-5.6383,-5.6383,-5.6347,-5.4715,-5.4001,-5.3894,-5.2386,-5.1708,-5.1647,-5.1612,-5.0348,-4.8467,-4.8282,-4.7688,-4.6845,-4.606,-4.5421,-4.4687,-4.2807,-4.1412,-4.0409,-4.0376,-3.9879,-3.9315,-3.9315,-3.9315,-3.9282,-3.9282,-3.9255,-3.9228,-3.904,-3.8985,-3.8958,-3.8821,-3.8788,-3.8925,-3.9454,-3.9558,-3.968,-4.0177,-4.0648,-4.1059,-4.1493,-4.156,-4.156,-4.156,-4.156,0.0,-4.156,-4.156,-4.156,-4.156,-4.156,-4.1266,-4.0529,-4.0403,-3.968,-3.8193,-3.8053,-3.7702,-3.6965,-3.6388,-3.5715,-3.496,-3.3655,-3.2961,-3.2961,0.0,0.0,0.0,0.0,0.0,0.0,0.0,0.0,0.0,0.0,0.0,0.0,0.0,0.0,0.0,0.0,0.0,0.0,0.0,0.0,0.0,-5.2589,-5.5233,-5.5812,-5.8347,-6.0701,-6.2223,-6.3708,-6.4215,-6.3164,-6.3816,-6.376,-6.249,-6.2599,-6.255,-6.2155,-6.1681,-6.0834,-5.9442,-5.9202,-5.8331,-5.6795,-5.6731,-5.6597,-5.6383,-5.6383,-5.6383,-5.6347,-5.4715,-5.4001,-5.3894,-5.2386,-5.1444,-5.0973,-4.9844,-4.8758,-4.7897,-4.8265,-4.7327,-4.5749,-4.5515,-4.4768,-4.361,-4.2143,-4.1084,-4.031,-3.9779,-3.9481,-3.9315,-3.9315,-3.9202,-3.9094,-3.9094,-3.8931,-3.8766,-3.8711,-3.8628,-3.8544,-3.8516,-3.8488,-3.8544,-3.8711,-3.8738,-3.8843,-3.9269,-3.9454,-3.9791,-4.0518,-4.0638,-4.0638,-4.0638,-4.0528,0.0,-4.0614,-4.0528,-4.048,-4.0638,-4.0638,-4.0569,-4.0363,-3.9353,-3.8494,-3.7934,-3.684,-3.6068,-3.5722,-3.5543,-3.4869,-3.3575,-3.2951,-3.2365,0.0,0.0,0.0,0.0,0.0,0.0,0.0,0.0,0.0,0.0,0.0,0.0,0.0,0.0,0.0,0.0,0.0,0.0,0.0,0.0,0.0,0.0,-5.5051,-5.7768,-5.9905,-6.1136,-6.2585,-6.4649,-6.5627,-6.5917,-6.5446,-6.5844,-6.5417,-6.3703,-6.3509,-6.3135,-6.2278,-6.1637,-6.0726,-5.9416,-5.8945,-5.8131,-5.6918,-5.6561,-5.6383,-5.6383,-5.6062,-5.5883,-5.5847,-5.4277,-5.3528,-5.3466,-5.1977,-5.0946,-5.0241,-4.909,-4.7892,0.0,0.0,0.0,0.0,0.0,-4.4313,-4.3247,-4.2204,-4.121,-4.0376,-4.0216,-4.0011,-3.9746,-3.9746,-3.961,-3.9408,-3.9078,-3.8849,-3.8655,-3.8632,-3.8548,-3.8464,-3.8408,-3.8408,-3.8408,-3.8408,-3.8408,-3.8492,-3.8711,-3.8738,0.0,-3.942,-3.9775,-4.0002,-4.0002,-3.991,-3.9859,-3.9977,-3.991,-3.9859,-3.9977,-4.0002,-3.9901,-3.9562,-3.9054,0.0,0.0,0.0,-3.5897,-3.5024,-3.4968,0.0,0.0,0.0,-3.2952,-3.2527,0.0,0.0,0.0,-3.4004,-3.4325,0.0,0.0,0.0,0.0,0.0,0.0,0.0,0.0,0.0,0.0,0.0,0.0,0.0,0.0,0.0,0.0,-5.7593,-6.0042,-6.3997,-6.3925,-6.4033,-6.5555,-6.6388,-6.675,-6.6533,-6.6605,-6.5996,-6.4447,-6.4152,-6.3394,-6.1889,0.0,0.0,0.0,0.0,-5.8345,-5.7624,-5.6775,-5.6383,-5.6383,-5.5598,-5.5205,-5.5169,-5.3599,-5.286,-5.2711,-5.1291,-5.0223,-4.9423,-4.873,-4.7238,-4.5365,-4.5159,-4.5135,-4.5054,-4.4569,-4.3968,-4.3339,-4.2708,0.0,0.0,-4.1243,-4.0945,-4.0382,-4.0382,-4.0177,-3.978,-3.9122,-3.8876,-3.8738,-3.8632,-3.8576,-3.8548,-3.8436,-3.8408,-3.8408,-3.8408,-3.8408,-3.8408,-3.8408,-3.8408,-3.8408,-3.8408,-3.9007,-3.9454,-3.9454,-3.9454,-3.9454,-3.9454,-3.9454,-3.9454,-3.9454,0.0,0.0,-3.8553,-3.902,-3.8453,-3.6428,-3.6752,-3.6306,-3.4708,-3.4618,-3.444,-3.4003,-3.3971,-3.3971,-3.3971,-3.3971,-3.4036,-3.4101,-3.3485,-3.3518,0.0,0.0,0.0,0.0,0.0,0.0,0.0,0.0,0.0,0.0,0.0,0.0,0.0,0.0,0.0,-5.6553,-5.9079,-6.1652,-6.4918,-6.5229,-6.5482,-6.646,-6.6714,-6.6279,-6.4975,-6.5446,-6.5294,-6.4092,-6.3379,-6.2981,-6.3035,-6.1831,-6.0766,-5.9951,-5.9102,-5.8345,-5.7624,-5.6775,-5.6383,-5.6383,0.0,0.0,-5.5169,-5.3599,-5.2581,-5.2021,-5.0532,-4.9264,-4.8085,-4.6771,-4.5322,-4.3972,-4.3923,-4.3948,-4.3919,-4.3802,-4.3706,-4.3477,-4.2763,-4.2307,-4.2038,-4.1574,-4.0861,-4.0155,-4.0155,-3.9565,0.0,-3.8721,-3.8572,-3.8492,-3.8464,-3.8436,-3.8436,-3.8408,-3.8408,-3.8408,-3.8408,-3.8408,-3.8408,-3.8408,-3.8408,-3.8408,-3.8408,-3.8516,-3.8628,-3.8628,-3.8628,-3.8628,-3.8628,-3.8628,-3.8628,-3.8628,-3.8628,-3.8562,-3.8432,-3.8008,-3.7324,-3.6352,-3.5303,-3.4561,-3.4226,-3.4226,-3.3916,-3.3315,-3.3291,-3.3291,-3.3291,-3.3291,-3.355,-3.4101,-3.3971,-3.3971,0.0,0.0,0.0,0.0,0.0,0.0,0.0,0.0,0.0,0.0,0.0,-4.7933,-4.9584,0.0,-5.5046,-5.8724,-6.0919,-6.2999,-6.534,-6.5964,-6.6207,-6.6207,-6.6207,-6.5881,-6.5084,-6.5374,-6.5352,-6.478,-6.384,-6.3226,-6.3048,-6.1432,-6.0308,-5.9916,-5.8774,-5.7953,-5.7624,-5.6775,-5.6383,-5.6383,-5.5205,-5.4786,-5.5134,-5.3171,-5.2173,-5.1821,-5.0006,-4.8465,-4.709,-4.4913,-4.3656,-4.3002,-4.2638,-4.2936,-4.3565,-4.3168,-4.3267,-4.3532,-4.3168,-4.2774,-4.2389,-4.2418,-4.1774,-4.0972,-4.0672,-4.014,-3.9544,-3.88,-3.852,-3.8408,-3.8408,-3.8408,-3.8408,-3.8408,-3.8408,-3.8408,-3.8408,-3.8667,-3.8732,-3.7987,-3.844,-3.8699,-3.7987,-3.8149,-3.8408,-3.8408,-3.8408,-3.8408,-3.8408,-3.8408,-3.8408,-3.8408,-3.8408,-3.8408,-3.8408,-3.7728,-3.715,-3.6794,-3.5785,-3.504,-3.4651,-3.4651,-3.4165,-3.3121,-3.3097,-3.2902,-3.2546,-3.2546,-3.3064,-3.4101,-3.3744,-3.3777,0.0,0.0,0.0,0.0,0.0,0.0,0.0,0.0,-4.5122,-4.7344,-4.8911,-5.0631,-5.3109,-5.4855,-5.7147,-6.0716,-6.2457,-6.393,-6.5676,-6.6421,-6.6496,-6.57,-6.5736,-6.5772,-6.5627,-6.5446,-6.5345,-6.5251,-6.4151,-6.3183,-6.2658,-6.0883,-5.9916,-5.9916,-5.8381,-5.7624,-5.7624,-5.6633,-5.624,-5.6383,-5.4777,-5.4429,-5.5134,-5.2818,-5.1635,-5.1382,-4.9039,-4.7306,-4.5904,-4.3635,-4.2704,-4.2638,-4.1877,-4.234,-4.33,-4.2539,-4.2671,-4.3138,-4.3138,-4.2686,-4.2144,-4.2733,-4.2285,-4.1449,-4.0922,-4.0544,-4.0073,-3.8902,-3.8492,-3.8408,-3.8408,-3.8408,-3.8408,-3.8408,-3.8278,-3.8181,-3.8181,-3.8537,-3.8537,-3.7339,-3.8051,-3.857,-3.7695,-3.8019,-3.8408,-3.8408,-3.8408,-3.8408,-3.8408,-3.8408,-3.8408,-3.8408,-3.8278,-3.8181,-3.8181,-3.7635,-3.7279,-3.7279,-3.6691,-3.5979,-3.5228,-3.5065,-3.4424,-3.3323,-3.3032,-3.274,-3.2417,-3.2287,-3.287,-3.4101,-3.355,-3.3647,-4.1516,-4.1464,-4.2449,-4.4107,-4.449,-4.5297,0.0,0.0,-4.8815,-5.0405,-5.1928,-5.3314,-5.4262,-5.6229,-5.8629,-6.1662,-6.291,-6.425,-6.6374,-6.6727,-6.6496,-6.57,-6.6243,-6.6388,-6.5663,-6.4939,-6.439,-6.4128,-6.2702,-6.1982,-6.2325,-6.0802,-5.9916,-5.9916,-5.8381,-5.7624,-5.7624,-5.6097,-5.5705,-5.6383,-5.4777,-5.4429,-5.5107,-5.2889,-5.1242,-4.9919,-4.6604,-4.4704,-4.3916,-4.3595,-4.3466,-4.34,-4.2638,-4.2473,-4.2506,-4.1806,-4.1489,-4.1469,-4.1469,-4.1321,-4.1144,-4.1242,-4.0664,-3.9928,-3.9862,-3.9292,-3.863,-3.8468,-3.8408,-3.8408,-3.8408,-3.8408,-3.8408,-3.8408,-3.7922,-3.7409,-3.7409,-3.7015,-3.6627,-3.6465,-3.6562,-3.7015,-3.8084,-3.8343,-3.8408,-3.8408,-3.8408,-3.8408,-3.8408,-3.8408,-3.8408,-3.8408,-3.7825,-3.7409,-3.7409,-3.7344,-3.7279,-3.7279,-3.6691,-3.5979,-3.5228,-3.4554,-3.4133,-3.3971,-3.2773,-3.2708,-3.3874,-3.3259,-3.3356,-3.4101,-3.4036,-3.436,-4.3486,-4.3451,-4.3928,0.0,-4.6011,-4.7081,-4.9107,-4.9622,-5.0067,-5.1555,-5.3416,-5.5006,-5.575,-5.7679,-5.9729,0.0,-6.3066,-6.4487,-6.5368,-6.6269,-6.6496,-6.57,-6.6315,-6.6496,-6.5663,-6.4867,-6.4491,-6.4757,-6.3199,-6.2299,-6.2415,-6.0367,-5.9173,-5.9173,-5.7703,-5.6882,-5.6882,-5.624,-5.6062,-5.6383,-5.5241,-5.4687,-5.4606,-5.2768,-5.0474,-4.7943,-4.6143,-4.4688,-4.3532,-4.2671,-4.2307,-4.2208,-4.1077,-4.0647,-4.068,-4.121,-4.1324,-4.121,-4.121,-4.107,-4.09,-4.09,-4.0554,-4.0079,-3.969,-3.9336,-3.8926,-3.8505,-3.8408,-3.8408,-3.8408,-3.8408,-3.8408,-3.8408,-3.7857,-3.7279,-3.7279,-3.7085,-3.6659,-3.5817,-3.6659,-3.7469,-3.7209,-3.7857,-3.8537,-3.8958,-3.9023,-3.8893,-3.8472,-3.8408,-3.8246,-3.7825,-3.789,-3.7792,-3.7344,-3.7695,-3.7954,-3.7954,-3.7247,-3.6562,-3.5882,-3.5137,-3.4327,-3.3518,-3.2935,-3.2708,-3.287,-3.2611,-3.3032,-3.4101,-3.368,-3.4101,-4.4239,-4.4653,0.0,-4.6238,-4.7653,-4.9018,-4.9853,-5.0536,-5.1386,-5.2672,-5.4431,-5.6055,-5.7205,-5.8896,-6.0495,-6.1707,-6.3261,-6.4358,-6.4566,-6.5518,-6.5941,-6.5364,-6.5764,-6.5917,-6.5337,-6.4722,-6.4483,-6.4701,-6.3077,-6.2004,-6.1859,-5.9645,-5.8417,-5.8417,-5.7096,-5.6383,-5.6383,-5.6169,-5.6062,-5.6062,-5.5241,-5.4551,-5.3914,-5.1787,-4.9103,-4.6114,-4.5466,-4.4589,-4.3499,-4.244,-4.1877,-4.1579,-4.058,-3.9891,-3.9632,-4.0662,-4.0809,-4.0532,-4.0503,-4.0336,-4.0138,-4.0138,-4.0018,-3.9833,-3.9314,-3.9185,-3.9088,-3.8537,-3.8408,-3.8408,-3.8408,-3.8246,-3.8116,-3.8116,-3.7404,-3.6724,-3.6724,-3.6562,-3.6173,-3.5357,-3.6432,-3.7371,-3.695,-3.7728,-3.8634,-3.9408,-3.9505,-3.9311,-3.8764,-3.8537,-3.8116,-3.7376,-3.7954,-3.8116,-3.7344,-3.7987,-3.8311,-3.8116,-3.7598,-3.6918,-3.6044,-3.5266,-3.4392,-3.3388,-3.3194,-3.2935,-3.2579,-3.2579,-3.3097,-3.4101,-3.3582,-3.3906,-4.2602,-4.392,-4.5391,-4.7495,-4.9585,-5.1286,-5.2029,-5.2807,-5.3619,-5.4363,-5.5141,-5.6393,-5.8558,-5.9573,-6.0819,-6.307,-6.3496,-6.3788,-6.4497,-6.4569,-6.4555,-6.4555,-6.4488,-6.4468,0.0,-6.4396,-6.4049,-6.312,-6.1464,-6.0388,-6.0175,-5.8565,-5.766,-5.766,-5.6811,-5.6383,-5.6383,-5.5633,-5.5241,-5.5241,-5.4429,-5.3735,-5.3015,-4.96,-4.6847,-4.4718,-4.3992,-4.3631,-4.3598,-4.3532,-4.3102,-4.244,-4.2406,-4.146,-4.0066,-4.0099,-3.9588,-3.8826,-3.8721,-3.8585,-3.8472,-3.8472,-3.8472,-3.8472,-3.844,-3.844,-3.844,-3.8408,-3.8408,-3.8408,-3.8408,-3.789,-3.7311,-3.7311,-3.627,-3.526,-3.526,-3.4683,-3.4392,-3.5065,-3.526,-3.594,-3.7987,-3.8375,-3.8634,-3.9408,-3.9505,-3.9505,-3.9473,-3.8829,-3.8116,-3.7376,-3.7954,-3.8116,-3.7344,-3.7987,-3.8084,-3.7376,-3.7311,-3.6691,-3.5292,-3.4522,-3.4101,-3.4068,-3.342,-3.3388,-3.4036,-3.4036,-3.4068,-3.4101,-3.4068,-3.4101,-4.3125,-4.4504,-4.617,-4.8802,-5.0335,-5.1523,-5.2807,-5.3315,-5.3585,-5.3822,-5.4059,-5.4634,-5.5852,-5.707,-5.8462,-6.0251,-6.1789,-6.2846,-6.3133,-6.355,-6.3244,-6.1687,-6.2811,0.0,0.0,0.0,0.0,-6.214,-6.1515,-6.0834,-6.0003,-5.8945,-5.8345,-5.8345,-5.7061,-5.6383,-5.6383,-5.6133,-5.599,-5.599,-5.3824,-5.1946,-5.0296,-4.8192,-4.6296,-4.4718,-4.4423,-4.4059,-4.3499,-4.2539,-4.1947,-4.1531,-4.0545,-3.9803,-3.9237,-3.9126,-3.8939,-3.8655,-3.8632,-3.852,-3.8408,-3.8408,-3.8408,-3.8408,-3.8408,-3.8408,-3.8408,-3.8408,-3.8408,-3.8408,-3.8408,-3.8213,-3.7922,-3.7409,-3.6594,-3.5785,-3.5325,-3.4619,-3.4165,-3.4424,-3.4871,-3.5454,-3.6167,-3.7048,-3.7922,-3.8667,-3.8764,-3.8764,-3.8764,-3.8537,-3.8116,-3.7376,-3.7954,-3.8116,-3.7344,-3.7987,-3.8278,-3.8051,-3.7145,-3.6432,-3.5946,-3.4748,-3.4101,-3.4101,-3.3874,-3.3874,-3.4101,-3.4101,-3.4101,-3.4101,-3.4101,-3.4101,-4.4121,-4.5614,-4.7233,-4.9523,-5.0845,-5.186,-5.2841,-5.3281,-5.3416,-5.3145,-5.3078,-5.3315,-5.4059,-5.4972,-5.619,-5.7949,-5.9439,-6.0587,-6.1099,-6.1571,-6.1425,-6.0169,-6.1309,-6.1702,0.0,0.0,0.0,-6.1284,-6.0875,-6.0231,-5.9181,-5.8338,-5.7853,-5.7853,-5.6918,-5.6383,-5.6383,-5.6383,-5.6015,-5.519,-5.2091,-4.9778,-4.8135,-4.6755,-4.545,-4.4324,-4.4324,-4.4059,-4.3499,-4.2245,-4.1498,-4.1049,-3.9808,-3.9078,-3.8711,-3.8632,-3.8576,-3.8548,-3.8548,-3.8492,-3.8408,-3.8408,-3.8408,-3.8408,-3.8408,-3.8408,-3.8408,-3.8408,-3.8408,-3.8408,-3.8408,-3.8213,-3.789,-3.7409,-3.6594,-3.5849,-3.5623,-3.5007,-3.4554,-3.4845,-3.5266,-3.5655,-3.5914,-3.6918,-3.7732,-3.7987,-3.8019,-3.8116,-3.8375,-3.8181,-3.7922,-3.7728,-3.789,-3.7825,-3.7344,-3.7533,-3.7533,-3.7274,-3.64,-3.5785,-3.5525,-3.4586,-3.4101,-3.4101,-3.4101,-3.4101,-3.4101,-3.4101,-3.4101,-3.4101,-3.4101,-3.4101,-4.5409,-4.699,-4.8391,-4.976,-5.115,-5.2198,-5.2232,-5.2841,-5.3179,-5.2367,-5.2164,-5.2367,0.0,0.0,-5.4093,-5.6292,-5.6765,-5.7374,-5.8829,-5.8936,-5.9151,0.0,0.0,0.0,0.0,0.0,0.0,-6.0384,0.0,-5.8669,-5.7818,-5.6965,-5.6454,-5.6454,-5.6418,-5.6383,-5.6383,-5.632,-5.519,-5.2951,-4.9517,-4.7462,-4.6621,-4.5357,-4.4324,-4.3598,-4.3598,-4.3598,-4.3532,-4.2591,-4.1807,-4.1087,-4.0188,-3.9331,-3.8604,-3.8604,-3.852,-3.8408,-3.8408,-3.8408,-3.8408,-3.8408,-3.8408,-3.8408,-3.8408,-3.8408,-3.8408,-3.8408,-3.8408,-3.8408,-3.8408,-3.789,-3.7344,-3.7311,-3.627,-3.5487,-3.6173,-3.5752,-3.5461,-3.6173,-3.6303,-3.6529,-3.7182,-3.789,-3.8088,-3.7413,-3.7279,-3.7533,-3.8311,-3.7728,-3.7566,-3.8311,-3.776,-3.7311,-3.7344,-3.6756,-3.6044,-3.5357,-3.526,-3.4903,-3.4198,-3.4133,-3.4101,-3.4101,-3.4101,-3.4101,-3.4101,-3.4101,-3.4101,-3.4101,-3.4101,-3.4101,-4.6243,-4.731,-4.8304,-4.976,-5.0371,-5.0811,-5.1352,-5.1657,-5.1589,-5.0811,-5.0202,-4.9729,0.0,0.0,0.0,-5.4059,-5.619,0.0,-5.8896,-5.8976,0.0,-5.6981,0.0,-5.8763,-5.7684,-5.8215,0.0,0.0,-5.8543,-5.8614,-5.7715,-5.741,-5.7275,-5.7275,-5.6704,-5.6383,-5.6383,-5.5355,-5.3717,-5.1546,-5.0161,-4.8296,-4.5996,-4.5675,-4.4821,-4.3598,-4.3598,-4.3539,-4.335,-4.2034,-4.1263,-4.0769,-3.9438,-3.8707,-3.8464,-3.8464,-3.8436,-3.8408,-3.8408,-3.8408,-3.8408,-3.8408,-3.8408,-3.8408,-3.8408,-3.8408,-3.8408,-3.8408,-3.8408,-3.8408,-3.8408,-3.8246,-3.7987,-3.7409,-3.7048,-3.6691,-3.6367,-3.6141,-3.6076,-3.627,-3.6303,-3.6529,-3.7182,-3.7441,-3.7528,-3.7393,-3.6906,-3.7015,-3.8246,-3.7339,-3.7048,-3.8278,-3.776,-3.7506,-3.8084,-3.7469,-3.6956,-3.6788,-3.5785,-3.513,-3.4936,-3.4392,-3.4101,-3.4101,-3.4101,-3.4101,-3.4101,-3.4101,-3.4101,-3.4101,-3.4101,-3.4101,-4.7106,-4.7864,-4.8578,-4.939,-4.9864,-5.0101,-5.0202,-5.0507,-5.0439,-4.9357,-4.8545,-4.7902,-4.7496,-4.8714,-5.027,0.0,0.0,0.0,-5.7408,-5.7848,-5.7577,0.0,-5.7256,0.0,-5.6505,-5.6669,-5.6727,0.0,-5.7374,-5.7561,-5.6695,-5.6886,-5.7061,-5.7061,-5.6633,-5.6095,-5.5454,-5.4074,-5.2448,-5.0587,-4.9328,-4.7686,-4.5781,-4.545,-4.4688,-4.3598,0.0,-4.3539,-4.3257,-4.1749,-4.0983,-4.0652,-3.9101,-3.8464,-3.8408,-3.8408,-3.8408,-3.8408,-3.8408,-3.8408,-3.8408,-3.8408,-3.8408,-3.8408,-3.8408,-3.8408,-3.8408,-3.8408,-3.8408,-3.8408,-3.8408,-3.8408,-3.8311,-3.789,-3.7566,-3.7307,-3.7242,-3.6983,-3.6756,-3.6756,-3.6756,-3.6761,-3.6853,-3.7122,-3.7342,-3.7348,-3.6285,-3.5939,-3.7335,-3.6814,-3.6724,-3.7792,-3.7538,-3.7473,-3.789,-3.6983,-3.6367,-3.6367,-3.5331,-3.4741,-3.4741,-3.4327,-3.4101,-3.4101,-3.4101,-3.4101,-3.4101,-3.4101,-3.4101,-3.4101,-3.3841,-3.3713,-4.7932,-4.8541,-4.9049,-4.8984,-4.9492,-4.9763,-4.9018,-4.9357,-4.939,-4.7906,-4.709,-4.6616,-4.6515,-4.7192,-4.8274,-4.983,0.0,-5.389,-5.5513,-5.6258,-5.663,-5.6528,-5.6596,-5.6502,-5.6132,-5.5348,-5.5038,-5.5462,-5.59,-5.5924,-5.5319,-5.5844,-5.6126,-5.6126,-5.6055,-5.537,-5.401,-5.2622,-5.123,-4.9895,-4.7957,-4.6609,-4.5781,-4.5119,-4.439,-4.3598,-4.3598,-4.3443,-4.3095,-4.1599,-4.0863,-4.0492,-3.8983,-3.8408,-3.8408,-3.8408,-3.8408,-3.8408,-3.8408,-3.8408,-3.8408,-3.8408,-3.8408,-3.8408,-3.8408,-3.8408,-3.8408,-3.8408,-3.8408,-3.8408,-3.8408,-3.8408,-3.8408,-3.8408,-3.7922,-3.763,-3.8246,-3.7922,-3.7469,-3.7469,-3.7469,-3.7247,-3.6583,-3.7004,-3.7282,-3.6954,-3.5545,-3.486,-3.588,-3.5947,-3.6216,-3.7072,-3.7169,-3.7229,-3.7441,-3.6141,-3.5357,-3.5357,-3.4554,-3.4101,-3.4101,-3.4101,-3.4101,-3.4101,-3.4025,-3.4,-3.4,-3.3924,-3.3873,-3.3873,-3.3345,-3.3077,-4.8931,-4.9067,-4.9138,-4.9015,-4.9086,-4.9018,-4.8244,-4.8176,0.0,0.0,-4.5974,-4.5703,-4.506,-4.6075,-4.7665,-4.9763,-5.1454,-5.3281,-5.5412,-5.5818,-5.5683,0.0,-5.5513,-5.5476,-5.449,-5.4253,0.0,0.0,-5.389,-5.4145,-5.4548,-5.4672,-5.4734,-5.4734,-5.414,-5.3415,-5.2502,-5.1138,-4.9986,-4.9086,-4.8257,-4.7106,-4.5781,-4.5649,-4.4887,-4.3598,-4.3598,0.0,-4.2255,-4.1373,-4.0511,-3.9632,-3.876,-3.8408,-3.8408,-3.8408,-3.8408,-3.8408,-3.8408,-3.8408,-3.8408,-3.8408,-3.8408,-3.8408,-3.8408,-3.8408,-3.8408,-3.8408,-3.8408,-3.8408,-3.8408,-3.8408,-3.8408,-3.8408,-3.8311,-3.8246,-3.8375,-3.8311,-3.8213,-3.8213,-3.8213,-3.7979,-3.7335,-3.7318,-3.6806,-3.5156,-3.505,-3.4833,-3.3968,-3.381,-3.4529,-3.6359,-3.6515,-3.694,-3.8092,-3.6918,-3.6108,-3.6108,-3.4845,-3.4101,-3.4101,-3.4101,-3.4101,-3.4101,-3.3604,-3.3371,-3.3371,-3.2926,-3.2683,-3.2683,-3.2602,-3.2547,-4.9229,-4.9199,-4.9168,-4.9015,-4.9018,-4.8714,-4.7597,0.0,0.0,0.0,-4.5128,-4.5026,-4.4682,-4.5833,0.0,-4.8206,-5.027,-5.2266,-5.3721,-5.4634,-5.5006,-5.4634,-5.4801,-5.4559,-5.3506,-5.3334,-5.3157,-5.2906,-5.2894,-5.3179,-5.3813,-5.42,-5.425,-5.3836,-5.3487,-5.2578,-5.1073,-5.0422,-4.9535,-4.8418,-4.813,-4.7239,-4.5781,-4.5781,-4.4986,-4.3598,-4.3539,-4.3161,-4.2523,-4.1354,-4.0554,-3.9897,-3.8829,-3.8408,-3.8408,-3.8408,-3.8408,-3.8408,-3.8408,-3.8408,-3.8408,-3.8408,-3.8408,-3.8408,-3.8408,-3.8408,-3.8408,-3.8408,-3.8408,-3.8408,-3.8408,-3.8408,-3.8408,-3.8408,-3.8408,-3.8408,-3.8408,-3.8408,-3.8408,-3.8408,-3.8119,-3.777,-3.7447,-3.6814,-3.6261,-3.6014,-3.4729,-3.3966,-3.4353,-3.3497,-3.3737,-3.6107,-3.6349,-3.6915,-3.8286,-3.7436,-3.6691,-3.6335,-3.5266,-3.4489,-3.4133,-3.379,-3.363,-3.363,-3.3082,-3.2788,-3.2761,-3.252,-3.2382,-3.2382,-3.2076,-3.1936,-4.9422,-4.9362,-4.9433,-4.9083,-4.9018,-4.8612,-4.7124,-4.6786,0.0,-4.4919,-4.4615,-4.4615,-4.4615,-4.5563,-4.6481,0.0,-4.8984,-5.0947,-5.2131,-5.3348,-5.416,0.0,-5.4158,0.0,-5.2935,-5.2694,0.0,-5.2409,-5.2241,-5.2391,-5.2943,-5.3443,-5.3393,-5.2672,-5.2466,-5.16,-4.9909,-4.974,-4.9083,-4.8001,-4.7835,-4.7073,-4.5781,-4.5616,-4.4854,-4.3598,-4.3479,-4.3199,-4.2785,-4.1363,-4.0596,-4.0156,-3.8893,-3.8408,-3.8408,-3.8408,-3.8408,-3.8408,-3.8408,-3.8408,-3.8408,-3.8408,-3.8408,-3.8408,-3.8408,-3.8408,-3.8408,-3.8408,-3.8408,-3.8408,-3.8408,-3.8408,-3.8408,-3.8408,-3.8408,-3.8408,-3.8408,-3.8408,-3.8379,-3.8205,-3.774,-3.7328,-3.7027,-3.6102,-3.5661,-3.6445,-3.4479,-3.3388,-3.4792,-3.3718,-3.3715,-3.6048,-3.637,-3.6851,-3.806,-3.763,-3.708,-3.6562,-3.5687,-3.4936,-3.436,-3.3591,-3.3182,-3.3182,-3.2544,-3.2188,-3.2188,-3.2076,-3.202,-3.1992,-3.1508,-3.1395,-4.9876,-4.9983,-5.0233,-4.9246,-4.9018,-4.8612,-4.7124,0.0,-4.638,-4.4919,-4.4615,-4.4615,-4.4615,-4.4716,-4.5432,-4.7496,-4.8007,-4.9156,-5.1928,-5.2435,-5.2707,-5.328,0.0,0.0,-5.2659,-5.2589,-5.2518,-5.2409,-5.1779,-5.145,-5.1519,-5.1555,-5.1223,-5.0524,-4.9826,-4.9393,-4.9194,-4.853,-4.8132,-4.8001,-4.7305,-4.6576,-4.5781,-4.5086,-4.4357,-4.3598,-4.3479,-4.2966,0.0,-4.1167,-4.0304,-3.9505,-3.8699,-3.8408,-3.8408,-3.8408,-3.8408,-3.8408,-3.8408,-3.8408,-3.8408,-3.8408,-3.8408,-3.8408,-3.8408,-3.8408,-3.8408,-3.8408,-3.8408,-3.8408,-3.8408,-3.8408,-3.8408,-3.8408,-3.8408,-3.8408,-3.8408,-3.8408,-3.8205,-3.7594,-3.7447,-3.6996,-3.5785,-3.5497,-3.5058,-3.4009,-3.4029,-3.4019,-3.3637,-3.3968,-3.4773,-3.6153,-3.6308,-3.6603,-3.7349,-3.7344,-3.7247,-3.7214,-3.5946,-3.5163,-3.5098,-3.3878,-3.3182,-3.3182,-3.213,-3.1566,-3.1566,-3.1014,-3.0777,-3.0777,-3.0717,-3.0978,-4.9594,-5.0047,-5.0332,-4.928,-4.868,-4.797,-4.6481,0.0,-4.5568,-4.3606,-4.3972,-4.4479,-4.3978,-4.4248,-4.4886,-4.5771,-4.6278,-4.7158,-4.8748,-4.939,-5.0207,-5.1697,-5.1396,0.0,0.0,0.0,-5.1816,-5.1746,-5.1048,-5.0452,-4.9988,-5.0386,-5.032,-4.9558,-4.926,-4.8895,-4.8431,-4.8166,-4.8001,-4.8001,-4.7239,-4.651,-4.5748,-4.5019,-4.426,-4.3479,-4.3295,-4.272,0.0,-4.0983,-4.0183,-3.9441,-3.8667,-3.8408,-3.8408,-3.8408,-3.8408,-3.8408,-3.8408,-3.8408,-3.8408,-3.8408,-3.8408,-3.8408,-3.8408,-3.8408,-3.8408,-3.8408,-3.8408,-3.8408,-3.8408,-3.8408,-3.8408,-3.8408,-3.8408,-3.8408,-3.8408,-3.8091,-3.7711,-3.7447,-3.6753,-3.6039,-3.5497,-3.507,-3.4751,-3.465,-3.4165,-3.4004,-3.4486,-3.4451,-3.474,-3.5594,-3.571,-3.6154,-3.7219,-3.7279,-3.7117,-3.6697,-3.6562,-3.6109,-3.5309,-3.4003,-3.3318,-3.3322,-3.2109,-3.1689,-3.21,-3.1853,-3.1729,-3.1729,-3.1729,-3.1874,-4.8871,-4.9736,-5.0332,-4.9342,-4.8474,-4.7567,0.0,-4.5872,-4.5196,-4.3335,-4.3836,-4.4445,-4.3876,-4.4215,-4.4682,-4.4886,-4.5365,-4.6041,-4.6989,-4.7597,-4.8486,-5.0148,0.0,-4.9723,0.0,-5.092,-5.0949,-5.0949,-5.0286,-4.9657,-4.9127,-4.9392,-4.9326,-4.8796,-4.8763,-4.8531,-4.8001,-4.8001,-4.7901,-4.7669,-4.6941,-4.6179,-4.545,-4.4721,-4.4001,-4.3388,-4.3204,-4.2629,0.0,-4.0864,-4.0092,-3.9441,-3.8667,-3.8408,-3.8379,-3.8177,-3.8091,-3.8091,-3.7857,-3.7799,-3.7828,-3.8033,-3.8091,-3.8148,-3.8351,-3.8408,-3.8408,-3.8408,-3.8408,-3.8408,-3.8408,-3.8234,-3.8091,-3.8091,-3.7943,-3.7799,-3.7799,-3.7415,-3.7057,-3.6845,-3.6071,-3.5335,-3.5139,-3.4706,-3.4568,-3.5037,-3.4354,-3.413,-3.5184,-3.5125,-3.5236,-3.5846,-3.5943,-3.6222,-3.6928,-3.7182,-3.7085,-3.6627,-3.6823,-3.6578,-3.5647,-3.4187,-3.3394,-3.3394,-3.2332,-3.2017,-3.2481,-3.2481,-3.2481,-3.2481,-3.2481,-3.2629,-4.766,-4.9042,-5.0363,-4.943,-4.8534,-4.7703,-4.6955,-4.621,-4.55,-4.475,-4.4581,-4.4615,-4.4581,-4.4615,-4.4852,-4.5568,-4.5703,-4.621,-4.7669,-4.7906,-4.8115,0.0,0.0,-4.8882,-4.9293,-4.9857,-5.022,-5.022,-4.9525,0.0,-4.9094,-4.8431,-4.8034,-4.8001,-4.8001,-4.8001,-4.8001,-4.8001,-4.7636,-4.6908,-4.6146,-4.5417,-4.4718,-4.3959,-4.3539,-4.3388,-4.3204,-4.2629,0.0,-4.0864,-4.0092,-3.9441,-3.8667,-3.8408,-3.829,-3.7653,-3.7417,-3.7328,-3.6631,-3.6415,-3.6538,-3.7177,-3.7417,-3.7535,-3.8205,-3.8408,-3.8408,-3.8408,-3.8408,-3.8408,-3.8408,-3.7918,-3.7417,-3.7417,-3.6906,-3.6415,-3.6415,-3.6415,-3.6228,-3.5561,-3.54,-3.5172,-3.4534,-3.4399,-3.4399,-3.4399,-3.4399,-3.4639,-3.5335,-3.5977,-3.6661,-3.7296,-3.7303,-3.702,-3.6367,-3.6918,-3.7279,-3.7279,-3.6685,-3.6311,-3.6311,-3.4424,-3.3394,-3.3394,-3.2801,-3.2481,-3.2481,-3.2481,-3.2481,-3.2481,-3.2481,-3.2861,-4.5781,-4.709,-4.8075,-4.7185,-4.667,-4.6075,-4.479,-4.4722,-4.4305,-4.2044,-4.2822,-4.3573,-4.2604,-4.3197,-4.3923,-4.4156,-4.4635,-4.5094,0.0,0.0,0.0,-4.7706,-4.8491,-4.9028,0.0,0.0,-4.8928,-4.9425,-4.8763,-4.8365,-4.8365,-4.8133,-4.8001,-4.8001,-4.8001,-4.8001,-4.8001,-4.7504,-4.7139,-4.6874,-4.5616,-4.4951,-4.4655,-4.3959,-4.3215,-4.2515,-4.2422,-4.1556,-4.0212,-3.9927,-3.9379,-3.8732,-3.8505,-3.8119,-3.7682,-3.7476,-3.7117,-3.6661,-3.6477,-3.6415,-3.6446,-3.6631,-3.7027,-3.7358,-3.7117,-3.7682,-3.8408,-3.8408,-3.774,-3.7147,-3.7594,-3.7207,-3.6692,-3.6692,-3.6538,-3.6415,-3.6415,-3.604,-3.5627,-3.5432,-3.5037,-3.4668,-3.4433,-3.4399,-3.4399,-3.4399,-3.4399,-3.4467,-3.4702,-3.5691,-3.6477,-3.6692,-3.6666,-3.6514,-3.6314,-3.6497,-3.6405,-3.5959,-3.6144,-3.6123,-3.5705,-3.4632,-3.4072,-3.4058,-3.3482,-3.3383,-3.3819,-3.3819,-3.3819,-3.3819,-3.3819,-3.3906,-4.3593,-4.4952,-4.5857,-4.5159,-4.4562,-4.3923,-4.2927,-4.2889,-4.2542,-4.0692,-4.1395,-4.2094,-4.1221,-4.1782,-4.2443,-4.2706,-4.3131,-4.3627,0.0,0.0,0.0,-4.6406,0.0,0.0,0.0,-4.8133,-4.8199,-4.8663,-4.8266,-4.8001,-4.8001,-4.8001,-4.7868,-4.7603,-4.757,-4.757,-4.757,-4.6841,-4.6344,-4.6046,-4.5119,-4.4556,-4.4257,-4.3797,-4.3053,-4.2127,-4.2127,-4.1131,0.0,-3.9505,-3.9084,-3.8379,-3.8119,-3.777,-3.7358,-3.6845,-3.6353,-3.5977,-3.5723,-3.5657,-3.5689,-3.5946,-3.6477,-3.6936,-3.6538,-3.6965,-3.7653,-3.7653,-3.7025,-3.6508,-3.6936,-3.6508,-3.6009,-3.6009,-3.5819,-3.5718,-3.5959,-3.5514,-3.5096,-3.5333,-3.4848,-3.4399,-3.4399,-3.4399,-3.4399,-3.4399,-3.4399,-3.4501,-3.4739,-3.5723,-3.6415,-3.6415,-3.659,-3.6498,-3.5975,-3.5911,-3.5641,-3.5021,-3.5558,-3.5767,-3.5402,-3.4785,-3.4398,-3.4399,-3.4022,-3.4022,-3.4399,-3.4399,-3.4399,-3.4399,-3.4399,-3.4399,0.0,-4.2691,-4.3705,-4.3389,-4.2419,-4.1508,-4.1476,-4.0956,0.0,-4.038,-4.038,-4.0415,-4.045,-4.048,-4.0707,-4.1389,-4.1517,0.0,0.0,-4.346,0.0,0.0,-4.5635,0.0,-4.697,-4.7569,-4.7935,-4.8001,-4.8001,-4.8001,-4.8001,-4.8001,-4.7669,-4.6908,-4.6841,-4.6808,-4.6808,-4.6079,-4.5384,-4.4688,-4.4622,-4.4257,-4.3598,-4.3598,-4.302,0.0,-4.2029,-4.1033,-3.9441,-3.9441,-3.8991,-3.8262,-3.7623,-3.7358,-3.7118,-3.5881,-3.5367,-3.5237,-3.4635,-3.4399,-3.4501,-3.5172,-3.5787,-3.6259,-3.6322,-3.6322,-3.6353,-3.6384,-3.6322,-3.6259,-3.6322,-3.5819,-3.5335,-3.5335,-3.4839,-3.4574,-3.5189,-3.4835,-3.4574,-3.5218,-3.4806,-3.4428,-3.4457,-3.4486,-3.4486,-3.4486,-3.4486,-3.4693,-3.5237,-3.5914,-3.6322,-3.6322,-3.6906,-3.6715,-3.5369,-3.5283,-3.5055,-3.4417,-3.491,-3.5277,-3.5337,-3.4706,-3.4399,-3.4399,-3.4399,-3.4399,-3.4399,-3.4399,-3.4399,-3.4399,-3.4399,-3.4399,-3.9159,0.0,-4.1072,-4.1288,-4.1082,-4.0602,0.0,-4.0245,-4.0194,-3.9111,-3.9338,-3.9754,-3.9716,-4.0165,-4.0706,-4.1373,0.0,-4.2585,-4.3492,0.0,0.0,-4.4992,-4.5492,-4.5894,-4.629,-4.6779,-4.7337,-4.7968,-4.8001,-4.8001,-4.8001,-4.8001,-4.7669,-4.6908,-4.6344,-4.6046,-4.6046,-4.5317,-4.4854,-4.4688,-4.4125,-4.3764,-4.3598,-4.3598,-4.2756,-4.1275,-4.1275,-4.0254,-3.8667,-3.8667,-3.8251,-3.7623,-3.7476,-3.6784,-3.5849,-3.5529,-3.5103,-3.4635,-3.4433,-3.4399,-3.4501,-3.5172,-3.5139,-3.4971,-3.5497,-3.5657,-3.5723,-3.6259,-3.5659,-3.5004,-3.5497,-3.5139,-3.4635,-3.4635,-3.4501,-3.4457,-3.4603,-3.4516,-3.4457,-3.4603,-3.4516,-3.4574,-3.5101,-3.516,-3.516,-3.516,-3.516,-3.502,-3.4693,-3.5204,-3.5657,-3.5657,-3.5785,-3.5514,-3.4663,-3.5033,-3.5002,-3.436,-3.4479,-3.4552,-3.4639,-3.4467,-3.4399,-3.4399,-3.4399,-3.4399,-3.4399,-3.4399,-3.4399,-3.4399,-3.4399,-3.4399,-3.8483,-3.8832,-3.9243,-3.9564,-3.9146,-3.8643,-3.855,-3.8581,0.0,0.0,0.0,0.0,0.0,0.0,0.0,0.0,-4.0699,0.0,0.0,0.0,-4.3957,-4.4409,-4.4678,-4.5263,0.0,-4.636,-4.6759,-4.7902,-4.7671,-4.7605,-4.7968,-4.8001,-4.7669,-4.6908,-4.6179,-4.5616,-4.5284,-4.4556,-4.4191,-4.4191,-4.3764,-4.3598,-4.3598,-4.3539,-4.2598,-4.0983,-4.0925,-3.9968,-3.8379,-3.8062,-3.7711,-3.7358,-3.6723,-3.6039,-3.5367,-3.507,-3.4735,-3.4399,-3.4399,-3.4399,-3.4467,-3.4806,-3.4702,-3.4467,-3.4839,-3.4938,-3.5037,-3.5367,-3.4971,-3.4467,-3.4839,-3.4668,-3.4399,-3.4399,-3.4399,-3.4486,-3.4777,-3.4632,-3.4486,-3.4806,-3.4864,-3.4864,-3.4922,-3.5218,-3.5392,-3.5392,-3.516,-3.4922,-3.4864,-3.5182,-3.527,-3.4971,-3.5204,-3.5121,-3.444,-3.4701,-3.4614,-3.3994,-3.4159,-3.4327,-3.437,-3.4399,-3.4399,-3.4399,-3.4399,-3.4399,-3.4399,-3.4399,-3.4399,-3.4399,-3.4399,-3.4399,-3.8395,-3.8262,-3.8171,-3.8266,-3.7404,-3.6692,-3.7215,0.0,0.0,0.0,0.0,0.0,0.0,-3.7277,0.0,0.0,0.0,0.0,-4.1326,-4.2053,-4.2775,-4.3538,-4.3661,0.0,-4.6185,-4.585,-4.6127,-4.7538,-4.7101,-4.7101,-4.777,-4.7935,-4.7603,-4.6742,-4.6113,-4.5384,-4.4522,-4.3926,-4.3598,-4.3598,-4.3598,-4.3598,-4.3598,-4.3479,-4.2538,-4.0983,0.0,0.0,-3.8351,-3.7682,-3.7358,-3.7117,-3.585,-3.5335,-3.5172,-3.4601,-3.4399,-3.4399,-3.4399,-3.4399,-3.4399,-3.4399,-3.4399,-3.4399,-3.4399,-3.4399,-3.4399,-3.4399,-3.4399,-3.4399,-3.4399,-3.4399,-3.4399,-3.4399,-3.4399,-3.4574,-3.5131,-3.4806,-3.4574,-3.516,-3.5247,-3.5131,-3.4748,-3.5067,-3.5456,-3.5647,-3.502,-3.4753,-3.5326,-3.5296,-3.5037,-3.4467,-3.4905,-3.5037,-3.4433,-3.4399,-3.4196,-3.3678,-3.4047,-3.4348,-3.4399,-3.4399,-3.4399,-3.4399,-3.4399,-3.4399,-3.4399,-3.4399,-3.4399,-3.4399,-3.4399,-3.4399,-3.8059,-3.8155,-3.8266,-3.7816,-3.7333,-3.6878,-3.6692,0.0,0.0,0.0,0.0,0.0,0.0,-3.8292,-3.8754,0.0,0.0,-4.2096,0.0,0.0,-4.3309,-4.2833,0.0,-4.3631,-4.4195,-4.4508,-4.5073,-4.5985,-4.6515,-4.6862,-4.6965,-4.7638,-4.7371,-4.6013,-4.5847,-4.5152,-4.3764,-4.3664,-4.3598,-4.3598,-4.3598,-4.3598,-4.3598,-4.3479,-4.2538,-4.0983,0.0,-3.9881,-3.8351,-3.7682,-3.7057,-3.6477,-3.5691,-3.507,-3.4534,-3.4433,-3.4399,-3.4399,-3.4399,-3.4399,-3.4399,-3.4399,-3.4399,-3.4399,-3.4399,-3.4399,-3.4399,-3.4399,-3.4399,-3.4399,-3.4399,-3.4399,-3.4399,-3.4399,-3.4399,-3.4428,-3.4545,-3.4486,-3.4428,-3.4545,-3.4545,-3.4864,-3.5851,-3.5683,-3.5775,-3.6862,-3.6006,-3.5278,-3.541,-3.4898,-3.4501,-3.4399,-3.4501,-3.4501,-3.4399,-3.4399,-3.437,-3.4283,-3.4321,-3.4413,-3.4399,-3.4399,-3.4399,-3.4399,-3.4399,-3.4399,-3.4399,-3.4399,-3.4399,-3.4399,-3.4399,-3.4399,-3.777,-3.7875,-3.8041,-3.7651,-3.7437,-3.7219,-3.7062,-3.6753,0.0,0.0,0.0,0.0,0.0,0.0,-3.9616,-4.137,0.0,-4.2401,-4.2596,-4.2682,-4.2705,0.0,0.0,-4.3257,-4.4086,-4.3976,-4.4358,-4.5624,-4.5593,-4.5758,-4.6176,-4.6549,-4.6487,-4.5814,-4.5384,-4.4887,-4.4191,-4.3797,-4.3598,-4.3598,-4.3598,-4.3568,-4.3509,-4.3295,-4.2389,-4.09,0.0,-3.979,-3.829,-3.7296,-3.6661,-3.6291,-3.527,-3.4668,-3.4399,-3.4399,-3.4399,-3.4399,-3.4399,-3.4399,-3.4399,-3.4399,-3.4399,-3.4399,-3.4399,-3.4399,-3.4399,-3.4399,-3.4399,-3.4399,-3.4399,-3.4399,-3.4399,-3.4399,-3.4399,-3.4399,-3.4399,-3.4399,-3.4399,-3.4399,-3.469,-3.5125,-3.5706,-3.5595,-3.57,-3.6628,-3.5653,-3.5001,-3.5369,-3.4806,-3.4399,-3.4399,-3.4399,-3.4399,-3.4399,-3.4399,-3.4399,-3.4399,-3.4399,-3.4399,-3.4399,-3.4399,-3.4399,-3.4399,-3.4399,-3.4399,-3.4399,-3.4399,-3.4399,-3.4399,-3.4399,-3.4225,-3.7682,-3.778,-3.7943,-3.7468,-3.7403,-3.7433,-3.7677,-3.7338,0.0,0.0,0.0,0.0,0.0,-3.9185,0.0,-4.2294,-4.2542,-4.2517,-4.2701,-4.2439,-4.2364,-4.2724,-4.2745,-4.315,-4.4136,-4.3654,-4.375,-4.4855,-4.4489,-4.4475,-4.4923,-4.5298,-4.5407,-4.5331,-4.4925,-4.4622,-4.4423,-4.3893,-4.3598,-4.3598,-4.3598,-4.3539,-4.3388,-4.3204,-4.2334,-4.101,-4.0667,-3.9712,-3.8316,-3.6968,-3.6322,-3.604,-3.4872,-3.4399,-3.4399,-3.4399,-3.4399,-3.4399,-3.4399,-3.4399,-3.4399,-3.4399,-3.4399,-3.4399,-3.4399,-3.4399,-3.4399,-3.4399,-3.4399,-3.4399,-3.4399,-3.4399,-3.4399,-3.4399,-3.4399,-3.4399,-3.4399,-3.4399,-3.4399,-3.4399,-3.4806,-3.5276,-3.5566,-3.5479,-3.5659,-3.6412,-3.5461,-3.4816,-3.5307,-3.4792,-3.4399,-3.4399,-3.4399,-3.4399,-3.4399,-3.4399,-3.4399,-3.4399,-3.4399,-3.4399,-3.4399,-3.4399,-3.4399,-3.4399,-3.4399,-3.4399,-3.4399,-3.4399,-3.4399,-3.4399,-3.4399,-3.4138,-3.7943,-3.813,-3.8147,-3.7279,-3.7062,-3.7281,-3.8234,-3.8385,0.0,-3.8415,0.0,0.0,0.0,-3.9551,-4.0905,-4.2386,-4.2792,-4.3176,-4.3783,0.0,-4.321,-4.3269,-4.3269,-4.3269,-4.3369,-4.3329,-4.3129,-4.2655,-4.3213,-4.3353,-4.2757,-4.4086,-4.4561,-4.3847,-4.4381,-4.4357,-4.3698,-4.3631,-4.3598,-4.3598,-4.3598,-4.3539,-4.3388,-4.3204,-4.2596,-4.1664,-4.0832,-3.9762,-3.8364,-3.6971,-3.604,-3.54,-3.4702,-3.4399,-3.4399,-3.4399,-3.4399,-3.4399,-3.4399,-3.4399,-3.4399,-3.4399,-3.4399,-3.4399,-3.4399,-3.4399,-3.4399,-3.4399,-3.4399,-3.4399,-3.4399,-3.4399,-3.4399,-3.4399,-3.4399,-3.4399,-3.4399,-3.4399,-3.4399,-3.4399,-3.4457,-3.4864,-3.6025,-3.5799,-3.5804,-3.7049,-3.6158,-3.5341,-3.5386,-3.4802,-3.4399,-3.4399,-3.4399,-3.4399,-3.4399,-3.4399,-3.4399,-3.4399,-3.4399,-3.4399,-3.4399,-3.4399,-3.4399,-3.4399,-3.4399,-3.4399,-3.4399,-3.4399,-3.4399,-3.4399,-3.4399,-3.4399,-3.7478,-3.7428,-3.7497,-3.7343,-3.7002,0.0,0.0,-3.7892,-3.8108,-3.897,-3.9,0.0,0.0,0.0,-4.1965,-4.3063,-4.332,-4.368,-4.4504,-4.3877,-4.329,-4.329,-4.329,-4.329,-4.329,-4.297,-4.2641,-4.241,-4.2258,-4.2088,-4.1827,-4.2365,-4.28,-4.3006,-4.3258,-4.3467,-4.3598,-4.3598,-4.3598,-4.3598,-4.3598,-4.3446,-4.3204,-4.3143,-4.2307,-4.0959,-4.064,-3.9477,-3.7766,-3.6785,-3.6009,-3.5335,-3.4668,-3.4399,-3.4399,-3.4399,-3.4399,-3.4399,-3.4399,-3.4399,-3.4399,-3.4399,-3.4399,-3.4399,-3.4399,-3.4399,-3.4399,-3.4399,-3.4399,-3.4399,-3.4399,-3.4399,-3.4399,-3.4399,-3.4399,-3.4399,-3.4399,-3.4399,-3.4399,-3.4399,-3.4399,-3.469,-3.5595,-3.5183,-3.5228,-3.6465,-3.5974,-3.5554,-3.5913,-3.5764,-3.5444,-3.5038,-3.4661,-3.4399,-3.4399,-3.4399,-3.4399,-3.4399,-3.4399,-3.4399,-3.4399,-3.4399,-3.4399,-3.4399,-3.4399,-3.4399,-3.4399,-3.4399,-3.4399,-3.4399,-3.4399,-3.4196,-3.724,-3.706,-3.7063,0.0,0.0,0.0,-3.7615,-3.8138,-3.8785,-3.9955,-3.9616,-3.937,-4.0047,0.0,0.0,0.0,-4.3487,-4.3935,-4.4507,-4.3828,-4.329,-4.329,-4.329,-4.329,-4.329,-4.2731,-4.2321,-4.2111,-4.1482,-4.0979,-4.0797,-4.0984,-4.146,-4.2238,-4.2491,-4.2896,-4.3598,-4.3598,-4.3466,-4.3234,-4.3205,-4.3188,-4.308,-4.2883,-4.2078,-4.0834,-4.0383,-3.9163,-3.737,-3.6693,-3.5882,-3.5037,-3.4568,-3.4399,-3.4399,-3.4399,-3.4399,-3.4399,-3.4399,-3.4399,-3.4399,-3.4399,-3.4399,-3.4399,-3.4399,-3.4399,-3.4399,-3.4399,-3.4399,-3.4399,-3.4399,-3.4399,-3.4399,-3.4399,-3.4399,-3.4399,-3.4399,-3.4399,-3.4399,-3.4399,-3.4399,-3.469,-3.5566,-3.5299,-3.5386,-3.646,-3.6257,-3.5996,-3.5996,-3.617,-3.6054,-3.545,-3.4806,-3.4399,-3.4399,-3.4399,-3.4399,-3.4399,-3.4399,-3.4399,-3.4399,-3.4399,-3.4399,-3.4399,-3.4399,-3.4399,-3.4399,-3.4399,-3.4399,-3.4399,-3.4399,-3.4196,-3.7387,-3.721,-3.6999,0.0,0.0,0.0,-3.82,-3.9521,-4.0659,-4.1432,-4.1032,-4.072,-4.1463,-4.1377,0.0,-4.2187,-4.3099,-4.3675,-4.3675,-4.3448,-4.329,-4.326,-4.329,-4.329,-4.326,-4.2731,-4.2111,-4.1452,-4.0756,-4.0098,-3.9469,-4.0091,-4.0789,-4.1459,-4.2205,-4.2896,-4.3598,-4.3598,-4.3234,-4.2506,-4.2356,-4.2571,-4.3047,-4.2392,-4.1915,-4.1515,-4.0092,-3.8702,-3.7431,-3.6692,-3.5625,-3.4399,-3.4399,-3.4399,-3.4399,-3.4399,-3.4399,-3.4399,-3.4399,-3.4399,-3.4399,-3.4428,-3.4428,-3.4428,-3.4428,-3.4428,-3.4428,-3.4428,-3.4428,-3.4428,-3.4399,-3.4399,-3.4399,-3.4399,-3.4399,-3.4399,-3.4399,-3.4399,-3.4399,-3.4428,-3.4399,-3.4806,-3.6083,-3.6286,-3.6519,-3.7186,-3.7302,-3.6838,-3.5595,-3.5938,-3.6054,-3.5479,-3.4806,-3.4399,-3.4399,-3.4399,-3.4399,-3.4399,-3.4399,-3.4399,-3.4399,-3.4399,-3.4399,-3.4399,-3.4399,-3.4399,-3.4399,-3.4399,-3.4399,-3.4399,-3.4428,-3.4428,-3.6816,-3.6352,0.0,-3.6538,0.0,0.0,0.0,-3.8446,0.0,0.0,-4.1463,-4.1822,-4.1408,-4.1961,0.0,-4.2765,-4.3141,-4.3478,-4.3675,-4.3097,-4.2491,-4.2013,-4.2372,-4.2462,-4.2013,-4.1773,-4.1422,-4.0756,-4.0098,-3.9619,-3.9403,-3.9625,-3.9843,-4.0073,-4.0743,-4.1467,-4.2209,-4.2146,-4.2198,-4.2356,-4.177,-4.1551,-4.1606,-4.0809,-4.0347,-4.0005,-3.9145,-3.8029,-3.6622,-3.5469,-3.4739,-3.4399,-3.4399,-3.4399,-3.4399,-3.4399,-3.4399,-3.4399,-3.4399,-3.4399,-3.4486,-3.4922,-3.5101,-3.5189,-3.5619,-3.5764,-3.5648,-3.5212,-3.5101,-3.498,-3.4516,-3.4399,-3.4399,-3.4399,-3.4399,-3.4399,-3.4399,-3.4399,-3.4545,-3.498,-3.4719,-3.469,-3.5537,-3.527,-3.5183,-3.5886,-3.6315,-3.678,-3.7302,-3.6751,-3.6228,-3.6054,-3.5067,-3.4399,-3.4399,-3.4399,-3.4399,-3.4399,-3.4399,-3.4399,-3.4399,-3.4399,-3.4399,-3.4399,-3.4399,-3.4399,-3.4399,-3.4399,-3.4399,-3.4428,-3.4864,-3.5101,-3.6538,-3.6199,0.0,-3.6384,-3.6692,-3.7184,-3.8262,0.0,0.0,0.0,-4.1801,-4.2068,-4.1704,-4.2125,0.0,-4.2811,-4.2896,-4.298,-4.3166,-4.2518,-4.1871,-4.1482,-4.1782,-4.1841,-4.1452,-4.1145,-4.0816,-4.0427,-3.9798,-3.9373,-3.9373,-3.9373,-3.9556,-3.9893,-4.0297,-4.0839,-4.1564,-4.1814,-4.1898,-4.185,-4.1665,-4.1304,-4.0867,-4.0087,-3.9658,-3.9345,-3.8401,-3.7539,-3.6645,-3.5346,-3.4806,-3.4777,-3.4516,-3.4399,-3.4399,-3.4399,-3.4574,-3.4748,-3.4486,-3.4574,-3.4864,-3.5276,-3.5392,-3.5508,-3.6112,-3.6315,-3.6228,-3.5851,-3.5595,-3.5305,-3.4893,-3.4806,-3.4719,-3.4457,-3.4399,-3.4399,-3.4399,-3.4603,-3.4893,-3.5334,-3.5072,-3.498,-3.5654,-3.5415,-3.5386,-3.6025,-3.646,-3.707,-3.8057,-3.7099,-3.6315,-3.6315,-3.5386,-3.469,-3.4428,-3.4632,-3.4806,-3.4806,-3.5038,-3.5154,-3.5154,-3.469,-3.4399,-3.4399,-3.4399,-3.4399,-3.4399,-3.4661,-3.4806,-3.4806,-3.5444,-3.577,-3.6507,-3.6445,0.0,-3.6569,-3.7123,0.0,-3.8539,-4.0139,-4.1678,-4.2294,0.0,-4.1792,-4.2193,-4.2065,-4.2024,-4.2401,-4.2428,-4.2351,-4.2231,-4.1752,-4.1324,-4.1205,-4.1265,-4.1265,-4.1205,-4.0726,-4.0367,-4.0307,-3.9768,-3.9373,-3.9373,-3.9373,-3.9702,-4.0282,-4.0378,-4.0721,-4.1299,-4.1981,-4.1914,-4.1176,-4.1666,-4.1428,-4.0569,-3.9874,-3.9471,-3.9156,-3.7846,-3.7302,-3.7212,-3.5902,-3.5421,-3.5421,-3.469,-3.4486,-3.4574,-3.4516,-3.4893,-3.5392,-3.4777,-3.4951,-3.5479,-3.5566,-3.5566,-3.5712,-3.6286,-3.6489,-3.646,-3.6431,-3.5996,-3.5566,-3.5508,-3.5479,-3.5334,-3.4719,-3.4545,-3.4486,-3.4486,-3.4951,-3.5392,-3.5392,-3.5392,-3.5595,-3.6199,-3.6257,-3.646,-3.7186,-3.7215,-3.7389,-3.8115,-3.7041,-3.6257,-3.6286,-3.5706,-3.5101,-3.4545,-3.5072,-3.5421,-3.5479,-3.5996,-3.6315,-3.6315,-3.5212,-3.4574,-3.4574,-3.4574,-3.4574,-3.4574,-3.5189,-3.5479,-3.5508,-3.6112,-3.6402,-3.6507,-3.6107,0.0,0.0,-3.82,-3.9244,-3.992,-4.0413,-4.0751,-4.0905,-4.1602,-4.2126,-4.2095,-4.191,-4.1716,-4.1678,-4.2051,-4.2051,-4.0965,-4.1145,-4.0995,-3.9978,-4.0307,-4.0397,-3.9888,-4.0187,-4.0187,-3.9679,-3.9463,-3.9373,-3.9373,-3.9373,-3.9242,-3.8848,-3.936,-3.9742,-3.9913,-4.0047,-4.0414,-4.1052,-4.0601,-4.0126,-3.9657,-3.8997,-3.835,-3.7748,-3.7417,-3.7287,-3.7212,-3.5902,-3.5683,-3.5996,-3.4864,-3.5009,-3.5851,-3.5363,-3.5595,-3.6083,-3.5938,-3.5996,-3.6199,-3.6722,-3.6896,-3.7012,-3.7622,-3.7796,-3.7709,-3.7215,-3.6983,-3.678,-3.6228,-3.6112,-3.6083,-3.5938,-3.5532,-3.5189,-3.5189,-3.5305,-3.5392,-3.5392,-3.5392,-3.5595,-3.6199,-3.5909,-3.6002,-3.7128,-3.6431,-3.6409,-3.7999,-3.6664,-3.5799,-3.6257,-3.5299,-3.4777,-3.516,-3.5305,-3.5595,-3.6083,-3.6228,-3.6315,-3.6315,-3.6054,-3.5909,-3.5909,-3.5909,-3.5909,-3.5909,-3.6054,-3.6112,-3.6112,-3.678,-3.7099,-3.6507,0.0,0.0,-3.7646,0.0,-3.9308,-4.0259,-4.0505,-4.0505,-4.0436,-4.0882,-4.1387,-4.1505,-4.1351,-4.1257,-4.1362,-4.1414,-4.1175,-4.0487,-4.0427,-4.0187,-3.9463,-3.9738,-3.9798,-3.9403,-3.9738,-3.9798,-3.9439,-3.911,-3.908,-3.9409,-3.911,-3.8901,-3.8871,-3.923,-3.9409,-3.9469,-3.9749,-4.0093,-4.0464,-4.0415,-4.0031,-3.9305,-3.8659,-3.8107,-3.7729,-3.7711,-3.7755,-3.767,-3.6726,-3.6489,-3.6693,-3.5706,-3.5532,-3.5851,-3.5822,-3.6025,-3.6315,-3.6315,-3.6519,-3.6838,-3.7186,-3.7302,-3.7418,-3.8028,-3.8202,-3.8144,-3.7825,-3.7535,-3.7215,-3.6867,-3.678,-3.678,-3.678,-3.6054,-3.5392,-3.5392,-3.5392,-3.5392,-3.5392,-3.5392,-3.5508,-3.5793,-3.5625,-3.5828,-3.7099,-3.646,-3.617,-3.7157,-3.6431,-3.5822,-3.5851,-3.5532,-3.5328,-3.5392,-3.5973,-3.6431,-3.678,-3.7041,-3.7215,-3.7215,-3.7215,-3.6925,-3.6315,-3.6315,-3.6315,-3.6315,-3.6635,-3.678,-3.6809,-3.7447,-3.7738,-3.6507,0.0,-3.6969,-3.82,-3.86,0.0,-4.0228,-4.0505,-4.047,-4.0331,-4.0261,-4.0375,-4.0709,-4.0619,-4.0618,-4.1003,-4.0696,-4.0367,-4.0247,-3.9858,-3.9559,-3.9403,-3.9373,-3.9373,-3.9373,-3.9373,-3.9343,-3.926,-3.8721,-3.8601,-3.905,-3.8631,-3.8661,-3.923,-3.9313,-3.9373,-3.9373,-3.9985,-4.013,-3.9889,-4.0447,-4.0209,-3.929,-3.8603,-3.823,-3.8202,-3.8202,-3.8144,-3.7999,-3.7506,-3.7302,-3.7244,-3.6577,-3.6112,-3.5944,-3.6315,-3.6548,-3.6635,-3.6635,-3.6983,-3.7476,-3.7476,-3.7476,-3.7564,-3.8057,-3.8202,-3.8202,-3.8202,-3.7854,-3.7476,-3.7476,-3.7476,-3.7476,-3.7476,-3.6548,-3.5712,-3.5595,-3.5566,-3.5508,-3.5276,-3.5334,-3.5421,-3.5537,-3.5479,-3.5828,-3.7099,-3.6635,-3.6257,-3.6606,-3.6431,-3.6141,-3.577,-3.6054,-3.6141,-3.577,-3.6693,-3.736,-3.7447,-3.7912,-3.8202,-3.8202,-3.8202,-3.7709,-3.6664,-3.6635,-3.6635,-3.6635,-3.7186,-3.7476,-3.7476,-3.797,-3.8202,0.0,0.0,-3.7554,0.0,-3.8939,-3.9585,0.0,0.0,-4.047,0.0,-4.0156,-4.0011,-3.9888,-3.9709,-3.9589,-3.9679,-4.0098,-4.0217,-3.9619,-3.9978,-4.0068,-3.9463,-3.9373,-3.9373,-3.9373,-3.9373,-3.917,-3.8571,-3.8452,-3.8182,-3.7704,-3.8123,-3.8422,-3.8512,-3.911,-3.9373,-3.9373,-3.9307,-3.9493,-3.9889,-3.9642,-3.9463,-3.9284,-3.8532,-3.819,-3.8202,-3.8202,-3.7912,-3.7418,-3.7331,-3.7302,-3.7244,-3.6577,-3.6925,-3.7767,-3.7331,-3.7506,-3.7941,-3.7941,-3.7999,-3.8086,-3.8086,-3.8086,-3.8086,-3.8173,-3.8202,-3.8202,-3.8202,-3.8144,-3.8086,-3.8086,-3.8086,-3.8086,-3.8086,-3.7564,-3.6896,-3.6315,-3.617,-3.5851,-3.4748,-3.498,-3.5566,-3.6083,-3.577,-3.5828,-3.7099,-3.6257,-3.6119,-3.7738,-3.6983,-3.6489,-3.6983,-3.6606,-3.6519,-3.7012,-3.7215,-3.7535,-3.8057,-3.8173,-3.8202,-3.8202,-3.8202,-3.8115,-3.7941,-3.7941,-3.7941,-3.7941,-3.8028,-3.8086,-3.8086,-3.8173,-3.8202,-3.6507,-3.6722,-3.7092,0.0,-3.8169,-3.8569,-3.9247,0.0,-3.9749,-3.9608,-3.9702,-3.9803,-3.9732,-3.9553,-3.9373,-3.9373,-3.932,-3.932,-3.9373,-3.932,-3.917,-3.8871,-3.8841,-3.8691,-3.8332,-3.8302,-3.8182,-3.7853,-3.7524,-3.7494,-3.7943,-3.7883,-3.8182,-3.8931,-3.8871,-3.8841,-3.8841,-3.8627,-3.8733,-3.9096,-3.8841,-3.8694,-3.8694,-3.8352,-3.8202,-3.8202,-3.8202,-3.8057,-3.7796,-3.7796,-3.7796,-3.7738,-3.7128,-3.7215,-3.768,-3.7418,-3.7476,-3.7738,-3.8086,-3.8202,-3.8202,-3.8202,-3.8202,-3.8202,-3.8202,-3.8202,-3.8202,-3.8202,-3.8202,-3.8202,-3.8202,-3.8202,-3.8202,-3.8202,-3.7738,-3.7215,-3.6925,-3.6469,-3.5848,-3.4981,-3.501,-3.5485,-3.6164,-3.5793,-3.5828,-3.7099,-3.6489,-3.6199,-3.7041,-3.6664,-3.6431,-3.6722,-3.6809,-3.6983,-3.7273,-3.7622,-3.7875,-3.8014,-3.8127,-3.8127,-3.8043,-3.8043,-3.8043,-3.8043,-3.8127,-3.8202,-3.8202,-3.8202,-3.8202,-3.8202,-3.8202,-3.8202,0.0,0.0,-3.6661,-3.7338,-3.746,-3.7612,0.0,0.0,-3.8872,0.0,-3.9199,-3.9425,-3.939,-3.9247,-3.911,-3.8931,-3.8482,-3.8332,-3.8841,-3.8452,-3.8153,-3.8153,-3.8153,-3.7943,-3.7464,-3.7404,-3.7345,-3.7195,-3.6746,-3.6836,-3.7614,-3.7345,-3.7644,-3.8631,-3.8332,-3.8212,-3.8392,-3.8175,-3.7942,-3.7726,-3.7725,-3.7564,-3.7244,-3.7418,-3.7476,-3.7506,-3.7825,-3.7796,-3.7506,-3.7651,-3.7738,-3.768,-3.7418,-3.7302,-3.7331,-3.7476,-3.7447,-3.7389,-3.7999,-3.8202,-3.8202,-3.8202,-3.8202,-3.8202,-3.8202,-3.8202,-3.8202,-3.8202,-3.8202,-3.8202,-3.8202,-3.8202,-3.8202,-3.8202,-3.7854,-3.7506,-3.7331,-3.6671,-3.5985,-3.5725,-3.5523,-3.5588,-3.6193,-3.5909,-3.5996,-3.7128,-3.6867,-3.6606,-3.678,-3.678,-3.678,-3.678,-3.7244,-3.7535,-3.7535,-3.7866,-3.8081,-3.7891,-3.7976,-3.7976,-3.7891,-3.7891,-3.7891,-3.7891,-3.8081,-3.8127,-3.8127,-3.8127,-3.8127,-3.8202,-3.8202,-3.8202,0.0,-3.6507,0.0,-3.7338,-3.7364,0.0,0.0,0.0,0.0,-3.865,-3.8732,-3.8697,-3.8522,-3.8452,-3.8242,-3.7614,-3.7494,-3.7464,-3.7494,-3.7494,-3.7464,-3.7464,-3.7464,-3.7434,-3.7404,-3.7404,-3.7165,-3.6567,-3.6507,-3.6237,-3.5699,-3.6207,-3.6567,-3.6626,-3.7165,-3.7764,-3.8392,-3.8068,-3.7122,-3.5566,-3.6112,-3.5764,-3.4632,-3.5276,-3.5537,-3.5625,-3.6809,-3.6664,-3.5595,-3.6141,-3.6402,-3.646,-3.707,-3.7302,-3.7389,-3.7941,-3.7796,-3.7389,-3.7999,-3.8202,-3.8202,-3.8202,-3.8202,-3.8202,-3.8202,-3.8202,-3.8202,-3.8202,-3.8202,-3.8202,-3.8202,-3.8202,-3.8202,-3.8202,-3.8173,-3.7999,-3.7418,-3.678,-3.6454,-3.7063,-3.6657,-3.6222,-3.6315,-3.6286,-3.6489,-3.7186,-3.7273,-3.7447,-3.8028,-3.8115,-3.8115,-3.8115,-3.8144,-3.8144,-3.8144,-3.8014,-3.7891,-3.7891,-3.7739,-3.7701,-3.7891,-3.7891,-3.7891,-3.7891,-3.7891,-3.7929,-3.7929,-3.7929,-3.8005,-3.8202,-3.8202,-3.8202,0.0,0.0,0.0,-3.6784,-3.672,-3.6624,-3.6868,-3.7038,-3.7201,-3.7375,-3.7665,-3.7713,-3.7289,-3.7853,-3.8182,-3.7524,-3.7075,-3.6956,-3.7345,-3.7075,-3.6806,-3.6806,-3.6806,-3.6656,-3.6237,-3.6178,-3.6088,-3.5878,-3.5848,-3.5938,-3.6118,-3.6357,-3.6477,-3.6477,-3.6716,-3.6615,-3.617,-3.5962,-3.5488,-3.4748,-3.498,-3.4864,-3.4428,-3.4661,-3.4748,-3.4748,-3.4806,-3.5305,-3.5938,-3.5328,-3.5561,-3.6257,-3.5677,-3.6199,-3.7273,-3.707,-3.736,-3.7912,-3.8115,-3.8202,-3.8202,-3.8202,-3.8202,-3.8202,-3.8202,-3.8202,-3.8202,-3.8202,-3.8202,-3.8115,-3.7738,-3.7622,-3.7622,-3.7622,-3.7912,-3.8144,-3.7912,-3.7486,-3.7069,-3.6962,-3.6733,-3.6597,-3.6707,-3.6881,-3.7157,-3.7796,-3.7883,-3.797,-3.8173,-3.8089,-3.8005,-3.8005,-3.8005,-3.8005,-3.8005,-3.8081,-3.8043,-3.7891,-3.7967,-3.7967,-3.7891,-3.7891,-3.7891,-3.7891,-3.7376,-3.7376,-3.7891,-3.7891,-3.7803,-3.7622,-3.8028,-3.7999,-3.6383,0.0,0.0,0.0,0.0,-3.6133,-3.6133,0.0,-3.6373,-3.6583,-3.6873,-3.6985,-3.6567,-3.7165,-3.7524,-3.6866,-3.6417,-3.6297,-3.6716,-3.6417,-3.6237,-3.6447,-3.6297,-3.6058,-3.5848,-3.5639,-3.5519,-3.5519,-3.5519,0.0,-3.6118,-3.6148,-3.6115,-3.6081,-3.5872,-3.5317,-3.4512,-3.4413,-3.4043,-3.3441,-3.3674,-3.3558,-3.3122,-3.3325,-3.3558,-3.3732,-3.2893,-3.3703,-3.559,-3.4516,-3.4835,-3.5909,-3.5067,-3.5532,-3.6664,-3.6635,-3.7041,-3.7622,-3.8057,-3.8202,-3.8202,-3.8202,-3.8202,-3.8202,-3.8202,-3.8202,-3.8202,-3.8202,-3.8057,-3.7825,-3.7418,-3.7302,-3.736,-3.7564,-3.7912,-3.8202,-3.8202,-3.7976,-3.7614,-3.7011,-3.7077,-3.7164,-3.7037,-3.7329,-3.7701,-3.8032,-3.8165,-3.8202,-3.8202,-3.8052,-3.8005,-3.8005,-3.8005,-3.8005,-3.8005,-3.8052,-3.8043,-3.7891,-3.7967,-3.7938,-3.7891,-3.7891,-3.7805,-3.7575,-3.7261,-3.7146,-3.7258,-3.7258,-3.7255,-3.7302,-3.7476,-3.736,0.0,0.0,0.0,0.0,0.0,0.0,-3.6005,0.0,-3.5699,-3.6327,-3.6447,-3.6447,-3.6447,-3.6447,-3.6237,-3.5609,-3.5519,-3.5519,-3.5519,-3.5519,-3.5759,-3.6417,-3.5908,-3.5759,-3.6417,-3.5878,-3.5519,-3.5519,-3.5519,-3.5519,-3.5519,-3.5459,-3.5332,-3.5169,-3.4486,-3.397,-3.3644,-3.3644,-3.2905,-3.1495,-3.2133,-3.1816,-3.0656,-3.1235,-3.1843,-3.2394,-3.1148,-3.2019,-3.4312,-3.3678,-3.4172,-3.5305,-3.5305,-3.5334,-3.5537,-3.6809,-3.6867,-3.6519,-3.7767,-3.8202,-3.8202,-3.8202,-3.8202,-3.8202,-3.8202,-3.8202,-3.8202,-3.8202,-3.7767,-3.7302,-3.7273,-3.7273,-3.7418,-3.8028,-3.8173,-3.8173,-3.8202,-3.8202,-3.8028,-3.7447,-3.7796,-3.7953,-3.716,-3.7676,-3.8127,-3.7929,-3.8052,-3.8202,-3.8202,-3.8202,-3.8202,-3.8202,-3.8202,-3.8202,-3.8202,-3.8043,-3.7891,-3.7891,-3.7739,-3.7701,-3.7891,-3.7891,-3.7641,-3.7037,-3.7613,-3.7258,-3.6057,-3.6029,-3.6454,-3.7244,-3.6577,-3.6286,-3.6068,0.0,0.0,0.0,0.0,0.0,-3.5784,-3.5651,-3.5549,-3.5729,-3.5789,-3.5789,-3.5789,-3.5789,-3.5729,-3.5519,-3.5519,-3.5519,-3.5519,-3.5519,-3.5759,-3.6417,-3.5908,-3.5759,-3.6417,-3.5878,-3.5519,0.0,-3.5519,-3.5519,-3.5519,-3.4592,-3.3991,-3.3834,-3.3025,-3.2545,-3.2359,-3.2174,-3.1905,-3.1495,-3.1235,-3.1148,-3.1264,-3.1438,-3.1582,-3.1756,-3.1409,-3.1932,-3.2948,-3.1845,-3.2135,-3.3296,-3.3296,-3.3877,-3.4835,-3.6112,-3.678,-3.7157,-3.7941,-3.8202,-3.8202,-3.8202,-3.8202,-3.8202,-3.8202,-3.8202,-3.8202,-3.8202,-3.7767,-3.7186,-3.6722,-3.6257,-3.617,-3.7302,-3.7564,-3.768,-3.8115,-3.8202,-3.8107,-3.7774,-3.7852,-3.791,-3.7699,-3.7965,-3.8165,-3.8127,-3.8165,-3.8202,-3.8202,-3.8052,-3.7967,-3.7967,-3.7967,-3.7967,-3.7967,-3.8081,-3.8127,-3.8127,-3.8052,-3.8052,-3.8089,-3.8127,-3.804,-3.7866,-3.7606,-3.7482,-3.7606,-3.7024,-3.6454,-3.5915,-3.5741,-3.5654,-3.5784,0.0,0.0,0.0,0.0,0.0,-3.5688,-3.5589,-3.5519,-3.5519,-3.5519,-3.5519,-3.5519,-3.5519,-3.5519,-3.5519,-3.5519,-3.5519,-3.5519,-3.5519,-3.5848,-3.6776,-3.6297,-3.6267,-3.7195,-3.6447,-3.5908,-3.5908,-3.5669,-3.5519,-3.5519,-3.4233,-3.3543,-3.3685,-3.2344,-3.166,-3.1803,-3.1356,-3.1119,-3.1119,-3.1003,-3.1032,-3.1119,-3.1409,-3.1495,-3.1495,-3.1495,-3.1698,-3.2048,-3.1293,-3.1584,-3.2539,-3.3093,-3.3587,-3.4225,-3.6054,-3.6809,-3.7012,-3.7883,-3.8202,-3.8202,-3.8202,-3.8202,-3.8202,-3.8202,-3.8028,-3.7825,-3.7825,-3.7186,-3.6402,-3.6025,-3.5683,-3.5654,-3.6664,-3.7099,-3.7418,-3.7767,-3.8028,-3.8165,-3.8081,-3.8043,-3.8005,-3.7891,-3.8081,-3.8165,-3.8089,-3.8127,-3.8202,-3.8202,-3.8118,-3.8043,-3.8043,-3.8043,-3.8043,-3.8043,-3.8127,-3.8202,-3.8202,-3.8202,-3.8202,-3.8202,-3.8202,-3.8086,-3.7825,-3.7738,-3.7738,-3.7825,-3.7076,-3.6382,-3.5799,-3.5799,-3.5799,0.0,0.0,0.0,0.0,-3.5814,0.0,-3.5688,-3.5619,-3.5519,-3.5519,-3.5519,-3.5519,-3.5519,-3.5519,-3.5457,-3.5392,-3.5424,-3.5519,-3.5519,-3.5579,-3.6058,-3.7255,-3.6926,-3.7075,-3.8272,-3.7225,-3.6477,-3.6477,-3.5878,-3.5459,-3.54,-3.4173,-3.3631,-3.3949,-3.2077,-3.1249,-3.1684,-3.0949,-3.0627,-3.0714,-3.1235,-3.1235,-3.0743,-3.1322,-3.1553,-3.1495,-3.1553,-3.1611,-3.1613,-3.1524,-3.1785,-3.2425,-3.3703,-3.3848,-3.3707,-3.6257,-3.6809,-3.6489,-3.7767,-3.8202,-3.8202,-3.8202,-3.8144,-3.8115,-3.8115,-3.768,-3.7186,-3.7099,-3.6257,-3.5392,-3.5392,-3.5334,-3.5479,-3.6228,-3.6809,-3.7244,-3.7389,-3.7825,-3.8202,-3.8202,-3.8202,-3.8127,-3.7967,-3.8052,-3.8127,-3.7967,-3.8089,-3.8202,-3.8202,-3.8202,-3.8202,-3.8202,-3.8202,-3.8202,-3.8202,-3.8202,-3.8202,-3.8202,-3.8202,-3.8202,-3.8202,-3.8202,-3.7941,-3.7418,-3.7999,-3.8057,-3.7506,-3.6722,-3.6315,-3.6315,-3.6315,-3.6315,0.0,0.0,0.0,0.0,0.0,0.0,-3.5554,-3.5522,-3.5519,-3.5519,-3.5519,-3.5519,-3.5519,-3.5519,-3.5294,-3.4643,-3.51,-3.5519,-3.5519,-3.5968,-3.6567,-3.7315,-3.7315,-3.7524,-3.8302,-3.7225,-3.6477,-3.6477,-3.5878,-3.525,-3.4743,-3.3809,-3.306,-3.2461,-3.1395,-3.0865,-3.0802,-3.0656,-3.0829,-3.1351,-3.1437,-3.1437,-3.1351,-3.2019,-3.1988,-3.1524,-3.2046,-3.2278,-3.2249,-3.1698,-3.1293,-3.1121,-3.2367,-3.2803,-3.3006,-3.5561,-3.6431,-3.6489,-3.7767,-3.8202,-3.8202,-3.8202,-3.7883,-3.7476,-3.7476,-3.7012,-3.6402,-3.5915,-3.5595,-3.5392,-3.5392,-3.498,-3.5038,-3.6722,-3.6809,-3.678,-3.7796,-3.8115,-3.8202,-3.8202,-3.8202,-3.8202,-3.8127,-3.8165,-3.8202,-3.8127,-3.8165,-3.8202,-3.8202,-3.8202,-3.8202,-3.8202,-3.8202,-3.8202,-3.8202,-3.8202,-3.8202,-3.8202,-3.8202,-3.8202,-3.8202,-3.8202,-3.8144,-3.8028,-3.8667,-3.8957,-3.8841,-3.7128,-3.6315,-3.6315,-3.6315,-3.6315,0.0,0.0,0.0,-3.4739,0.0,0.0,0.0,-3.5519,-3.5519,-3.5519,-3.5519,-3.5519,-3.5519,-3.5519,-3.5231,-3.4413,-3.4971,-3.5228,-3.4471,-3.5296,-3.6357,-3.7285,-3.7404,-3.7793,-3.8811,-3.7734,-3.6686,-3.6058,-3.5699,-3.534,-3.5011,-3.4195,-3.3416,-3.2763,-3.1808,-3.1158,-3.0866,-3.0657,-3.0887,-3.1495,-3.1843,-3.1814,-3.1495,-3.2191,-3.2133,-3.1524,-3.2191,-3.2481,-3.2481,-3.2513,-3.1932,-3.1148,-3.2135,-3.2481,-3.28,-3.5357,-3.6315,-3.6489,-3.7767,-3.8202,-3.8202,-3.8202,-3.7796,-3.7302,-3.7302,-3.6606,-3.5706,-3.5067,-3.4893,-3.4893,-3.4893,-3.4893,-3.5038,-3.5706,-3.6083,-3.6489,-3.7128,-3.7535,-3.7854,-3.8144,-3.8202,-3.8202,-3.8202,-3.8202,-3.8202,-3.8202,-3.8202,-3.8202,-3.8202,-3.8202,-3.8202,-3.8202,-3.8202,-3.8202,-3.8202,-3.8522,-3.8696,-3.8696,-3.8986,-3.916,-3.916,-3.916,-3.9015,-3.8696,-3.9334,-3.9509,-3.9189,-3.8522,-3.8057,-3.7767,-3.7767,-3.7564,0.0,0.0,0.0,0.0,0.0,-3.4245,0.0,0.0,0.0,0.0,0.0,0.0,0.0,0.0,0.0,0.0,0.0,0.0,0.0,-3.4606,0.0,-3.6842,-3.7233,-3.7874,-3.9043,-3.8107,-3.6896,-3.5609,-3.5519,-3.5519,-3.5519,-3.4671,-3.4014,-3.3601,-3.2429,-3.1599,-3.119,-3.0776,-3.0829,-3.1351,-3.2104,-3.2106,-3.138,-3.228,-3.2338,-3.1727,-3.2425,-3.2774,-3.2919,-3.3296,-3.2774,-3.1756,-3.2425,-3.2629,-3.28,-3.5357,-3.6315,-3.6489,-3.7767,-3.8202,-3.8202,-3.8202,-3.7709,-3.707,-3.6838,-3.6025,-3.5101,-3.4545,-3.4399,-3.4428,-3.4574,-3.498,-3.5305,-3.4864,-3.5648,-3.6489,-3.6489,-3.7012,-3.7622,-3.8115,-3.8202,-3.8202,-3.8202,-3.8202,-3.8202,-3.8202,-3.8202,-3.8202,-3.8202,-3.8202,-3.8202,-3.8202,-3.8202,-3.826,-3.8376,-3.8899,-3.9247,-3.9363,-3.9828,-4.0089,-4.0089,-3.9973,-3.9683,-3.9218,-3.9683,-3.9683,-3.9189,-3.9799,-3.9857,-3.9363,-3.9363,-3.9015,0.0,0.0,0.0,0.0,-3.3318,0.0,0.0,0.0,-3.363,-3.4279,0.0,0.0,0.0,0.0,0.0,0.0,0.0,0.0,-3.4279,-3.4938,-3.5469,-3.5358,-3.6576,-3.7634,-3.8273,-3.776,-3.6896,-3.5609,-3.5519,-3.5519,-3.5519,-3.4671,-3.4095,-3.397,-3.254,-3.1681,-3.144,-3.0888,-3.0627,-3.0743,-3.1932,-3.1874,-3.0772,-3.2573,-3.3006,-3.2394,-3.3126,-3.3674,-3.4167,-3.3707,-3.3035,-3.2454,-3.3122,-3.3006,-3.28,-3.5357,-3.6315,-3.6489,-3.7767,-3.8202,-3.8202,-3.8202,-3.7389,-3.6199,-3.5067,-3.4632,-3.4516,-3.4428,-3.4399,-3.4545,-3.5131,-3.5334,-3.5537,-3.5967,-3.6664,-3.7186,-3.7186,-3.768,-3.8115,-3.8202,-3.8202,-3.8202,-3.8202,-3.8202,-3.8202,-3.8202,-3.8202,-3.8202,-3.8202,-3.8202,-3.8202,-3.8202,-3.8202,-3.8434,-3.9044,-3.916,-3.9421,-3.9973,-4.006,-4.0089,-4.0089,-3.9596,-3.9276,-3.9189,-3.9276,-3.9276,-3.9189,-3.9799,-4.006,-4.0002,-4.0002,-3.9683,0.0,0.0,0.0,0.0,0.0,0.0,-3.3108,0.0,-3.3283,0.0,0.0,0.0,0.0,0.0,0.0,0.0,-3.4505,0.0,0.0,0.0,-3.5588,0.0,0.0,0.0,-3.7192,-3.7024,-3.6477,-3.5579,-3.5519,-3.5519,-3.5519,-3.5058,-3.4572,-3.4122,-3.2983,-3.2151,-3.168,-3.0947,-3.0975,-3.17,-3.2251,-3.2425,-3.2312,-3.3126,-3.3358,-3.3093,-3.3387,-3.3819,-3.4399,-3.4138,-3.3645,-3.318,-3.4201,-3.3732,-3.2774,-3.4951,-3.5996,-3.6489,-3.7767,-3.797,-3.7564,-3.6809,-3.6199,-3.559,-3.469,-3.4399,-3.4399,-3.4399,-3.4399,-3.4545,-3.5247,-3.5683,-3.5996,-3.6257,-3.6809,-3.7302,-3.7302,-3.7506,-3.7796,-3.8144,-3.8202,-3.8202,-3.8202,-3.8202,-3.8202,-3.8202,-3.8202,-3.8202,-3.8202,-3.8202,-3.8202,-3.8202,-3.8551,-3.8899,-3.9189,-3.9886,-4.0408,-4.067,-4.1047,-4.1076,-4.0699,-4.0815,-4.0525,-3.9741,-4.0089,-4.0118,-3.9712,-3.9973,-4.0089,-4.0089,-3.9741,-3.9247,-3.0924,0.0,0.0,0.0,0.0,0.0,0.0,0.0,0.0,0.0,0.0,0.0,0.0,0.0,0.0,0.0,0.0,-3.51,0.0,-3.4802,0.0,0.0,0.0,0.0,0.0,-3.6387,-3.6207,-3.5549,-3.5519,-3.5519,-3.5519,-3.5359,-3.499,-3.4421,-3.3576,-3.2769,-3.2003,-3.1209,-3.1322,-3.222,-3.2394,-3.2745,-3.3242,-3.359,-3.3678,-3.3503,-3.3678,-3.3993,-3.4399,-3.4399,-3.4022,-3.362,-3.4695,-3.4138,-3.3006,-3.4956,-3.5909,-3.646,-3.7564,-3.768,-3.7099,-3.5828,-3.5392,-3.5276,-3.4603,-3.4399,-3.4457,-3.4632,-3.4661,-3.4864,-3.5677,-3.6228,-3.6577,-3.6577,-3.707,-3.7506,-3.7331,-3.7447,-3.768,-3.8115,-3.8202,-3.8202,-3.8202,-3.8202,-3.8202,-3.8202,-3.8202,-3.8202,-3.8202,-3.8202,-3.826,-3.8463,-3.8899,-3.9334,-3.9683,-4.0554,-4.1163,-4.1366,-4.1831,-4.1889,-4.1395,-4.1657,-4.1366,-4.0379,-4.067,-4.0583,-4.0089,-3.9915,-3.9857,-3.9857,-3.9567,-3.9102,0.0,0.0,0.0,-3.1011,0.0,0.0,0.0,0.0,-3.1272,0.0,0.0,0.0,0.0,0.0,0.0,-3.3318,0.0,0.0,0.0,0.0,0.0,0.0,0.0,0.0,0.0,-3.6118,-3.6207,0.0,-3.5519,-3.5519,-3.5519,-3.5519,-3.5326,-3.4905,-3.4286,-3.3478,-3.2483,-3.1816,-3.1466,-3.1524,-3.2191,-3.251,-3.2568,-3.3819,-3.4051,-3.3532,-3.4109,-3.4399,-3.4399,-3.4399,-3.4022,-3.3561,-3.4196,-3.4022,-3.3707,-3.559,-3.6286,-3.6402,-3.7099,-3.7331,-3.7099,-3.5828,-3.5392,-3.5276,-3.4603,-3.4399,-3.4545,-3.5189,-3.5363,-3.5654,-3.6896,-3.7273,-3.7273,-3.7273,-3.7738,-3.7999,-3.7447,-3.7767,-3.8173,-3.8202,-3.8202,-3.8202,-3.8202,-3.8202,-3.8202,-3.8202,-3.8202,-3.8202,-3.8202,-3.8202,-3.8463,-3.9102,-3.9189,-3.9712,-4.0931,-4.1076,-4.1366,-4.2034,-4.2092,-4.2092,-4.2063,-4.1453,-4.1105,-4.1076,-4.0437,-4.0118,-4.0089,-3.9509,-3.9247,-3.9247,-3.9799,-3.9741,0.0,0.0,-3.0849,-3.0999,0.0,0.0,0.0,0.0,0.0,0.0,0.0,0.0,0.0,0.0,-3.4075,-3.3318,-3.4505,-3.5519,0.0,0.0,0.0,0.0,0.0,0.0,0.0,0.0,0.0,0.0,-3.4783,0.0,-3.5489,-3.5519,-3.5326,-3.4902,-3.4316,-3.3745,-3.3184,-3.2077,-3.1698,-3.2162,-3.2365,-3.2745,-3.318,-3.4022,-3.4283,-3.408,-3.3877,-3.4022,-3.437,-3.3964,-3.3906,-3.4167,-3.4806,-3.4661,-3.4225,-3.5299,-3.5712,-3.5741,-3.5973,-3.606,-3.5915,-3.5009,-3.4748,-3.469,-3.4486,-3.4399,-3.4457,-3.4661,-3.5072,-3.5595,-3.6431,-3.6983,-3.7418,-3.7796,-3.8057,-3.8144,-3.7941,-3.8057,-3.8202,-3.8202,-3.8202,-3.8202,-3.8202,-3.858,-3.8725,-3.826,-3.858,-3.887,-3.887,-3.9218,-3.9538,-3.977,-4.0205,-4.0641,-4.1047,-4.1512,-4.186,-4.2092,-4.2092,-4.1889,-4.1453,-4.1657,-4.1541,-4.1105,-4.0873,-4.0757,-4.0757,-3.9712,-3.9189,-3.9189,-3.8957,-3.8725,-3.052,-3.066,0.0,-3.0962,-3.0973,0.0,-3.0973,0.0,-3.0973,0.0,0.0,0.0,0.0,0.0,0.0,-3.2897,-3.407,-3.5166,0.0,-3.5519,0.0,0.0,0.0,0.0,0.0,0.0,-3.441,-3.4391,-3.4407,-3.4634,0.0,-3.537,-3.5326,-3.4902,-3.4522,-3.4035,-3.3503,-3.2629,-3.2309,-3.2481,-3.2481,-3.2861,-3.3503,-3.3877,-3.4196,-3.4399,-3.3993,-3.4022,-3.437,-3.3964,-3.4051,-3.4457,-3.4864,-3.4922,-3.4806,-3.5247,-3.5392,-3.5392,-3.5392,-3.5392,-3.5305,-3.4632,-3.4399,-3.4399,-3.4399,-3.4399,-3.4457,-3.469,-3.5072,-3.5537,-3.6141,-3.6809,-3.7418,-3.7796,-3.8057,-3.8202,-3.8202,-3.8202,-3.8202,-3.8202,-3.8202,-3.8202,-3.8202,-3.8754,-3.8986,-3.8289,-3.8957,-3.945,-3.9218,-3.9741,-4.0176,-4.0437,-4.0844,-4.1192,-4.1424,-4.186,-4.2092,-4.2092,-4.2092,-4.1918,-4.1482,-4.186,-4.2005,-4.1773,-4.157,-4.1541,-4.1773,-4.0495,-3.9886,-3.9857,-3.9189,-3.8754]},{"header":{"parameterUnit":"m.s-1","parameterCategory":1,"la1":30.6,"la2":29.2853,"lo1":-89.7004,"lo2":-87.6739,"dy":0.0162,"dx":0.0183,"nx":112,"ny":82,"refTime":"2024-05-01T00:00:00:Z","depth":0,"parameterNumber":3,"parameterNumberName":"V-component_of_WINDS"},"data":[0.0,0.0,0.0,0.0,0.0,0.0,0.0,0.0,0.0,0.0,0.0,0.0,0.0,0.0,0.0,0.0,0.0,0.0,0.0,0.0,0.0,0.0,0.0,0.0,0.0,0.0,0.0,0.0,0.0,0.0,0.0,0.0,0.0,0.0,0.0,0.0,0.0,0.0,0.0,0.0,0.0,0.0,0.0,0.0,0.0,0.0,0.0,0.0,0.0,0.0,0.0,0.0,0.0,0.0,0.0,0.0,0.0,0.0,0.0,0.0,0.0,0.0,0.0,0.0,0.0,0.0,0.0,0.0,0.0,0.0,0.0,0.0,0.0,0.0,0.0,0.0,0.0,0.0,0.0,0.0,0.0,0.0,0.0,0.0,0.0,0.0,0.0,0.0,0.0,0.0,0.7833,0.7868,0.746,0.721,0.721,0.7193,0.7089,0.6817,0.0,0.0,0.0,0.0,0.0,0.0,0.0,0.0,0.0,0.0,0.0,0.0,0.0,0.0,0.0,0.0,0.0,0.0,0.0,0.0,0.0,0.0,0.0,0.0,0.0,0.0,0.0,0.0,0.0,0.0,0.0,0.0,0.0,0.0,0.0,0.0,0.0,0.0,0.0,0.0,0.0,0.0,0.0,0.0,0.0,0.0,0.0,0.0,0.0,0.0,0.0,0.0,0.0,0.0,0.0,0.0,0.0,0.0,0.0,0.0,0.0,0.0,0.0,0.0,0.0,0.0,0.0,0.0,0.0,0.0,0.0,0.0,0.0,0.0,0.0,0.0,0.0,0.0,0.0,0.0,0.0,0.0,0.0,0.0,0.0,0.0,0.0,0.0,0.0,0.0,0.0,0.0,0.0,0.0,0.0,0.0,0.0,0.0,0.0,0.0,0.0,0.0,0.0,0.0,0.7508,0.7189,0.7183,0.721,0.721,0.7122,0.6953,0.6812,0.0,0.0,0.0,0.0,0.0,0.0,0.0,0.0,0.0,0.0,0.0,0.0,0.0,0.0,0.0,0.0,0.0,0.0,0.0,0.0,0.0,0.0,0.0,0.0,0.0,0.0,0.0,0.0,0.0,0.0,0.0,0.0,0.0,0.0,0.0,0.0,0.0,0.0,0.0,0.0,0.0,0.0,0.0,0.0,0.0,0.0,0.0,0.0,0.0,0.0,0.0,0.0,0.0,0.0,0.0,0.0,0.0,0.0,0.0,0.0,0.0,0.0,0.0,0.0,0.0,0.0,0.0,0.0,0.0,0.0,0.0,0.0,0.0,0.0,0.0,0.0,0.0,0.0,0.0,0.0,0.0,0.0,0.0,0.0,0.0,0.0,0.0,0.0,0.0,0.0,0.0,0.0,0.0,0.0,0.0,0.0,0.0,0.0,0.0,0.0,0.0,0.0,0.0,0.9193,0.8273,0.7762,0.7413,0.721,0.721,0.6991,0.6861,0.6806,0.6458,0.0,0.0,0.0,0.0,0.0,0.0,0.0,0.0,0.0,0.0,0.0,0.0,0.0,0.0,0.0,0.0,0.0,0.0,0.0,0.0,0.0,0.0,0.0,0.0,0.0,0.0,0.0,0.0,0.0,0.0,0.0,0.0,0.0,0.0,0.0,0.0,0.0,0.0,0.0,0.0,0.0,0.0,0.0,0.0,0.0,0.0,0.0,0.0,0.0,0.0,0.0,0.0,0.0,0.0,0.0,0.0,0.0,0.0,0.0,0.0,0.0,0.0,0.0,0.0,0.0,0.0,0.0,0.0,0.0,0.0,0.0,0.0,0.0,0.0,0.0,0.0,0.0,0.0,0.0,0.0,0.0,0.0,0.0,0.0,0.0,0.0,0.0,0.0,0.0,0.0,0.0,0.0,0.0,0.0,0.0,0.0,0.0,0.0,0.0,0.0,0.0,0.0,1.0056,0.9467,0.8682,0.7956,0.7487,0.7487,0.7152,0.6854,0.6801,0.6399,0.0,0.0,0.0,0.0,0.0,0.0,0.0,0.0,0.0,0.0,0.0,0.0,0.0,0.0,0.0,0.0,0.0,0.0,0.0,0.0,0.0,0.0,0.0,0.0,0.0,0.0,0.0,0.0,0.0,0.0,0.0,0.0,0.0,0.0,0.0,0.0,0.0,0.0,0.0,0.0,0.0,0.0,0.0,0.0,0.0,0.0,0.0,0.0,0.0,0.0,0.0,0.0,0.0,0.0,0.0,0.0,0.0,0.0,0.0,0.0,0.0,0.0,0.0,0.0,0.0,0.0,0.0,0.0,0.0,0.0,0.0,0.0,0.0,0.0,0.0,0.0,0.0,0.0,0.0,0.0,0.0,0.0,0.0,0.0,0.0,0.0,0.0,0.0,0.0,0.0,0.0,0.0,0.0,0.0,0.0,0.0,0.0,0.0,0.0,0.0,0.0,0.0,1.0915,1.0928,0.9555,0.8838,0.8429,0.8429,0.763,0.7059,0.6801,0.6541,0.0,0.0,0.0,0.0,0.0,0.0,0.0,0.0,0.0,0.0,0.0,0.0,0.0,0.0,0.0,0.0,0.0,0.0,0.0,0.0,0.0,0.0,0.0,0.0,0.0,0.0,0.0,0.0,0.0,0.0,0.0,0.0,0.0,0.0,0.0,0.0,0.0,0.0,0.0,0.0,0.0,0.0,0.0,0.0,0.0,0.0,0.0,0.0,0.0,0.0,0.0,0.0,0.0,0.0,0.0,0.0,0.0,0.0,0.0,0.0,0.0,0.0,0.0,0.0,0.0,0.0,0.0,0.0,0.0,0.0,0.0,0.0,0.0,0.0,0.0,0.0,0.0,0.0,0.0,0.0,0.0,0.0,0.0,0.0,0.0,0.0,0.0,0.0,0.0,0.0,0.0,0.0,0.0,0.0,0.0,0.0,0.0,0.0,0.0,0.0,0.0,0.0,1.0817,1.069,1.0609,0.9936,0.9541,0.9853,0.9532,0.9101,0.8498,0.0,0.0,0.0,0.0,0.0,0.0,0.0,0.0,0.0,0.0,0.0,0.0,0.0,0.0,0.0,0.0,0.0,0.0,0.0,0.0,0.0,0.0,0.0,0.0,0.0,0.0,0.0,0.0,0.0,0.0,0.0,0.0,0.0,0.0,0.0,0.0,0.0,0.0,0.0,0.0,0.0,0.0,0.0,0.0,0.0,0.0,0.0,0.0,0.0,0.0,0.0,0.0,0.0,0.0,0.0,0.0,0.0,0.0,0.0,0.0,0.0,0.0,0.0,0.0,0.0,0.0,0.0,0.0,0.0,0.0,0.0,0.0,0.0,0.0,0.0,0.0,0.0,0.0,0.0,0.0,0.0,0.0,0.0,0.0,0.0,0.0,0.0,0.0,0.0,0.0,0.0,0.0,0.0,0.0,0.0,0.0,0.0,0.0,0.0,0.0,0.0,0.0,1.1885,1.1563,1.1497,1.1853,1.1138,1.0802,1.1113,1.0768,1.0233,0.9624,0.0,0.0,0.0,0.0,0.0,0.0,0.0,0.0,0.0,0.0,0.0,0.0,0.0,0.0,0.0,0.0,0.0,0.0,0.0,0.0,0.0,0.0,0.0,0.0,0.0,0.0,0.0,0.0,0.0,0.0,0.0,0.0,0.0,0.0,0.0,0.0,0.0,0.0,0.0,0.0,0.0,0.0,0.0,0.0,0.0,0.0,0.0,0.0,0.0,0.0,0.0,0.0,0.0,0.0,0.0,0.0,0.0,0.0,0.0,0.0,0.0,0.0,0.0,0.0,0.0,0.0,0.0,0.0,0.0,0.0,0.0,0.0,0.0,0.0,0.0,0.0,0.0,0.0,0.0,0.0,0.0,0.0,0.0,0.0,0.0,0.0,0.0,0.0,0.0,0.0,0.0,0.0,0.0,0.0,0.0,0.0,0.0,0.0,0.0,0.0,0.0,0.0,1.2802,1.3358,1.3601,1.3153,1.2527,1.2145,1.2145,1.1021,1.0192,0.0,0.0,0.0,0.0,0.0,0.0,0.0,0.0,0.0,0.0,0.0,0.0,0.0,0.0,0.0,0.0,0.0,0.0,0.0,0.0,0.0,0.0,0.0,0.0,0.0,0.0,0.0,0.0,0.0,0.0,0.0,0.0,0.0,0.0,0.0,0.0,0.0,0.0,0.0,0.0,0.0,0.0,0.0,0.0,0.0,0.0,0.0,0.0,0.0,0.0,0.0,0.0,0.0,0.0,0.0,0.0,0.0,0.0,0.0,0.0,0.0,0.0,0.0,0.0,0.0,0.0,0.0,0.0,0.0,0.0,0.0,0.0,0.0,0.0,0.0,0.0,0.0,0.0,0.0,0.0,0.0,0.0,0.0,0.0,0.0,0.0,0.0,0.0,0.0,0.0,0.0,0.0,0.0,0.0,0.0,0.0,0.0,0.0,0.0,0.0,0.0,0.0,0.0,1.2802,1.297,1.316,1.3355,1.3215,1.3248,1.3641,1.3124,1.2552,1.196,0.0,0.0,0.0,0.0,0.0,0.0,0.0,0.0,0.0,0.0,0.0,0.0,0.0,0.0,0.0,0.0,0.0,0.0,0.0,0.0,0.0,0.0,0.0,0.0,0.0,0.0,0.0,0.0,0.0,0.0,0.0,0.0,0.0,0.0,0.0,0.0,0.0,0.0,0.0,0.0,0.0,0.0,0.0,0.0,0.0,0.0,0.0,0.0,0.0,0.0,0.0,0.0,0.0,0.0,0.0,0.0,0.0,0.0,0.0,0.0,0.0,0.0,0.0,0.0,0.0,0.0,0.0,0.0,0.0,0.0,0.0,0.0,0.0,0.0,0.0,0.0,0.0,0.0,0.0,0.0,0.0,0.0,0.0,0.0,0.0,0.0,0.0,0.0,0.0,0.0,0.0,0.0,0.0,0.0,0.0,0.0,0.0,0.0,0.0,0.0,0.0,0.0,1.3233,1.3321,1.3534,1.3775,1.3823,1.3968,1.4244,1.3966,1.3455,1.2806,0.0,0.0,0.0,0.0,0.0,0.0,0.0,0.0,0.0,0.0,0.0,0.0,0.0,0.0,0.0,0.0,0.0,0.0,0.0,0.0,0.0,0.0,0.0,0.0,0.0,0.0,0.0,0.0,0.0,0.0,0.0,0.0,0.0,0.0,0.0,0.0,0.0,0.0,0.0,0.0,0.0,0.0,0.0,0.0,0.0,0.0,0.0,0.0,0.0,0.0,0.0,0.0,0.0,0.0,0.0,0.0,0.0,0.0,0.0,0.0,0.0,0.0,0.0,0.0,0.0,0.0,0.0,0.0,0.0,0.0,0.0,0.0,0.0,0.0,0.0,0.0,0.0,0.0,0.0,0.0,0.0,0.0,0.0,0.0,0.0,0.0,0.0,0.0,0.0,0.0,0.0,0.0,0.0,0.0,0.0,0.0,0.0,0.0,0.0,0.0,0.0,0.0,1.4149,1.4325,1.4484,1.4388,1.4388,1.4388,1.4292,1.3821,1.329,1.2771,0.0,0.0,0.0,0.0,0.0,0.0,0.0,0.0,0.0,0.0,0.0,0.0,0.0,0.0,0.0,0.0,0.0,0.0,0.0,0.0,0.0,0.0,0.0,0.0,0.0,0.0,0.0,0.0,0.0,0.0,0.0,0.0,0.0,0.0,0.0,0.0,0.0,0.0,0.0,0.0,0.0,0.0,0.0,0.0,0.0,0.0,0.0,0.0,0.0,0.0,0.0,0.0,0.0,0.0,0.0,0.0,0.0,0.0,0.0,0.0,1.5577,0.0,0.0,0.0,0.0,0.0,0.0,0.0,0.0,0.0,0.0,0.0,0.0,0.0,0.0,0.0,0.0,0.0,0.0,0.0,0.0,0.0,0.0,0.0,0.0,0.0,0.0,0.0,0.0,0.0,0.0,0.0,0.0,0.0,0.0,0.0,0.0,0.0,0.0,0.0,0.0,0.0,1.5521,1.5865,1.5866,1.5248,1.5153,1.4914,1.434,1.3821,1.3375,1.3061,1.2578,0.0,0.0,0.0,0.0,0.0,0.0,0.0,0.0,0.0,0.0,0.0,0.0,0.0,0.0,0.0,0.0,0.0,0.0,0.0,0.0,0.0,0.0,0.0,0.0,0.0,0.0,0.0,0.0,0.0,0.0,0.0,0.0,0.0,0.0,0.0,0.0,0.0,0.0,0.0,0.0,0.0,0.0,0.0,0.0,0.0,0.0,0.0,0.0,0.0,0.0,0.0,0.0,0.0,0.0,0.0,0.0,0.0,0.0,0.0,0.0,1.6773,0.0,0.0,0.0,0.0,0.0,0.0,0.0,0.0,0.0,0.0,0.0,0.0,0.0,0.0,0.0,0.0,0.0,0.0,0.0,0.0,0.0,0.0,0.0,0.0,0.0,0.0,0.0,0.0,0.0,0.0,0.0,0.0,0.0,0.0,0.0,0.0,0.0,0.0,0.0,0.0,1.5829,1.6248,1.6433,1.6008,1.5961,1.5818,1.5439,1.5034,1.4604,1.4174,1.36,0.0,0.0,0.0,0.0,0.0,0.0,0.0,0.0,0.0,0.0,0.0,0.0,0.0,0.0,0.0,0.0,0.0,0.0,0.0,0.0,0.0,0.0,0.0,0.0,0.0,0.0,0.0,0.0,0.0,0.0,0.0,0.0,0.0,0.0,0.0,0.0,0.0,0.0,0.0,0.0,0.0,0.0,0.0,0.0,0.0,0.0,0.0,0.0,0.0,0.0,0.0,0.0,0.0,1.79,1.8632,1.9348,2.0248,2.0662,2.0662,1.9767,1.9225,1.8915,1.8724,0.0,0.0,0.0,0.0,0.0,0.0,0.0,0.0,0.0,0.0,0.0,0.0,0.0,0.0,0.0,0.0,0.0,0.0,0.0,0.0,0.0,0.0,0.0,0.0,1.8335,1.8319,1.8383,0.0,0.0,0.0,0.0,0.0,0.0,0.0,0.0,0.0,0.0,0.0,1.6064,1.6564,1.6904,1.6824,1.6763,1.673,1.6636,1.6285,1.5866,1.5346,1.4684,1.4106,0.0,0.0,0.0,0.0,0.0,0.0,0.0,0.0,0.0,0.0,0.0,0.0,0.0,0.0,0.0,0.0,0.0,0.0,0.0,0.0,0.0,0.0,0.0,0.0,0.0,0.0,0.0,0.0,0.0,0.0,0.0,0.0,1.5332,1.6145,0.0,0.0,0.0,0.0,0.0,0.0,0.0,0.0,0.0,0.0,0.0,0.0,0.0,1.6357,1.6949,1.72,1.783,1.8897,1.9914,2.0836,2.1728,2.2188,2.2555,2.28,2.2307,0.0,2.003,2.0291,0.0,0.0,0.0,0.0,0.0,0.0,0.0,0.0,0.0,0.0,0.0,0.0,0.0,0.0,0.0,0.0,0.0,0.0,0.0,0.0,0.0,0.0,1.8765,1.8718,1.8526,1.8383,0.0,1.7985,1.7286,1.7286,1.7032,0.0,0.0,0.0,0.0,0.0,0.0,0.0,1.7548,1.8112,1.8257,1.7591,1.7559,1.7326,1.6636,1.6043,1.5553,1.5332,1.4684,1.4249,1.4165,1.3698,0.0,0.0,0.0,0.0,0.0,0.0,0.0,0.0,0.0,0.0,0.0,0.0,0.0,0.0,0.0,0.0,0.0,0.0,0.0,0.0,0.0,0.0,0.0,0.0,0.0,0.0,0.0,0.0,0.0,1.7355,1.7903,1.8279,1.7663,1.728,0.0,0.0,0.0,0.0,0.0,0.0,0.0,0.0,0.0,1.8046,1.7754,1.8446,2.0296,1.9961,2.0502,2.2007,2.2226,2.2674,2.3278,2.364,2.3729,2.3727,2.3728,2.3095,2.2025,2.1441,2.0545,1.9568,0.0,0.0,0.0,0.0,1.8891,1.8938,1.9177,1.9178,1.9067,1.9336,0.0,0.0,0.0,0.0,0.0,0.0,0.0,0.0,0.0,0.0,1.8781,1.8781,1.8716,1.8637,1.8796,1.8319,1.7858,0.0,1.7731,1.7604,1.7556,0.0,0.0,0.0,0.0,1.8017,1.8065,1.851,1.8689,1.835,1.8303,1.821,1.7839,1.7402,1.698,1.6735,1.6042,1.5549,1.5393,1.5106,1.5117,0.0,0.0,0.0,0.0,0.0,0.0,0.0,0.0,0.0,0.0,0.0,0.0,0.0,0.0,0.0,0.0,0.0,0.0,0.0,0.0,0.0,0.0,0.0,0.0,0.0,0.0,0.0,0.0,1.9454,2.016,2.0018,1.9624,1.9263,0.0,0.0,0.0,0.0,0.0,0.0,1.9513,1.8816,1.8978,2.0261,1.9937,2.0815,2.3066,2.243,2.2818,2.4177,2.3978,2.3994,2.4239,2.4517,2.4468,2.4262,2.4424,2.4102,2.3425,2.2371,2.1359,2.03,2.0105,1.971,1.9323,1.9441,1.9458,1.9555,2.0023,2.0086,2.0053,2.0225,2.0039,1.9662,1.9579,0.0,0.0,0.0,0.0,1.9546,1.9546,1.9546,1.9546,1.9546,1.9546,1.95,1.9225,1.8969,1.8713,0.0,1.8224,1.8112,1.7982,0.0,0.0,0.0,0.0,1.8097,1.8271,1.8605,1.8781,1.8781,1.8781,1.8781,1.8781,1.8414,1.8049,1.7838,1.7111,1.6578,1.6349,1.6373,1.6236,1.6002,0.0,0.0,0.0,0.0,0.0,0.0,0.0,0.0,0.0,0.0,0.0,0.0,0.0,0.0,0.0,0.0,0.0,0.0,0.0,0.0,0.0,0.0,0.0,0.0,0.0,0.0,0.0,0.0,0.0,2.0706,2.1175,0.0,0.0,0.0,0.0,1.9106,1.9618,2.0077,2.0422,2.0645,2.1562,2.3301,2.3661,2.3866,2.4037,2.429,2.4327,2.4115,2.4409,2.4533,2.4595,2.4572,2.4595,2.4563,2.4289,2.388,2.3457,2.3061,2.2284,2.1317,2.0968,2.043,1.9828,1.9511,1.9399,1.9526,2.0513,2.0663,2.0629,2.2193,2.2408,2.1962,2.1626,2.1561,0.0,0.0,2.1561,2.1561,2.1561,2.1561,2.1561,2.1561,2.1561,2.1293,2.0439,2.0195,1.9805,0.0,1.8033,1.7906,1.8208,0.0,1.8255,1.8271,1.8557,1.8653,1.8335,1.8605,1.8781,1.8781,1.8781,1.8781,1.8781,1.8192,1.7838,1.7806,1.7111,1.6689,1.6673,1.6781,1.6839,1.6766,1.6484,0.0,0.0,0.0,0.0,0.0,0.0,0.0,0.0,0.0,0.0,0.0,0.0,0.0,0.0,0.0,0.0,0.0,0.0,0.0,0.0,0.0,0.0,0.0,0.0,0.0,0.0,0.0,0.0,2.1935,2.252,0.0,2.1847,2.2067,2.2076,2.1701,2.2039,2.2472,2.28,2.3105,2.3496,2.3907,2.4492,2.4746,2.4746,2.4844,2.4968,2.5062,2.4967,2.4919,2.4903,2.4677,2.4452,2.4289,2.388,2.353,2.3181,2.2815,2.2323,2.1767,2.164,2.1163,2.0527,2.0416,2.08,2.141,2.1451,2.1839,2.2344,2.2436,2.2181,2.1833,2.175,2.1695,2.1695,2.1695,2.1784,2.1898,2.1898,2.2031,2.2145,2.2145,2.2145,2.2057,2.1702,2.1658,2.1355,2.0445,1.9249,1.8494,1.8621,1.8446,1.8383,1.8605,1.8784,1.8843,1.8621,1.9023,1.9196,1.8827,1.8781,1.8781,1.8781,1.8176,1.7893,1.8154,1.753,1.7261,1.7546,1.759,1.7367,1.6894,1.6774,1.675,0.0,0.0,0.0,0.0,0.0,0.0,0.0,0.0,0.0,0.0,0.0,0.0,0.0,0.0,0.0,0.0,0.0,0.0,0.0,0.0,0.0,0.0,0.0,0.0,0.0,2.1715,2.2696,2.2769,2.3559,2.3837,2.3179,2.3413,2.3603,2.3603,2.391,2.4195,2.4443,2.4743,2.485,2.4585,2.5147,2.5358,2.5124,2.5218,2.5342,2.5453,2.5214,2.5103,2.5087,2.4627,2.4337,2.4082,2.3562,2.3228,2.299,2.2768,2.2606,2.2478,2.1991,2.1433,2.0909,2.0782,2.1392,2.2378,2.2615,2.3294,2.3935,2.34,2.2923,2.2624,2.2624,2.2624,2.2624,2.2624,2.2755,2.2843,2.2955,2.3129,2.324,2.3327,2.3327,2.324,2.2935,2.2892,2.2629,2.1854,2.0574,1.9592,1.9333,1.9138,1.9056,1.9301,1.941,1.9417,1.9301,1.9608,1.97,1.9333,1.9333,1.9239,1.9125,1.8713,1.8452,1.8462,1.8037,1.7843,1.8008,1.8353,1.8254,1.7602,1.7837,1.7971,1.8085,0.0,0.0,0.0,0.0,0.0,0.0,0.0,0.0,0.0,0.0,0.0,0.0,0.0,0.0,0.0,0.0,0.0,0.0,0.0,0.0,0.0,0.0,0.0,2.1262,2.2623,2.3515,2.3237,2.432,2.4847,2.4203,2.4437,2.4694,2.4665,2.4958,2.5137,2.5143,2.5427,2.5643,2.5626,2.5924,2.5794,2.5124,2.5423,2.5453,2.5103,2.5103,2.5103,2.5087,2.4432,2.4114,2.4066,2.3324,2.3022,2.3062,2.3046,2.3277,2.3508,2.2067,2.1294,2.0979,2.0628,2.118,2.2341,2.3973,2.4821,2.5189,2.5168,2.4859,2.4507,2.4507,2.4507,2.4487,2.4487,2.4529,2.4572,2.4871,2.4956,2.4999,2.5211,2.5189,2.4978,2.4059,2.3887,2.3607,2.2673,2.1898,2.1204,2.0518,2.0382,2.0382,2.0382,2.0382,0.0,2.0382,2.0382,2.0382,2.0382,2.0382,2.0183,1.9822,1.9815,1.9514,1.8731,1.8662,1.849,1.8129,1.9094,1.9442,1.9031,1.9676,2.0001,2.0001,0.0,0.0,0.0,0.0,0.0,0.0,0.0,0.0,0.0,0.0,0.0,0.0,0.0,0.0,0.0,0.0,0.0,0.0,0.0,0.0,0.0,2.1247,2.2315,2.255,2.3574,2.4525,2.514,2.574,2.5944,2.552,2.5783,2.5923,2.5725,2.5769,2.5989,2.6223,2.6341,2.6136,2.5615,2.5972,2.5818,2.5138,2.5184,2.5199,2.5103,2.5103,2.5103,2.5087,2.4432,2.4114,2.4066,2.3324,2.3512,2.4245,2.3708,2.3979,2.4734,2.3476,2.3083,2.3185,2.3129,2.3553,2.4298,2.5197,2.5361,2.5127,2.4797,2.4611,2.4507,2.4507,2.4615,2.4786,2.4786,2.5041,2.5295,2.538,2.5506,2.5633,2.5675,2.5717,2.5633,2.538,2.5338,2.5105,2.436,2.4059,2.3497,2.2057,2.1836,2.1836,2.1836,2.212,0.0,2.188,2.212,2.2208,2.1836,2.1836,2.1799,2.1688,2.109,2.0792,2.0919,2.0316,2.0096,2.0313,2.0624,2.0386,1.958,2.0242,2.0371,0.0,0.0,0.0,0.0,0.0,0.0,0.0,0.0,0.0,0.0,0.0,0.0,0.0,0.0,0.0,0.0,0.0,0.0,0.0,0.0,0.0,0.0,2.2242,2.334,2.4203,2.4701,2.5286,2.612,2.6515,2.6632,2.6442,2.6603,2.6513,2.6062,2.6225,2.6313,2.6435,2.6641,2.6483,2.6066,2.6167,2.5882,2.5342,2.5183,2.5103,2.5103,2.496,2.4881,2.4865,2.4166,2.3832,2.3875,2.3756,2.4028,2.4504,2.4542,2.4997,0.0,0.0,0.0,0.0,0.0,2.488,2.5094,2.5926,2.5751,2.5168,2.513,2.4941,2.4776,2.4776,2.4992,2.5166,2.4956,2.5168,2.5464,2.557,2.5696,2.5822,2.5906,2.5906,2.5906,2.5906,2.5906,2.578,2.538,2.5338,0.0,2.4039,2.3371,2.2979,2.2979,2.3217,2.3304,2.3023,2.3217,2.3304,2.3023,2.2979,2.2921,2.2726,2.2434,0.0,0.0,0.0,2.141,2.1568,2.1586,0.0,0.0,0.0,2.1553,2.1275,0.0,0.0,0.0,2.1507,2.1657,0.0,0.0,0.0,0.0,0.0,0.0,0.0,0.0,0.0,0.0,0.0,0.0,0.0,0.0,0.0,0.0,2.3562,2.4487,2.5857,2.5827,2.5871,2.6486,2.6822,2.6969,2.6881,2.691,2.6748,2.6202,2.6409,2.6502,2.635,0.0,0.0,0.0,0.0,2.5977,2.5581,2.5278,2.5103,2.5103,2.4754,2.4579,2.4563,2.3864,2.3604,2.3745,2.4396,2.4631,2.4574,2.5502,2.605,2.6191,2.4968,2.4442,2.459,2.5538,2.5641,2.5401,2.63,0.0,0.0,2.5771,2.5585,2.5233,2.5233,2.5411,2.5526,2.5104,2.5126,2.5338,2.557,2.5654,2.5696,2.5864,2.5906,2.5906,2.5906,2.5906,2.5906,2.5906,2.5906,2.5906,2.5906,2.485,2.4059,2.4059,2.4059,2.4059,2.4059,2.4059,2.4059,2.4059,0.0,0.0,2.351,2.3795,2.3449,2.2268,2.2412,2.2467,2.2218,2.2214,2.2419,2.2936,2.2914,2.2914,2.2914,2.2914,2.2957,2.3001,2.2586,2.2608,0.0,0.0,0.0,0.0,0.0,0.0,0.0,0.0,0.0,0.0,0.0,0.0,0.0,0.0,0.0,2.5105,2.5765,2.6408,2.6393,2.6354,2.6457,2.6852,2.6954,2.6778,2.6252,2.6442,2.6712,2.6958,2.674,2.6977,2.7736,2.7367,2.6975,2.6692,2.6391,2.5977,2.5581,2.5278,2.5103,2.5103,0.0,0.0,2.4563,2.3864,2.4032,2.4952,2.4442,2.5237,2.686,2.6327,2.6498,2.7078,2.6784,2.6668,2.6716,2.6907,2.6914,2.6839,2.6656,2.6501,2.6268,2.5978,2.5719,2.552,2.552,2.5571,0.0,2.5507,2.5591,2.578,2.5822,2.5864,2.5864,2.5906,2.5906,2.5906,2.5906,2.5906,2.5906,2.5906,2.5906,2.5906,2.5906,2.5675,2.5506,2.5506,2.5506,2.5506,2.5506,2.5506,2.5506,2.5506,2.5506,2.5463,2.5377,2.5097,2.4645,2.4061,2.3311,2.2875,2.2815,2.2815,2.2716,2.2419,2.2455,2.2455,2.2455,2.2455,2.263,2.3001,2.2914,2.2914,0.0,0.0,0.0,0.0,0.0,0.0,0.0,0.0,0.0,0.0,0.0,2.705,2.6643,0.0,2.8427,2.7774,2.7682,2.772,2.7819,2.7239,2.6749,2.6749,2.6749,2.6617,2.6296,2.6413,2.657,2.6833,2.6852,2.7001,2.7414,2.7111,2.6851,2.6676,2.6168,2.5802,2.5581,2.5278,2.5103,2.5103,2.4579,2.4464,2.4547,2.3673,2.3983,2.5275,2.5068,2.5837,2.7187,2.6654,2.6622,2.6936,2.6708,2.6895,2.7289,2.704,2.7102,2.7268,2.704,2.6858,2.681,2.6764,2.6613,2.6417,2.6161,2.6192,2.6174,2.5742,2.5738,2.5906,2.5906,2.5906,2.5906,2.5906,2.5906,2.5906,2.5906,2.6081,2.6125,2.5622,2.5928,2.6103,2.5622,2.5732,2.5906,2.5906,2.5906,2.5906,2.5906,2.5906,2.5906,2.5906,2.5906,2.5906,2.5906,2.5448,2.5117,2.4876,2.4137,2.3635,2.3372,2.3372,2.3045,2.2288,2.2324,2.2193,2.1953,2.1953,2.2302,2.3001,2.2761,2.2783,0.0,0.0,0.0,0.0,0.0,0.0,0.0,0.0,2.5986,2.7059,2.8096,2.8865,2.8911,2.9707,3.0226,3.0024,2.929,2.8798,2.8813,2.7768,2.6866,2.6544,2.6559,2.6574,2.6515,2.6442,2.6484,2.6612,2.6818,2.6901,2.6839,2.671,2.6676,2.6676,2.5993,2.5581,2.5581,2.5214,2.504,2.5103,2.4388,2.4305,2.4547,2.3793,2.4215,2.5548,2.6006,2.6492,2.6972,2.6805,2.675,2.6708,2.6231,2.6521,2.7123,2.6646,2.6729,2.7087,2.7087,2.6998,2.6978,2.7289,2.7264,2.7046,2.6638,2.6645,2.6649,2.5871,2.578,2.5906,2.5906,2.5906,2.5906,2.5906,2.5819,2.5753,2.5753,2.5994,2.5994,2.5185,2.5666,2.6016,2.5426,2.5644,2.5906,2.5906,2.5906,2.5906,2.5906,2.5906,2.5906,2.5906,2.5819,2.5753,2.5753,2.5445,2.5204,2.5204,2.4749,2.4268,2.3705,2.3596,2.322,2.2477,2.228,2.2084,2.1865,2.1778,2.2171,2.3001,2.263,2.2695,2.2016,2.2279,2.3168,2.4449,2.5043,2.5759,0.0,0.0,2.8184,2.9101,2.998,3.0704,3.1092,3.2138,3.2332,3.0492,3.0429,2.979,2.7578,2.7129,2.6866,2.6544,2.6764,2.6822,2.653,2.6237,2.6343,2.6974,2.6535,2.663,2.7505,2.6991,2.6676,2.6676,2.5993,2.5581,2.5581,2.4976,2.4801,2.5103,2.4388,2.4305,2.4607,2.4944,2.5478,2.6264,2.7247,2.7529,2.7242,2.7241,2.7226,2.7185,2.6708,2.6604,2.6625,2.6123,2.6114,2.6292,2.6292,2.6451,2.6655,2.6719,2.6533,2.6302,2.6259,2.613,2.5995,2.5886,2.5906,2.5906,2.5906,2.5906,2.5906,2.5906,2.5579,2.5292,2.5292,2.4967,2.4705,2.4596,2.4661,2.4967,2.5688,2.5863,2.5906,2.5906,2.5906,2.5906,2.5906,2.5906,2.5906,2.5906,2.5513,2.5292,2.5292,2.5248,2.5204,2.5204,2.4749,2.4268,2.3705,2.3307,2.3023,2.2914,2.2106,2.2062,2.2848,2.2433,2.2499,2.3001,2.2957,2.3176,2.355,2.3777,2.4287,0.0,2.6164,2.7046,2.8067,2.8505,2.8906,2.9766,3.084,3.1758,3.2187,3.3301,3.3965,0.0,3.2134,3.0845,2.979,2.813,2.6866,2.6544,2.6793,2.6866,2.653,2.6208,2.6302,2.6989,2.6664,2.6685,2.7301,2.6719,2.6423,2.6423,2.5691,2.5326,2.5326,2.504,2.496,2.5103,2.4595,2.4778,2.5608,2.5381,2.5787,2.6712,2.7794,2.7924,2.7268,2.6729,2.6501,2.6438,2.5668,2.5399,2.542,2.5751,2.601,2.619,2.619,2.6481,2.6815,2.6815,2.6842,2.678,2.652,2.6346,2.6256,2.5972,2.5906,2.5906,2.5906,2.5906,2.5906,2.5906,2.5535,2.5204,2.5204,2.5073,2.4727,2.4159,2.4727,2.5273,2.5098,2.5535,2.5994,2.6278,2.6321,2.6234,2.595,2.5906,2.5797,2.5513,2.5557,2.5491,2.5248,2.5426,2.56,2.56,2.5182,2.4661,2.4203,2.37,2.3154,2.2608,2.2215,2.2062,2.2171,2.1996,2.228,2.3001,2.2717,2.3001,2.4208,2.4752,0.0,2.616,2.7305,2.8301,2.8494,2.903,2.9668,3.041,3.1426,3.2363,3.3027,3.4004,3.4751,3.4912,3.3371,3.2,3.1578,2.9171,2.7398,2.7158,2.6905,2.6632,2.6398,2.6149,2.6217,2.6717,2.645,2.6479,2.6817,2.6322,2.6009,2.6009,2.5421,2.5103,2.5103,2.5008,2.496,2.496,2.4595,2.5076,2.615,2.5961,2.6384,2.7231,2.793,2.7862,2.7247,2.6584,2.6231,2.6044,2.5357,2.4987,2.4885,2.5594,2.5873,2.5946,2.599,2.632,2.6693,2.6693,2.6802,2.6867,2.6518,2.6431,2.6365,2.5994,2.5906,2.5906,2.5906,2.5797,2.571,2.571,2.5229,2.477,2.477,2.4661,2.4399,2.3793,2.4574,2.5207,2.4923,2.5448,2.6059,2.6519,2.6584,2.6453,2.6147,2.5994,2.571,2.527,2.56,2.571,2.5248,2.5622,2.5841,2.571,2.536,2.4902,2.4312,2.3787,2.3198,2.2521,2.239,2.2215,2.1974,2.1974,2.2324,2.3001,2.2652,2.287,2.3131,2.422,2.5355,2.6872,2.8412,2.9685,3.0039,3.0488,3.0957,3.1387,3.1836,3.2559,3.3809,3.4394,3.4497,3.3978,3.3762,3.3206,3.1719,2.9938,2.8742,2.8742,2.7125,2.6047,0.0,2.6018,2.604,2.6145,2.5853,2.5789,2.6087,2.5769,2.5596,2.5596,2.5294,2.5103,2.5103,2.477,2.4595,2.4595,2.4305,2.4701,2.5857,2.6861,2.7526,2.7875,2.7489,2.733,2.7309,2.7268,2.6998,2.6584,2.6563,2.616,2.5586,2.5607,2.5464,2.5274,2.5507,2.5782,2.595,2.595,2.595,2.595,2.5928,2.5928,2.5928,2.5906,2.5906,2.5906,2.5906,2.5557,2.5226,2.5226,2.4465,2.3727,2.3727,2.3394,2.3198,2.3596,2.3727,2.4185,2.5622,2.5884,2.6059,2.6519,2.6584,2.6584,2.6562,2.619,2.571,2.527,2.56,2.571,2.5248,2.5622,2.5688,2.527,2.5226,2.4749,2.3749,2.3285,2.3001,2.2979,2.2542,2.2521,2.2957,2.2957,2.2979,2.3001,2.2979,2.3001,2.3721,2.486,2.6121,2.7893,2.8988,2.9822,3.0488,3.0781,3.0937,3.1074,3.1211,3.1543,3.2246,3.2949,3.3583,3.3915,3.3636,3.3153,3.2603,3.1167,2.9912,2.9093,2.8048,0.0,0.0,0.0,0.0,2.6058,2.6032,2.6136,2.648,2.6167,2.5977,2.5977,2.5405,2.5103,2.5103,2.4992,2.4928,2.4928,2.5889,2.6682,2.738,2.8246,2.837,2.7875,2.7759,2.7531,2.7247,2.6646,2.6339,2.6267,2.5706,2.5418,2.5359,2.553,2.553,2.5464,2.557,2.5738,2.5906,2.5906,2.5906,2.5906,2.5906,2.5906,2.5906,2.5906,2.5906,2.5906,2.5906,2.5775,2.5579,2.5292,2.4683,2.4137,2.3771,2.3351,2.3045,2.322,2.3465,2.3858,2.4338,2.4989,2.5579,2.6081,2.6147,2.6147,2.6147,2.5994,2.571,2.527,2.56,2.571,2.5248,2.5622,2.5819,2.5666,2.5054,2.4574,2.4246,2.3438,2.3001,2.3001,2.2848,2.2848,2.3001,2.3001,2.3001,2.3001,2.3001,2.3001,2.4583,2.5676,2.6859,2.852,2.9355,2.9941,3.0508,3.0762,3.084,3.0684,3.0644,3.0781,3.1211,3.1738,3.2441,3.3457,3.3287,3.3067,3.3433,3.2052,3.0793,3.0246,2.9161,2.8038,0.0,0.0,0.0,2.5777,2.584,2.5955,2.6117,2.5898,2.5834,2.5834,2.5342,2.5103,2.5103,2.5103,2.516,2.537,2.6828,2.7592,2.7721,2.8442,2.84,2.7696,2.7696,2.7531,2.7247,2.6526,2.6247,2.6151,2.5483,2.5317,2.538,2.557,2.5654,2.5696,2.5696,2.578,2.5906,2.5906,2.5906,2.5906,2.5906,2.5906,2.5906,2.5906,2.5906,2.5906,2.5906,2.5775,2.5557,2.5292,2.4683,2.4181,2.4028,2.3613,2.3307,2.3504,2.3787,2.405,2.4224,2.4902,2.5511,2.5622,2.5644,2.571,2.5884,2.5753,2.5579,2.5448,2.5557,2.5513,2.5248,2.5317,2.5317,2.5142,2.4552,2.4137,2.3962,2.3329,2.3001,2.3001,2.3001,2.3001,2.3001,2.3001,2.3001,2.3001,2.3001,2.3001,2.5561,2.6654,2.7588,2.8657,2.9531,3.0137,3.0156,3.0508,3.0703,3.0234,3.0117,3.0234,0.0,0.0,3.123,3.25,3.2773,3.3125,3.3965,3.2585,3.1617,0.0,0.0,0.0,0.0,0.0,0.0,2.5398,0.0,2.5434,2.514,2.5139,2.5135,2.5135,2.5119,2.5103,2.5103,2.5149,2.537,2.5898,2.7096,2.7402,2.6984,2.7659,2.7696,2.7309,2.7309,2.7309,2.7268,2.7003,2.6634,2.6238,2.5974,2.5787,2.5612,2.5612,2.5738,2.5906,2.5906,2.5906,2.5906,2.5906,2.5906,2.5906,2.5906,2.5906,2.5906,2.5906,2.5906,2.5906,2.5906,2.5557,2.5248,2.5226,2.4465,2.388,2.4399,2.4115,2.3919,2.4399,2.4486,2.4639,2.5139,2.5557,2.5751,2.5355,2.5204,2.5317,2.5841,2.5448,2.5338,2.5841,2.5469,2.5226,2.5248,2.4792,2.4312,2.3793,2.3727,2.3487,2.3067,2.3023,2.3001,2.3001,2.3001,2.3001,2.3001,2.3001,2.3001,2.3001,2.3001,2.3001,2.623,2.704,2.7818,2.8657,2.9082,2.9336,2.9648,2.9824,2.9785,2.9336,2.8984,2.8711,0.0,0.0,0.0,3.1211,3.2441,0.0,3.4004,3.3708,0.0,3.2238,0.0,3.0509,2.9789,2.9263,0.0,0.0,2.668,2.5562,2.5471,2.5485,2.55,2.55,2.5246,2.5103,2.5103,2.5666,2.6199,2.6691,2.7948,2.8377,2.8186,2.8334,2.8007,2.7309,2.7309,2.7404,2.7484,2.6714,2.6542,2.6729,2.598,2.5741,2.5822,2.5822,2.5864,2.5906,2.5906,2.5906,2.5906,2.5906,2.5906,2.5906,2.5906,2.5906,2.5906,2.5906,2.5906,2.5906,2.5906,2.5797,2.5622,2.5292,2.4989,2.4749,2.453,2.4377,2.4334,2.4465,2.4486,2.4639,2.5139,2.5314,2.5672,2.6549,2.5543,2.4967,2.5797,2.5185,2.4989,2.5819,2.5469,2.5357,2.5688,2.5273,2.4986,2.4814,2.4137,2.364,2.3509,2.3198,2.3001,2.3001,2.3001,2.3001,2.3001,2.3001,2.3001,2.3001,2.3001,2.3001,2.6924,2.7565,2.8047,2.8516,2.8789,2.8926,2.8984,2.916,2.9121,2.8496,2.8027,2.7656,2.7422,2.8125,2.9023,0.0,0.0,0.0,3.3144,3.3398,3.3242,0.0,3.2147,0.0,3.068,3.0211,2.9766,0.0,2.752,2.6384,2.6212,2.57,2.5405,2.5405,2.5214,2.5269,2.5638,2.6447,2.7158,2.7825,2.8623,2.8865,2.8607,2.84,2.7924,2.7309,0.0,2.7404,2.7558,2.6725,2.6615,2.6907,2.6065,2.5822,2.5906,2.5906,2.5906,2.5906,2.5906,2.5906,2.5906,2.5906,2.5906,2.5906,2.5906,2.5906,2.5906,2.5906,2.5906,2.5906,2.5906,2.5906,2.5841,2.5557,2.5338,2.5164,2.512,2.4945,2.4792,2.4792,2.4792,2.4854,2.4858,2.5573,2.6147,2.6273,2.5882,2.5694,2.6021,2.5125,2.477,2.5491,2.5379,2.5336,2.5557,2.4945,2.453,2.453,2.3831,2.3378,2.3378,2.3154,2.3001,2.3001,2.3001,2.3001,2.3001,2.3001,2.3001,2.3001,2.3313,2.3497,2.7604,2.7955,2.8247,2.8281,2.8574,2.873,2.8301,2.8496,2.8516,2.7728,2.7187,2.6914,2.6855,2.7246,2.7871,2.8769,0.0,3.1113,3.2051,3.248,3.2695,3.2637,3.2676,3.2212,3.0875,3.0759,3.043,2.9567,2.8559,2.773,2.728,2.6189,2.5578,2.5578,2.5546,2.5819,2.6489,2.7247,2.8033,2.8735,2.9172,2.9125,2.8607,2.8193,2.7738,2.7309,2.7309,2.741,2.7521,2.6886,2.6728,2.6865,2.6171,2.5906,2.5906,2.5906,2.5906,2.5906,2.5906,2.5906,2.5906,2.5906,2.5906,2.5906,2.5906,2.5906,2.5906,2.5906,2.5906,2.5906,2.5906,2.5906,2.5906,2.5906,2.5579,2.5382,2.5797,2.5579,2.5273,2.5273,2.5273,2.5182,2.4908,2.6152,2.6839,2.5815,2.6302,2.6629,2.6309,2.5346,2.4891,2.5301,2.5367,2.5348,2.5314,2.4377,2.3793,2.3793,2.3307,2.3001,2.3001,2.3001,2.3001,2.3001,2.3113,2.315,2.315,2.3261,2.3335,2.3335,2.395,2.4253,2.7825,2.7902,2.8014,2.8228,2.834,2.8301,2.7924,2.7885,0.0,0.0,2.6543,2.6387,2.6016,2.6602,2.7519,2.873,2.9707,3.0762,3.1992,3.2226,3.2148,0.0,3.2051,3.2271,3.2177,3.2117,0.0,0.0,3.1113,2.9705,2.8623,2.8385,2.8265,2.8265,2.7884,2.7584,2.7477,2.8201,2.8497,2.834,2.9355,2.9435,2.8607,2.8524,2.8048,2.7309,2.7309,0.0,2.731,2.6804,2.6624,2.6606,2.6082,2.5906,2.5906,2.5906,2.5906,2.5906,2.5906,2.5906,2.5906,2.5906,2.5906,2.5906,2.5906,2.5906,2.5906,2.5906,2.5906,2.5906,2.5906,2.5906,2.5906,2.5906,2.5841,2.5797,2.5884,2.5841,2.5775,2.5775,2.5775,2.5981,2.6631,2.6989,2.7422,2.809,2.6895,2.5952,2.6123,2.5944,2.5901,2.6115,2.6166,2.6107,2.5815,2.4902,2.4355,2.4355,2.3504,2.3001,2.3001,2.3001,2.3001,2.3001,2.3585,2.3913,2.3913,2.4587,2.4909,2.4909,2.5016,2.5087,2.7853,2.7906,2.796,2.8228,2.8301,2.8125,2.748,0.0,0.0,0.0,2.6055,2.5996,2.5732,2.6395,0.0,2.7832,2.9023,3.0176,3.1016,3.1543,3.1758,3.1543,3.1879,3.2137,3.215,3.2284,3.2574,3.2979,3.2255,3.1247,2.9982,2.9275,2.8769,2.855,2.829,2.8251,2.8237,2.86,2.8888,2.9164,2.9711,2.9518,2.8607,2.8607,2.811,2.7309,2.7404,2.7563,2.7615,2.7048,2.6842,2.6911,2.619,2.5906,2.5906,2.5906,2.5906,2.5906,2.5906,2.5906,2.5906,2.5906,2.5906,2.5906,2.5906,2.5906,2.5906,2.5906,2.5906,2.5906,2.5906,2.5906,2.5906,2.5906,2.5906,2.5906,2.5906,2.5906,2.5906,2.5906,2.626,2.6693,2.7144,2.7931,2.8394,2.8011,2.7748,2.7139,2.6005,2.6347,2.6358,2.5459,2.5927,2.621,2.5946,2.5251,2.4749,2.4508,2.3787,2.3263,2.3023,2.3386,2.3548,2.3548,2.4312,2.4707,2.4743,2.5123,2.53,2.53,2.5687,2.5861,2.7749,2.7857,2.7968,2.8267,2.8301,2.8066,2.7207,2.7012,0.0,2.5869,2.5693,2.5693,2.5693,2.6239,2.6836,0.0,2.8281,2.9414,3.0098,3.0801,3.1269,0.0,3.1663,0.0,3.1885,3.2133,0.0,3.2669,3.2644,3.2105,3.1108,3.0083,2.9368,2.8897,2.8784,2.8897,2.9179,2.908,2.9347,2.9994,2.9891,2.9415,2.8607,2.8504,2.8028,2.7309,2.7499,2.772,2.7785,2.7248,2.7061,2.7086,2.6234,2.5906,2.5906,2.5906,2.5906,2.5906,2.5906,2.5906,2.5906,2.5906,2.5906,2.5906,2.5906,2.5906,2.5906,2.5906,2.5906,2.5906,2.5906,2.5906,2.5906,2.5906,2.5906,2.5906,2.5906,2.5906,2.5948,2.6135,2.6734,2.7307,2.7649,2.8846,2.9266,2.8028,2.8612,2.8453,2.6396,2.676,2.6638,2.5066,2.5763,2.6165,2.5793,2.5382,2.5011,2.4661,2.4071,2.3509,2.3176,2.374,2.4108,2.4108,2.5028,2.5546,2.5546,2.5687,2.5756,2.5791,2.638,2.6696,2.7576,2.7706,2.806,2.8218,2.8301,2.8066,2.7207,0.0,2.6777,2.5869,2.5693,2.5693,2.5693,2.5752,2.623,2.7422,2.7787,2.8452,2.998,3.0273,3.0584,3.1228,0.0,0.0,3.219,3.2305,3.242,3.2669,3.2277,3.1993,3.1881,3.1748,3.1543,3.1113,3.0683,3.0491,3.0516,3.0105,2.9931,2.9994,2.9559,2.9104,2.8607,2.8173,2.7717,2.7309,2.7499,2.7504,0.0,2.7119,2.6866,2.6584,2.6103,2.5906,2.5906,2.5906,2.5906,2.5906,2.5906,2.5906,2.5906,2.5906,2.5906,2.5906,2.5906,2.5906,2.5906,2.5906,2.5906,2.5906,2.5906,2.5906,2.5906,2.5906,2.5906,2.5906,2.5906,2.5906,2.6135,2.694,2.7144,2.7689,2.9238,2.9588,2.9745,2.9825,2.9386,2.8736,2.7975,2.7323,2.6743,2.6267,2.6319,2.6109,2.5311,2.5248,2.5182,2.5161,2.4246,2.3662,2.3618,2.3942,2.4108,2.4108,2.5557,2.6311,2.6311,2.696,2.7289,2.7289,2.7356,2.7709,2.7279,2.767,2.8043,2.8237,2.8105,2.7695,2.6836,0.0,2.6309,2.5176,2.5323,2.5615,2.5391,2.5547,2.5849,2.6426,2.6719,2.7226,2.8144,2.8516,2.9133,3.0376,3.0426,0.0,0.0,0.0,3.2143,3.2256,3.1899,3.1526,3.1236,3.1485,3.1443,3.0967,3.0781,3.0553,3.0263,3.0098,2.9994,2.9994,2.9518,2.9063,2.8587,2.8131,2.7724,2.7499,2.7715,2.7742,0.0,2.7255,2.6976,2.654,2.6081,2.5906,2.5906,2.5906,2.5906,2.5906,2.5906,2.5906,2.5906,2.5906,2.5906,2.5906,2.5906,2.5906,2.5906,2.5906,2.5906,2.5906,2.5906,2.5906,2.5906,2.5906,2.5906,2.5906,2.5906,2.6302,2.6775,2.7144,2.8011,2.8924,2.9588,3.0152,3.0342,2.9922,2.9765,2.9235,2.7988,2.7281,2.6657,2.6039,2.5945,2.5729,2.5223,2.5204,2.5095,2.481,2.4661,2.4701,2.4896,2.5103,2.5623,2.6505,2.7243,2.779,2.8151,2.843,2.8569,2.8569,2.8569,2.8699,2.6811,2.7427,2.8043,2.813,2.7916,2.7532,0.0,2.6484,2.6094,2.5019,2.5245,2.5596,2.5332,2.5527,2.5732,2.5849,2.6191,2.6582,2.7129,2.748,2.8206,2.9466,0.0,2.9951,0.0,3.1587,3.1836,3.1836,3.1422,3.1029,3.0698,3.0864,3.0822,3.0491,3.047,3.0325,2.9994,2.9994,2.9932,2.9787,2.9332,2.8856,2.84,2.7945,2.7696,2.7641,2.7857,2.7882,0.0,2.7434,2.7042,2.654,2.6081,2.5906,2.5948,2.6177,2.6302,2.6302,2.6569,2.6652,2.661,2.6385,2.6302,2.6218,2.599,2.5906,2.5906,2.5906,2.5906,2.5906,2.5906,2.6093,2.6302,2.6302,2.6445,2.6652,2.6652,2.7121,2.7609,2.7891,2.8885,2.9781,3.0012,3.057,3.0785,3.019,3.0261,2.9865,2.8491,2.7752,2.7038,2.6223,2.5756,2.5363,2.5026,2.5139,2.5073,2.4705,2.5249,2.5672,2.5899,2.6351,2.7102,2.8083,2.8479,2.8891,2.931,2.931,2.931,2.931,2.931,2.9379,2.6012,2.6905,2.7988,2.7895,2.781,2.7611,2.7109,2.668,2.6269,2.5771,2.5674,2.5693,2.5674,2.5693,2.583,2.6309,2.6387,2.668,2.7591,2.7728,2.799,0.0,0.0,2.9226,3.0207,3.1003,3.1381,3.1381,3.0946,0.0,3.0677,3.0263,3.0015,2.9994,2.9994,2.9994,2.9994,2.9994,2.9766,2.9311,2.8835,2.838,2.7875,2.7469,2.7404,2.7641,2.7857,2.7882,0.0,2.7434,2.7042,2.654,2.6081,2.5906,2.601,2.6857,2.7185,2.7307,2.8108,2.8386,2.8227,2.7447,2.7185,2.7021,2.6135,2.5906,2.5906,2.5906,2.5906,2.5906,2.5906,2.655,2.7185,2.7185,2.781,2.8386,2.8386,2.8386,2.8624,2.951,2.9704,2.9973,3.0823,3.0973,3.0973,3.0973,3.0973,3.0646,2.9781,2.8939,2.8068,2.7284,2.5998,2.5029,2.453,2.4902,2.5204,2.5204,2.5926,2.6381,2.6381,2.7505,2.8083,2.8083,2.8892,2.931,2.931,2.931,2.931,2.931,2.931,2.9588,2.5052,2.5834,2.6717,2.6628,2.6742,2.6602,2.5859,2.582,2.5838,2.5513,2.6113,2.6832,2.7273,2.6993,2.6784,2.6927,2.6357,2.6035,0.0,0.0,0.0,2.8453,2.9497,3.0191,0.0,0.0,3.0574,3.0884,3.047,3.0222,3.0222,3.0077,2.9994,2.9994,2.9994,2.9994,2.9994,2.9684,2.9456,2.929,2.8504,2.802,2.7903,2.7469,2.7332,2.7412,2.7483,2.731,2.6933,2.6868,2.6562,2.6125,2.5972,2.626,2.6816,2.7103,2.7528,2.8068,2.8307,2.8386,2.8347,2.8108,2.7649,2.7267,2.7528,2.6816,2.5906,2.5906,2.6734,2.7487,2.694,2.7406,2.8028,2.8028,2.8227,2.8386,2.8386,2.8861,2.9369,2.9665,3.019,3.0672,3.0936,3.0973,3.0973,3.0973,3.0973,3.0898,3.0634,2.9291,2.8307,2.8028,2.6823,2.5627,2.4609,2.4618,2.4962,2.5531,2.608,2.7097,2.8592,2.8612,2.9036,3.0065,2.9949,3.0059,3.0451,3.0451,3.0451,3.0451,3.0451,3.0529,2.4726,2.5497,2.6276,2.6468,2.6709,2.6784,2.6241,2.6154,2.6197,2.5986,2.6626,2.7271,2.7673,2.7393,2.7235,2.7404,2.6951,2.6669,0.0,0.0,0.0,2.8787,0.0,0.0,0.0,3.0004,3.0118,3.0408,3.016,2.9994,2.9994,2.9994,2.9911,2.9746,2.9725,2.9725,2.9725,2.927,2.8959,2.8773,2.8193,2.7841,2.7655,2.7434,2.7296,2.7292,2.7292,2.7031,0.0,2.6584,2.6301,2.5948,2.626,2.6693,2.7267,2.7891,2.8466,2.8939,2.9252,2.9394,2.9355,2.8978,2.8307,2.777,2.8227,2.7666,2.6857,2.6857,2.7585,2.8267,2.777,2.8267,2.89,2.89,2.9135,2.9443,2.9642,2.9932,3.0241,3.0445,3.0763,3.0973,3.0973,3.0973,3.0973,3.0973,3.0973,3.0861,3.0533,2.9252,2.8386,2.8386,2.7385,2.6456,2.5779,2.5262,2.5305,2.6092,2.6613,2.7756,2.964,2.9644,3.0033,3.0973,3.0634,3.0634,3.0973,3.0973,3.0973,3.0973,3.0973,3.0973,0.0,2.5651,2.639,2.6981,2.7416,2.7735,2.7713,2.7366,0.0,2.7173,2.7173,2.7261,2.7348,2.7304,2.7457,2.7983,2.8003,0.0,0.0,2.9799,0.0,0.0,3.0277,0.0,2.9137,2.9653,3.0099,2.9994,2.9994,2.9994,2.9994,2.9994,2.9787,2.9311,2.927,2.9249,2.9249,2.8794,2.8359,2.7924,2.7883,2.7655,2.7309,2.7309,2.7275,0.0,2.7229,2.6967,2.654,2.654,2.6299,2.6052,2.6899,2.7267,2.7592,2.9121,2.9742,2.9896,3.071,3.0973,3.0861,2.9973,2.9174,2.8585,2.8505,2.8505,2.8466,2.8426,2.8505,2.8585,2.8505,2.9135,2.9781,2.9781,3.0419,3.113,3.1615,3.1365,3.113,3.1641,3.1339,3.0999,3.1026,3.1052,3.1052,3.1052,3.1052,3.0762,2.9896,2.9018,2.8505,2.8505,2.781,2.7479,2.7758,2.6588,2.6177,2.701,2.7521,2.8376,2.9717,3.057,3.0973,3.0973,3.0973,3.0973,3.0973,3.0973,3.0973,3.0973,3.0973,3.0973,2.5552,0.0,2.5602,2.5178,2.6172,2.7193,0.0,2.6954,2.7239,2.7705,2.806,2.8619,2.9793,2.9383,2.9035,2.9579,0.0,2.8724,2.9405,0.0,0.0,3.143,3.2077,3.1912,3.0205,3.0743,3.0888,3.0047,2.9994,2.9994,2.9994,2.9994,2.9787,2.9311,2.8959,2.8773,2.8773,2.8317,2.8028,2.7924,2.7572,2.7413,2.7309,2.7309,2.7108,2.674,2.674,2.6517,2.6081,2.6081,2.6412,2.6899,2.7103,2.7971,2.916,2.9549,3.0114,3.071,3.0936,3.0973,3.0861,2.9973,3.0012,3.0266,2.9588,2.9394,2.9252,2.8585,2.933,3.0228,2.9588,3.0012,3.071,3.071,3.0861,3.1026,3.1156,3.1078,3.1026,3.1156,3.1078,3.113,3.1536,3.1588,3.1588,3.1588,3.1588,3.1394,3.0762,2.9935,2.9394,2.9394,2.9238,2.8952,2.8574,2.7742,2.7593,2.845,2.8612,2.9315,3.0646,3.0898,3.0973,3.0973,3.0973,3.0973,3.0973,3.0973,3.0973,3.0973,3.0973,3.0973,2.5653,2.5763,2.5851,2.6001,2.6904,2.7755,2.7752,2.7775,0.0,0.0,0.0,0.0,0.0,0.0,0.0,0.0,2.991,0.0,0.0,0.0,3.2601,3.2711,3.3136,3.2735,0.0,3.1788,3.1688,3.0151,3.0443,3.0547,3.0047,2.9994,2.9787,2.9311,2.8856,2.8504,2.8297,2.7841,2.7614,2.7614,2.7413,2.7309,2.7309,2.7404,2.7138,2.6615,2.6704,2.6454,2.5948,2.6343,2.6775,2.7267,2.8051,2.8924,2.9742,3.0152,3.0596,3.0973,3.0973,3.0973,3.0898,3.0457,3.0634,3.0898,3.0419,3.0305,3.019,2.9742,3.0266,3.0898,3.0419,3.0672,3.0973,3.0973,3.0973,3.1052,3.1313,3.1182,3.1052,3.1339,3.1392,3.1392,3.1444,3.1641,3.1797,3.1797,3.1588,3.1444,3.1392,3.0381,2.9858,3.0266,2.9935,2.9732,2.9806,2.9441,2.9303,2.9486,2.9174,2.9578,3.0947,3.0973,3.0973,3.0973,3.0973,3.0973,3.0973,3.0973,3.0973,3.0973,3.0973,3.0973,2.5715,2.6052,2.6665,2.7611,2.8122,2.8539,2.9076,0.0,0.0,0.0,0.0,0.0,0.0,2.9124,0.0,0.0,0.0,0.0,3.2946,3.3601,3.3948,3.3863,3.3959,0.0,3.204,3.2855,3.26,3.0651,3.1176,3.1176,3.0287,3.0099,2.9746,2.9208,2.8814,2.8359,2.7821,2.7448,2.7309,2.7309,2.7309,2.7309,2.7309,2.7499,2.7231,2.6615,0.0,0.0,2.599,2.6816,2.7267,2.7528,2.9096,2.9781,2.9973,3.0748,3.0973,3.0973,3.0973,3.0973,3.0973,3.0973,3.0973,3.0973,3.0973,3.0973,3.0973,3.0973,3.0973,3.0973,3.0973,3.0973,3.0973,3.0973,3.0973,3.113,3.1562,3.1339,3.113,3.1588,3.1667,3.1562,3.1287,3.1575,3.1785,3.1747,3.1394,3.1223,3.1461,3.0548,3.019,3.0898,3.0343,3.019,3.0936,3.0973,3.079,3.0257,2.9662,2.9793,3.0973,3.0973,3.0973,3.0973,3.0973,3.0973,3.0973,3.0973,3.0973,3.0973,3.0973,3.0973,2.6279,2.7028,2.7611,2.7099,2.7499,2.8106,2.8539,0.0,0.0,0.0,0.0,0.0,0.0,2.9917,3.0278,0.0,0.0,3.3484,0.0,0.0,3.5464,3.4996,0.0,3.5253,3.3455,3.4075,3.4042,3.2801,3.2044,3.1534,3.1381,3.0495,2.9601,2.8752,2.8649,2.8214,2.7413,2.7351,2.7309,2.7309,2.7309,2.7309,2.7309,2.7499,2.7231,2.6615,0.0,2.6585,2.599,2.6816,2.7609,2.8307,2.9291,3.0152,3.0823,3.0936,3.0973,3.0973,3.0973,3.0973,3.0973,3.0973,3.0973,3.0973,3.0973,3.0973,3.0973,3.0973,3.0973,3.0973,3.0973,3.0973,3.0973,3.0973,3.0973,3.0999,3.1104,3.1052,3.0999,3.1104,3.1104,3.1392,3.228,3.2058,3.172,3.1483,3.1576,3.128,3.0176,3.047,3.0861,3.0973,3.0861,3.0861,3.0973,3.0973,3.0947,3.0869,3.0768,3.0782,3.0973,3.0973,3.0973,3.0973,3.0973,3.0973,3.0973,3.0973,3.0973,3.0973,3.0973,3.0973,2.6693,2.7016,2.7322,2.7988,2.8403,2.8688,2.8891,2.8715,0.0,0.0,0.0,0.0,0.0,0.0,3.0951,3.2322,0.0,3.3728,3.411,3.4563,3.4969,0.0,0.0,3.5342,3.4366,3.5137,3.4969,3.33,3.3277,3.2714,3.1293,3.0737,2.9901,2.8628,2.8359,2.8048,2.7614,2.7434,2.7309,2.7309,2.7309,2.7357,2.7452,2.7715,2.7462,2.6815,0.0,2.665,2.601,2.7284,2.8068,2.8545,2.9858,3.0672,3.0973,3.0973,3.0973,3.0973,3.0973,3.0973,3.0973,3.0973,3.0973,3.0973,3.0973,3.0973,3.0973,3.0973,3.0973,3.0973,3.0973,3.0973,3.0973,3.0973,3.0973,3.0973,3.0973,3.0973,3.0973,3.0973,3.1235,3.1627,3.215,3.198,3.1863,3.2052,3.1682,3.1239,3.0881,3.0929,3.0973,3.0973,3.0973,3.0973,3.0973,3.0973,3.0973,3.0973,3.0973,3.0973,3.0973,3.0973,3.0973,3.0973,3.0973,3.0973,3.0973,3.0973,3.0973,3.0973,3.0973,3.0817,2.6816,2.6948,2.719,2.862,2.8961,2.9049,2.9436,2.9172,0.0,0.0,0.0,0.0,0.0,3.0615,0.0,3.3044,3.3613,3.3896,3.4042,3.4367,3.4768,3.5376,3.5472,3.5412,3.5186,3.5906,3.5665,3.3877,3.4292,3.3667,3.1528,3.0987,3.0126,2.8809,2.8209,2.7883,2.7759,2.7427,2.7309,2.7309,2.7309,2.7404,2.7641,2.7857,2.769,2.7144,2.7237,2.6976,2.6457,2.7857,2.8505,2.8861,3.0381,3.0973,3.0973,3.0973,3.0973,3.0973,3.0973,3.0973,3.0973,3.0973,3.0973,3.0973,3.0973,3.0973,3.0973,3.0973,3.0973,3.0973,3.0973,3.0973,3.0973,3.0973,3.0973,3.0973,3.0973,3.0973,3.0973,3.0973,3.1339,3.1693,3.1954,3.1876,3.1967,3.2356,3.172,3.1211,3.1306,3.1121,3.0973,3.0973,3.0973,3.0973,3.0973,3.0973,3.0973,3.0973,3.0973,3.0973,3.0973,3.0973,3.0973,3.0973,3.0973,3.0973,3.0973,3.0973,3.0973,3.0973,3.0973,3.0738,2.6445,2.7198,2.7907,2.7964,2.7992,2.8349,2.9738,2.9989,0.0,3.0013,0.0,0.0,0.0,3.097,3.203,3.3116,3.4115,3.4885,3.5376,0.0,3.6257,3.6307,3.6307,3.6307,3.631,3.6358,3.611,3.5397,3.4527,3.3719,3.2957,3.1157,2.9916,2.9367,2.841,2.7717,2.7372,2.733,2.7309,2.7309,2.7309,2.7404,2.7641,2.7857,2.7861,2.7642,2.7412,2.7456,2.7809,2.8241,2.8861,2.9704,3.0634,3.0973,3.0973,3.0973,3.0973,3.0973,3.0973,3.0973,3.0973,3.0973,3.0973,3.0973,3.0973,3.0973,3.0973,3.0973,3.0973,3.0973,3.0973,3.0973,3.0973,3.0973,3.0973,3.0973,3.0973,3.0973,3.0973,3.0973,3.1026,3.1392,3.2437,3.2163,3.1746,3.1504,3.164,3.1267,3.0023,3.052,3.0973,3.0973,3.0973,3.0973,3.0973,3.0973,3.0973,3.0973,3.0973,3.0973,3.0973,3.0973,3.0973,3.0973,3.0973,3.0973,3.0973,3.0973,3.0973,3.0973,3.0973,3.0973,2.7167,2.7632,2.8064,2.8655,2.8521,0.0,0.0,2.9605,2.9773,3.0446,3.047,0.0,0.0,0.0,3.3083,3.3645,3.4768,3.5688,3.6038,3.625,3.6405,3.6405,3.6405,3.6405,3.6405,3.6056,3.578,3.5508,3.4835,3.3931,3.2753,3.1924,3.074,2.9008,2.8632,2.8026,2.7309,2.7309,2.7309,2.7309,2.7309,2.7478,2.7857,2.7951,2.7803,2.7433,2.7347,2.7386,2.7502,2.8163,2.89,2.9781,3.0672,3.0973,3.0973,3.0973,3.0973,3.0973,3.0973,3.0973,3.0973,3.0973,3.0973,3.0973,3.0973,3.0973,3.0973,3.0973,3.0973,3.0973,3.0973,3.0973,3.0973,3.0973,3.0973,3.0973,3.0973,3.0973,3.0973,3.0973,3.0973,3.1235,3.198,3.1679,3.1512,3.212,3.1967,3.1733,3.1564,3.185,3.1914,3.1548,3.1209,3.0973,3.0973,3.0973,3.0973,3.0973,3.0973,3.0973,3.0973,3.0973,3.0973,3.0973,3.0973,3.0973,3.0973,3.0973,3.0973,3.0973,3.0973,3.079,2.7493,2.78,2.8056,0.0,0.0,0.0,2.9388,2.9797,3.0302,3.1216,3.0951,3.0759,3.1288,0.0,0.0,0.0,3.5059,3.6056,3.6283,3.637,3.6405,3.6405,3.6405,3.6405,3.6405,3.5855,3.5433,3.5257,3.4731,3.3931,3.267,3.2309,3.1243,2.9233,2.8863,2.8258,2.7309,2.7309,2.7226,2.7081,2.7128,2.7447,2.7977,2.7849,2.7653,2.7478,2.7239,2.7359,2.7842,2.8219,2.9057,3.019,3.0785,3.0973,3.0973,3.0973,3.0973,3.0973,3.0973,3.0973,3.0973,3.0973,3.0973,3.0973,3.0973,3.0973,3.0973,3.0973,3.0973,3.0973,3.0973,3.0973,3.0973,3.0973,3.0973,3.0973,3.0973,3.0973,3.0973,3.0973,3.0973,3.1235,3.1954,3.1784,3.1862,3.2829,3.2646,3.2411,3.2411,3.2568,3.2463,3.185,3.1339,3.0973,3.0973,3.0973,3.0973,3.0973,3.0973,3.0973,3.0973,3.0973,3.0973,3.0973,3.0973,3.0973,3.0973,3.0973,3.0973,3.0973,3.0973,3.079,2.7226,2.7534,2.7881,0.0,0.0,0.0,2.9845,3.0946,3.1837,3.237,3.2058,3.1886,3.2394,3.2693,0.0,3.3557,3.4979,3.6003,3.6003,3.6216,3.6405,3.638,3.6405,3.6405,3.638,3.5855,3.5257,3.4705,3.4198,3.3646,3.3119,3.2176,3.1158,3.026,2.9211,2.8258,2.7309,2.7309,2.7081,2.6625,2.6789,2.7252,2.7955,2.753,2.7546,2.7936,2.7042,2.7606,2.9179,2.8667,2.9433,3.0973,3.0973,3.0973,3.0973,3.0973,3.0973,3.0973,3.0973,3.0973,3.0973,3.0999,3.0999,3.0999,3.0999,3.0999,3.0999,3.0999,3.0999,3.0999,3.0973,3.0973,3.0973,3.0973,3.0973,3.0973,3.0973,3.0973,3.0973,3.0999,3.0973,3.1339,3.2489,3.2672,3.2881,3.3483,3.3587,3.3169,3.198,3.2359,3.2463,3.1876,3.1339,3.0973,3.0973,3.0973,3.0973,3.0973,3.0973,3.0973,3.0973,3.0973,3.0973,3.0973,3.0973,3.0973,3.0973,3.0973,3.0973,3.0973,3.0999,3.0999,2.8059,2.7957,0.0,2.8227,0.0,0.0,0.0,3.0037,0.0,0.0,3.2394,3.2822,3.2717,3.3527,0.0,3.4399,3.5484,3.6241,3.6003,3.5843,3.5655,3.5253,3.5554,3.5629,3.5253,3.5052,3.468,3.4198,3.3646,3.3244,3.3136,3.281,3.2049,3.068,3.0702,2.9783,2.7739,2.7764,2.7469,2.6789,2.6547,2.6599,2.7019,2.7655,2.812,2.847,2.7793,2.8527,3.0189,3.0227,3.0533,3.0973,3.0973,3.0973,3.0973,3.0973,3.0973,3.0973,3.0973,3.0973,3.1052,3.1444,3.1536,3.1615,3.2071,3.2202,3.2097,3.1705,3.1536,3.1496,3.1078,3.0973,3.0973,3.0973,3.0973,3.0973,3.0973,3.0973,3.1104,3.1496,3.1261,3.1235,3.1928,3.1757,3.1679,3.2241,3.2698,3.3117,3.3587,3.3091,3.262,3.2463,3.1575,3.0973,3.0973,3.0973,3.0973,3.0973,3.0973,3.0973,3.0973,3.0973,3.0973,3.0973,3.0973,3.0973,3.0973,3.0973,3.0973,3.0999,3.1392,3.1536,2.8419,2.8282,0.0,2.8426,2.8667,2.9051,2.9893,0.0,0.0,0.0,3.2659,3.3015,3.3098,3.3885,0.0,3.49,3.5597,3.5984,3.5821,3.544,3.5056,3.4731,3.4981,3.5031,3.4705,3.4525,3.4248,3.3922,3.3395,3.3111,3.3111,3.3111,3.2463,3.1168,3.1412,3.0704,2.8834,2.847,2.7995,2.7503,2.6928,2.6695,2.6793,2.781,2.8418,2.8717,2.9135,2.9926,3.0954,3.1203,3.1339,3.1313,3.1078,3.0973,3.0973,3.0973,3.113,3.1287,3.1052,3.113,3.1392,3.1693,3.1797,3.1902,3.2515,3.2698,3.262,3.228,3.198,3.1719,3.1418,3.1339,3.1261,3.1026,3.0973,3.0973,3.0973,3.1156,3.1418,3.1745,3.151,3.1496,3.2032,3.1888,3.1862,3.2437,3.2829,3.3378,3.4267,3.3404,3.2698,3.2698,3.1862,3.1235,3.0999,3.1182,3.1339,3.1339,3.1548,3.1653,3.1653,3.1235,3.0973,3.0973,3.0973,3.0973,3.0973,3.1209,3.1339,3.1339,3.1914,3.2137,2.8522,2.8474,0.0,2.857,2.9003,0.0,3.011,3.136,3.2563,3.3044,0.0,3.2798,3.3487,3.3836,3.4259,3.503,3.5365,3.5458,3.5357,3.4956,3.4675,3.4575,3.4625,3.4625,3.4575,3.4173,3.3872,3.3822,3.337,3.3111,3.3111,3.3111,3.2655,3.1685,3.1689,3.1247,3.0281,2.9328,2.8739,2.8432,2.7709,2.7291,2.7172,2.8115,2.8677,2.904,3.0852,3.1508,3.1433,3.1694,3.1823,3.1823,3.1235,3.1052,3.113,3.1078,3.1418,3.1797,3.1313,3.147,3.1876,3.1954,3.1954,3.2084,3.2672,3.2855,3.2829,3.2803,3.2411,3.1954,3.1902,3.1876,3.1745,3.1261,3.1104,3.1052,3.1052,3.147,3.1797,3.1797,3.1797,3.198,3.2594,3.2646,3.2829,3.3483,3.3509,3.3666,3.4319,3.3352,3.2646,3.2672,3.215,3.1536,3.1104,3.151,3.1823,3.1876,3.2411,3.2698,3.2698,3.1705,3.113,3.113,3.113,3.113,3.113,3.1615,3.1876,3.1902,3.2515,3.2777,2.8522,2.821,0.0,0.0,2.9845,3.073,3.1259,3.1645,3.191,3.203,3.2723,3.3509,3.386,3.4089,3.4388,3.474,3.5207,3.5207,3.4374,3.4525,3.4399,3.3545,3.3822,3.3897,3.347,3.3721,3.3721,3.3294,3.3187,3.3111,3.3111,3.3111,3.2782,3.2095,3.2518,3.2111,3.0696,3.0521,2.9836,2.8612,2.8166,2.8096,2.8352,2.9253,3.0097,3.091,3.2455,3.2485,3.1433,3.1694,3.2058,3.2411,3.1392,3.1522,3.228,3.1771,3.198,3.2489,3.2359,3.2411,3.2594,3.3064,3.3221,3.3326,3.3875,3.4031,3.3953,3.3509,3.33,3.3117,3.262,3.2515,3.2489,3.2359,3.1993,3.1615,3.1615,3.1719,3.1797,3.1797,3.1797,3.198,3.2594,3.2333,3.2346,3.343,3.2803,3.2711,3.4214,3.3012,3.2163,3.2646,3.1784,3.1313,3.1588,3.1719,3.198,3.2489,3.262,3.2698,3.2698,3.2463,3.2333,3.2333,3.2333,3.2333,3.2333,3.2463,3.2515,3.2515,3.3117,3.3404,2.8522,0.0,0.0,2.9412,0.0,3.0711,3.1524,3.1717,3.1717,3.1805,3.2374,3.2995,3.3535,3.3785,3.4085,3.463,3.4751,3.455,3.3972,3.3922,3.3721,3.3187,3.3345,3.3395,3.3136,3.3345,3.3395,3.3093,3.2817,3.2792,3.3068,3.2817,3.2641,3.2616,3.2918,3.2703,3.189,3.1477,3.0974,3.0423,2.9769,2.9893,3.0778,3.1027,3.1764,3.287,3.3658,3.355,3.2818,3.2708,3.2855,3.3038,3.215,3.1993,3.228,3.2254,3.2437,3.2698,3.2698,3.2881,3.3169,3.3483,3.3587,3.3692,3.4241,3.4397,3.4345,3.4058,3.3796,3.3509,3.3195,3.3117,3.3117,3.3117,3.2463,3.1797,3.1797,3.1797,3.1797,3.1797,3.1797,3.1902,3.2228,3.2006,3.2189,3.3404,3.2829,3.2568,3.3456,3.2803,3.2254,3.228,3.1993,3.181,3.1797,3.2319,3.2803,3.3117,3.3352,3.3509,3.3509,3.3509,3.3247,3.2698,3.2698,3.2698,3.2698,3.2986,3.3117,3.3143,3.3718,3.3979,2.8522,0.0,2.8883,2.9845,3.0158,0.0,3.15,3.1717,3.1761,3.1937,3.2025,3.2259,3.2965,3.3261,3.3632,3.4329,3.4148,3.3872,3.3771,3.3445,3.3194,3.3136,3.3111,3.3111,3.3111,3.3111,3.3086,3.2943,3.2491,3.239,3.2767,3.2416,3.2441,3.2918,3.3061,3.3111,3.3111,3.2307,3.2064,3.2302,3.1601,3.184,3.2968,3.2752,3.3306,3.4397,3.4397,3.4345,3.4214,3.377,3.3587,3.3535,3.2934,3.2515,3.2293,3.2698,3.2908,3.2986,3.2986,3.33,3.3744,3.3744,3.3744,3.3822,3.4267,3.4397,3.4397,3.4397,3.4084,3.3744,3.3744,3.3744,3.3744,3.3744,3.2908,3.2084,3.198,3.1954,3.1902,3.1693,3.1745,3.1823,3.1928,3.1876,3.2189,3.3404,3.2986,3.2646,3.296,3.2803,3.2542,3.2137,3.2463,3.2542,3.2137,3.3038,3.3639,3.3718,3.4136,3.4397,3.4397,3.4397,3.3953,3.3012,3.2986,3.2986,3.2986,3.3483,3.3744,3.3744,3.4188,3.4397,0.0,0.0,2.934,0.0,3.0422,3.0927,0.0,0.0,3.1761,0.0,3.2157,3.24,3.2736,3.2953,3.3219,3.3294,3.3646,3.3746,3.3244,3.3545,3.3621,3.3187,3.3111,3.3111,3.3111,3.3111,3.2867,3.2365,3.2265,3.2039,3.1637,3.1989,3.224,3.2315,3.2817,3.3111,3.3111,3.3129,3.2846,3.2302,3.2605,3.2821,3.3036,3.3791,3.4236,3.4397,3.4397,3.4136,3.3692,3.3613,3.3587,3.3535,3.2934,3.3247,3.4005,3.3613,3.377,3.4162,3.4162,3.4214,3.4293,3.4293,3.4293,3.4293,3.4371,3.4397,3.4397,3.4397,3.4345,3.4293,3.4293,3.4293,3.4293,3.4293,3.3822,3.3221,3.2698,3.2568,3.228,3.1287,3.1496,3.1954,3.2489,3.2137,3.2189,3.3404,3.2646,3.245,3.3979,3.33,3.2855,3.33,3.296,3.2881,3.3326,3.3509,3.3796,3.4267,3.4371,3.4397,3.4397,3.4397,3.4319,3.4162,3.4162,3.4162,3.4162,3.4241,3.4293,3.4293,3.4371,3.4397,2.8522,2.8691,2.8979,0.0,2.9821,3.0134,3.0663,0.0,3.1477,3.1717,3.2222,3.2593,3.268,3.2896,3.3111,3.3111,3.2993,3.2993,3.3111,3.2993,3.2867,3.2616,3.2591,3.2466,3.2164,3.2139,3.2039,3.1763,3.1486,3.1461,3.1838,3.1788,3.2039,3.2667,3.2616,3.2591,3.2591,3.2845,3.3081,3.3318,3.3615,3.3784,3.3784,3.423,3.4397,3.4397,3.4397,3.4267,3.4031,3.4031,3.4031,3.3979,3.343,3.3509,3.3927,3.3692,3.3744,3.3979,3.4293,3.4397,3.4397,3.4397,3.4397,3.4397,3.4397,3.4397,3.4397,3.4397,3.4397,3.4397,3.4397,3.4397,3.4397,3.4397,3.3979,3.3509,3.3247,3.3053,3.2633,3.1844,3.1871,3.2161,3.2633,3.2228,3.2189,3.3404,3.2855,3.2594,3.3352,3.3012,3.2803,3.3064,3.3143,3.33,3.3561,3.3875,3.4177,3.4605,3.4481,3.4481,3.4632,3.4632,3.4632,3.4632,3.4481,3.4397,3.4397,3.4397,3.4397,3.4397,3.4397,3.4397,0.0,0.0,2.8643,2.9172,2.9333,2.9518,0.0,0.0,3.1198,0.0,3.2098,3.25,3.2543,3.2714,3.2817,3.2667,3.229,3.2164,3.2591,3.2265,3.2014,3.2014,3.2014,3.1838,3.1436,3.1386,3.1336,3.121,3.0834,3.0909,3.1562,3.1336,3.1587,3.2416,3.2164,3.2064,3.2215,3.2532,3.2982,3.3524,3.3819,3.3822,3.3535,3.3692,3.3744,3.377,3.4058,3.4031,3.377,3.3901,3.3979,3.3927,3.3692,3.3587,3.3613,3.3744,3.3718,3.3666,3.4214,3.4397,3.4397,3.4397,3.4397,3.4397,3.4397,3.4397,3.4397,3.4397,3.4397,3.4397,3.4397,3.4397,3.4397,3.4397,3.4084,3.377,3.3613,3.3237,3.283,3.2593,3.2409,3.2396,3.266,3.2333,3.2411,3.343,3.3195,3.296,3.3117,3.3117,3.3117,3.3117,3.3535,3.3796,3.3796,3.4245,3.459,3.4797,3.4647,3.4647,3.4797,3.4797,3.4797,3.4797,3.459,3.4481,3.4481,3.4481,3.4481,3.4397,3.4397,3.4397,0.0,2.8522,0.0,2.9172,2.9455,0.0,0.0,0.0,0.0,3.172,3.1928,3.197,3.2181,3.2265,3.2089,3.1562,3.1461,3.1436,3.1461,3.1461,3.1436,3.1436,3.1436,3.1411,3.1386,3.1386,3.1185,3.0683,3.0633,3.0407,2.9955,3.0382,3.0683,3.0733,3.1185,3.1687,3.2215,3.2657,3.2555,3.1954,3.2515,3.2202,3.1182,3.1693,3.1928,3.2006,3.3143,3.3012,3.198,3.2542,3.2777,3.2829,3.3378,3.3587,3.3666,3.4162,3.4031,3.3666,3.4214,3.4397,3.4397,3.4397,3.4397,3.4397,3.4397,3.4397,3.4397,3.4397,3.4397,3.4397,3.4397,3.4397,3.4397,3.4397,3.4371,3.4214,3.3692,3.3117,3.2895,3.3445,3.3078,3.2686,3.2698,3.2672,3.2855,3.3483,3.3561,3.3718,3.4241,3.4319,3.4319,3.4319,3.4345,3.4345,3.4345,3.4605,3.4797,3.4797,3.4962,3.5003,3.4797,3.4797,3.4797,3.4797,3.4797,3.4756,3.4756,3.4756,3.4673,3.4397,3.4397,3.4397,0.0,0.0,0.0,2.8739,2.8947,2.9132,2.9326,2.9926,3.053,3.081,3.1256,3.1505,3.122,3.1763,3.2039,3.1486,3.111,3.1009,3.1336,3.111,3.0884,3.0884,3.0884,3.0758,3.0407,3.0357,3.0281,3.0105,3.008,3.0156,3.0306,3.0507,3.0608,3.0608,3.0809,3.0929,3.1029,3.133,3.1397,3.1287,3.1496,3.1392,3.0999,3.1209,3.1287,3.1287,3.1339,3.1719,3.2359,3.181,3.2019,3.2646,3.2123,3.2594,3.3561,3.3378,3.3639,3.4136,3.4319,3.4397,3.4397,3.4397,3.4397,3.4397,3.4397,3.4397,3.4397,3.4397,3.4397,3.4319,3.3979,3.3875,3.3875,3.3875,3.4136,3.4345,3.4136,3.4199,3.4191,3.4018,3.3807,3.3608,3.3488,3.3354,3.3456,3.4031,3.411,3.4188,3.4371,3.4522,3.4673,3.4673,3.4673,3.4673,3.4673,3.459,3.4632,3.4797,3.4714,3.4714,3.4797,3.4797,3.4797,3.4797,3.455,3.455,3.4797,3.4797,3.4489,3.3875,3.4241,3.4214,2.8618,0.0,0.0,0.0,0.0,2.887,2.887,0.0,3.0184,3.0358,3.0803,3.1035,3.0683,3.1185,3.1486,3.0934,3.0557,3.0457,3.0809,3.0557,3.0407,3.0583,3.0457,3.0256,3.008,2.9905,2.9804,2.9804,2.9804,0.0,3.0306,3.0331,3.0371,3.041,3.0234,3.0164,3.0199,3.0312,3.0318,3.0111,3.032,3.0215,2.9823,3.0006,3.0215,3.0372,2.9552,3.0346,3.2045,3.1078,3.1365,3.2333,3.1575,3.1993,3.3012,3.2986,3.3352,3.3875,3.4267,3.4397,3.4397,3.4397,3.4397,3.4397,3.4397,3.4397,3.4397,3.4397,3.4267,3.4058,3.3692,3.3587,3.3639,3.3822,3.4136,3.4397,3.4397,3.4647,3.4694,3.4138,3.4124,3.4204,3.3938,3.3907,3.402,3.447,3.4439,3.4397,3.4397,3.4564,3.4673,3.4673,3.4673,3.4673,3.4673,3.4564,3.4632,3.4797,3.4714,3.4688,3.4797,3.4797,3.4718,3.4507,3.4444,3.4338,3.4216,3.4216,3.3989,3.3587,3.3744,3.3639,0.0,0.0,0.0,0.0,0.0,0.0,2.9091,0.0,2.9955,3.0482,3.0583,3.0583,3.0583,3.0583,3.0407,2.988,2.9804,2.9804,2.9804,2.9804,3.0005,3.0557,3.0131,3.0005,3.0557,3.0105,2.9804,2.9804,2.9804,2.9804,2.9804,2.9754,2.9845,3.0037,2.9453,2.9335,2.9766,2.9766,2.9304,2.842,2.8996,2.8647,2.7542,2.8124,2.8734,2.9231,2.8046,2.883,3.0895,3.0257,3.0701,3.1719,3.1719,3.1745,3.1928,3.3143,3.3195,3.2881,3.4005,3.4397,3.4397,3.4397,3.4397,3.4397,3.4397,3.4397,3.4397,3.4397,3.4005,3.3587,3.3561,3.3561,3.3692,3.4241,3.4371,3.4371,3.4397,3.4397,3.4241,3.3718,3.4031,3.4323,3.3976,3.4222,3.4481,3.4756,3.4564,3.4397,3.4397,3.4397,3.4397,3.4397,3.4397,3.4397,3.4397,3.4632,3.4797,3.4797,3.4962,3.5003,3.4797,3.4797,3.4492,3.3938,3.4466,3.4216,3.3041,3.3014,3.3185,3.3535,3.2934,3.2672,2.9013,0.0,0.0,0.0,0.0,0.0,2.9302,2.9585,2.9829,2.998,3.003,3.003,3.003,3.003,2.998,2.9804,2.9804,2.9804,2.9804,2.9804,3.0005,3.0557,3.0131,3.0005,3.0557,3.0105,2.9804,0.0,2.9804,2.9804,2.9804,2.9026,2.8648,2.8833,2.8456,2.8354,2.8566,2.8716,2.8665,2.842,2.8124,2.8046,2.815,2.8307,2.8499,2.8656,2.8281,2.8752,2.9666,2.8673,2.8935,2.998,2.998,3.0503,3.1365,3.2515,3.3117,3.3456,3.4162,3.4397,3.4397,3.4397,3.4397,3.4397,3.4397,3.4397,3.4397,3.4397,3.4005,3.3483,3.3064,3.2646,3.2568,3.3587,3.3822,3.3927,3.4319,3.4397,3.4387,3.4462,3.4609,3.4662,3.4545,3.4485,3.4439,3.4481,3.4439,3.4397,3.4397,3.4564,3.4714,3.4714,3.4714,3.4714,3.4714,3.459,3.4481,3.4481,3.4564,3.4564,3.4522,3.4481,3.4402,3.4245,3.4009,3.3971,3.4009,3.3778,3.3185,3.2267,3.2111,3.2032,2.9302,0.0,0.0,0.0,0.0,0.0,2.9419,2.9599,2.9804,2.9804,2.9804,2.9804,2.9804,2.9804,2.9804,2.9804,2.9804,2.9804,2.9804,2.9804,3.008,3.0859,3.0457,3.0432,3.121,3.0583,3.0131,3.0131,2.993,2.9804,2.9804,2.8725,2.827,2.8706,2.7931,2.7704,2.8075,2.8048,2.802,2.802,2.7915,2.7941,2.802,2.8281,2.842,2.842,2.842,2.8603,2.8856,2.8177,2.8438,2.9362,2.9797,3.0241,3.0817,3.2463,3.3143,3.3326,3.411,3.4397,3.4397,3.4397,3.4397,3.4397,3.4397,3.4241,3.4058,3.4058,3.3483,3.2777,3.2437,3.2058,3.2032,3.3012,3.3404,3.3692,3.4005,3.4241,3.4439,3.459,3.4632,3.4673,3.4797,3.459,3.4439,3.4522,3.4481,3.4397,3.4397,3.4548,3.4632,3.4632,3.4632,3.4632,3.4632,3.4481,3.4397,3.4397,3.4397,3.4397,3.4397,3.4397,3.4293,3.4058,3.3979,3.3979,3.4058,3.3604,3.2975,3.2163,3.2163,3.2163,0.0,0.0,0.0,0.0,2.9326,0.0,2.9419,2.9624,2.9804,2.9804,2.9804,2.9804,2.9804,2.9804,2.9818,2.9895,2.9856,2.9804,2.9804,2.9854,3.0256,3.126,3.0984,3.111,3.2114,3.1235,3.0608,3.0608,3.0105,2.9754,2.9704,2.8674,2.8408,2.9059,2.7761,2.7344,2.8032,2.7683,2.7516,2.7594,2.8124,2.8124,2.762,2.8203,2.8472,2.842,2.8472,2.8525,2.8464,2.8446,2.8682,2.9196,3.0346,3.0477,3.0283,3.2646,3.3143,3.2855,3.4005,3.4397,3.4397,3.4397,3.4345,3.4319,3.4319,3.3927,3.3483,3.3404,3.2646,3.1797,3.1797,3.1745,3.1876,3.262,3.3143,3.3535,3.3666,3.4058,3.4397,3.4397,3.4397,3.4481,3.4714,3.4564,3.4481,3.4714,3.4522,3.4397,3.4397,3.4397,3.4397,3.4397,3.4397,3.4397,3.4397,3.4397,3.4397,3.4397,3.4397,3.4397,3.4397,3.4397,3.4162,3.3692,3.4214,3.4267,3.377,3.3064,3.2698,3.2698,3.2698,3.2698,0.0,0.0,0.0,0.0,0.0,0.0,2.9702,2.974,2.9804,2.9804,2.9804,2.9804,2.9804,2.9804,3.0011,3.0582,3.0177,2.9804,2.9804,3.0181,3.0683,3.1311,3.1311,3.1486,3.2139,3.1235,3.0608,3.0608,3.0105,2.9578,2.9088,2.8621,2.8236,2.8094,2.7533,2.7367,2.7613,2.7542,2.7758,2.8229,2.8368,2.8368,2.8229,2.883,2.8865,2.8446,2.8917,2.9127,2.91,2.8603,2.8177,2.796,2.9144,2.9536,2.9719,3.2019,3.2803,3.2855,3.4005,3.4397,3.4397,3.4397,3.411,3.3744,3.3744,3.3326,3.2777,3.2267,3.198,3.1797,3.1797,3.1496,3.1548,3.3064,3.3143,3.3117,3.4031,3.4319,3.4397,3.4397,3.4397,3.4397,3.4481,3.4439,3.4397,3.4481,3.4439,3.4397,3.4397,3.4397,3.4397,3.4397,3.4397,3.4397,3.4397,3.4397,3.4397,3.4397,3.4397,3.4397,3.4397,3.4397,3.4345,3.4241,3.4816,3.5077,3.4972,3.343,3.2698,3.2698,3.2698,3.2698,0.0,0.0,0.0,3.0533,0.0,0.0,0.0,2.9804,2.9804,2.9804,2.9804,2.9804,2.9804,2.9804,3.0024,3.0782,3.0266,3.0088,3.0835,3.0548,3.0507,3.1286,3.1386,3.1712,3.2566,3.1662,3.0783,3.0256,2.9955,2.9654,2.9377,2.9012,2.854,2.7982,2.7773,2.7566,2.7248,2.7423,2.7811,2.842,2.8734,2.8708,2.842,2.9048,2.8996,2.8446,2.9048,2.931,2.931,2.9274,2.8752,2.8046,2.8935,2.931,2.9598,3.1836,3.2698,3.2855,3.4005,3.4397,3.4397,3.4397,3.4031,3.3587,3.3587,3.296,3.215,3.1575,3.1418,3.1418,3.1418,3.1418,3.1548,3.215,3.2489,3.2855,3.343,3.3796,3.4084,3.4345,3.4397,3.4397,3.4397,3.4397,3.4397,3.4397,3.4397,3.4397,3.4397,3.4397,3.4397,3.4397,3.4397,3.4397,3.4397,3.4685,3.4842,3.4842,3.5103,3.526,3.526,3.526,3.5129,3.4842,3.5417,3.5574,3.5286,3.4685,3.4267,3.4005,3.4005,3.3822,0.0,0.0,0.0,0.0,0.0,3.097,0.0,0.0,0.0,0.0,0.0,0.0,0.0,0.0,0.0,0.0,0.0,0.0,0.0,3.0684,0.0,3.1745,3.159,3.1921,3.3199,3.2189,3.0959,2.988,2.9804,2.9804,2.9804,2.9416,2.8923,2.8383,2.819,2.7834,2.7293,2.7408,2.7758,2.8229,2.897,2.8908,2.8255,2.9065,2.9118,2.8629,2.9196,2.951,2.964,2.998,2.951,2.8656,2.9196,2.9379,2.9598,3.1836,3.2698,3.2855,3.4005,3.4397,3.4397,3.4397,3.3953,3.3378,3.3169,3.2437,3.1536,3.1104,3.0973,3.0999,3.113,3.1496,3.1719,3.1392,3.2097,3.2855,3.2855,3.3326,3.3875,3.4319,3.4397,3.4397,3.4397,3.4397,3.4397,3.4397,3.4397,3.4397,3.4397,3.4397,3.4397,3.4397,3.4397,3.445,3.4554,3.5025,3.5338,3.5443,3.5861,3.6096,3.6096,3.5992,3.573,3.5312,3.573,3.573,3.5286,3.5835,3.5887,3.5443,3.5443,3.5129,0.0,0.0,0.0,0.0,3.1965,0.0,0.0,0.0,3.1636,3.0932,0.0,0.0,0.0,0.0,0.0,0.0,0.0,0.0,3.0932,3.0305,3.0765,3.3334,3.2289,3.2143,3.4085,3.2536,3.0959,2.988,2.9804,2.9804,2.9804,2.9416,2.9249,2.9335,2.8537,2.8153,2.8247,2.7751,2.7516,2.762,2.8752,2.8699,2.7646,2.9265,2.9719,2.9231,2.9761,3.032,3.0764,3.0283,2.9745,2.9222,2.9823,2.9719,2.9598,3.1836,3.2698,3.2855,3.4005,3.4397,3.4397,3.4397,3.3666,3.2594,3.1575,3.1182,3.1078,3.0999,3.0973,3.1104,3.1562,3.1745,3.1928,3.2385,3.3012,3.3483,3.3483,3.3927,3.4319,3.4397,3.4397,3.4397,3.4397,3.4397,3.4397,3.4397,3.4397,3.4397,3.4397,3.4397,3.4397,3.4397,3.4397,3.4607,3.5155,3.526,3.5495,3.5992,3.607,3.6096,3.6096,3.5652,3.5365,3.5286,3.5365,3.5365,3.5286,3.5835,3.607,3.6018,3.6018,3.573,0.0,0.0,0.0,0.0,0.0,0.0,3.2182,0.0,3.2001,0.0,0.0,0.0,0.0,0.0,0.0,0.0,3.0797,0.0,0.0,0.0,3.0328,0.0,0.0,0.0,3.2118,3.1413,3.0608,2.9854,2.9804,2.9804,2.9804,2.9745,2.9593,2.9337,2.8862,2.8507,2.8213,2.7743,2.7829,2.8543,2.9039,2.9196,2.903,2.9761,2.997,2.9797,2.9996,3.0451,3.0973,3.0738,3.0294,2.9876,3.0727,3.0372,2.951,3.147,3.2411,3.2855,3.4005,3.4188,3.3822,3.3143,3.2594,3.2045,3.1235,3.0973,3.0973,3.0973,3.0973,3.1104,3.1667,3.2058,3.2411,3.2646,3.3143,3.3587,3.3587,3.377,3.4031,3.4345,3.4397,3.4397,3.4397,3.4397,3.4397,3.4397,3.4397,3.4397,3.4397,3.4397,3.4397,3.4397,3.4711,3.5025,3.5286,3.5913,3.6384,3.6619,3.6959,3.6985,3.6645,3.675,3.6488,3.5783,3.6096,3.6123,3.5757,3.5992,3.6096,3.6096,3.5783,3.5338,3.4496,0.0,0.0,0.0,0.0,0.0,0.0,0.0,0.0,0.0,0.0,0.0,0.0,0.0,0.0,0.0,0.0,3.0177,0.0,3.052,0.0,0.0,0.0,0.0,0.0,3.0532,3.0382,2.9829,2.9804,2.9804,2.9804,2.9934,2.9885,2.9529,2.9252,2.8928,2.8438,2.7978,2.8203,2.9074,2.9231,2.9483,2.9865,3.0179,3.0257,3.01,3.0257,3.0607,3.0973,3.0973,3.0634,3.0205,3.1171,3.0738,2.9719,3.1406,3.2333,3.2829,3.3822,3.3927,3.3404,3.2189,3.1797,3.1693,3.1156,3.0973,3.1026,3.1182,3.1209,3.1392,3.2123,3.262,3.2934,3.2934,3.3378,3.377,3.3613,3.3718,3.3927,3.4319,3.4397,3.4397,3.4397,3.4397,3.4397,3.4397,3.4397,3.4397,3.4397,3.4397,3.445,3.4633,3.5025,3.5417,3.573,3.6515,3.7063,3.7246,3.7665,3.7717,3.7273,3.7508,3.7246,3.6358,3.6619,3.6541,3.6096,3.594,3.5887,3.5887,3.5626,3.5208,0.0,0.0,0.0,3.4366,0.0,0.0,0.0,0.0,3.4128,0.0,0.0,0.0,0.0,0.0,0.0,3.1965,0.0,0.0,0.0,0.0,0.0,0.0,0.0,0.0,0.0,3.0306,3.0382,0.0,2.9804,2.9804,2.9804,2.9804,2.9972,3.0343,2.9804,2.9424,2.9248,2.8647,2.8394,2.8446,2.9048,2.9336,2.9388,3.0451,3.066,3.0127,3.0712,3.0973,3.0973,3.0973,3.0634,3.0153,3.079,3.0634,3.0283,3.2045,3.2672,3.2777,3.3404,3.3613,3.3404,3.2189,3.1797,3.1693,3.1156,3.0973,3.1104,3.1615,3.1771,3.2032,3.3221,3.3561,3.3561,3.3561,3.3979,3.4214,3.3718,3.4005,3.4371,3.4397,3.4397,3.4397,3.4397,3.4397,3.4397,3.4397,3.4397,3.4397,3.4397,3.4397,3.4633,3.5208,3.5286,3.5757,3.6854,3.6985,3.7246,3.7848,3.79,3.79,3.7874,3.7325,3.7011,3.6985,3.641,3.6123,3.6096,3.5574,3.5338,3.5338,3.5835,3.5783,0.0,0.0,3.4563,3.4428,0.0,0.0,0.0,0.0,0.0,0.0,0.0,0.0,0.0,0.0,3.1156,3.1965,3.0797,2.9804,0.0,0.0,0.0,0.0,0.0,0.0,0.0,0.0,0.0,0.0,2.9707,0.0,2.9779,2.9804,2.9972,3.0406,2.983,2.9593,2.9813,2.8882,2.8603,2.9022,2.9205,2.9483,2.9876,3.0634,3.0869,3.0686,3.0503,3.0634,3.0947,3.0581,3.0529,3.0764,3.1339,3.1209,3.0817,3.1784,3.2084,3.2111,3.2319,3.2398,3.2267,3.1522,3.1287,3.1235,3.1052,3.0973,3.1026,3.1209,3.151,3.198,3.2803,3.33,3.3692,3.4031,3.4267,3.4345,3.4162,3.4267,3.4397,3.4397,3.4397,3.4397,3.4397,3.4737,3.4868,3.445,3.4737,3.4999,3.4999,3.5312,3.56,3.5809,3.6201,3.6593,3.6959,3.7377,3.7691,3.79,3.79,3.7717,3.7325,3.7508,3.7403,3.7011,3.6802,3.6698,3.6698,3.5757,3.5286,3.5286,3.5077,3.4868,3.4802,3.4731,0.0,3.4462,3.4399,0.0,3.4399,0.0,3.4399,0.0,0.0,0.0,0.0,0.0,0.0,3.2398,3.122,3.0101,0.0,2.9804,0.0,0.0,0.0,0.0,0.0,0.0,2.9781,3.016,2.9844,2.958,0.0,2.9679,2.9972,3.0406,3.001,2.9914,3.01,2.9379,2.9091,2.931,2.931,2.9588,3.01,3.0503,3.079,3.0973,3.0607,3.0634,3.0947,3.0581,3.066,3.1026,3.1392,3.1444,3.1339,3.1667,3.1797,3.1797,3.1797,3.1797,3.1719,3.1182,3.0973,3.0973,3.0973,3.0973,3.1026,3.1235,3.151,3.1928,3.2542,3.3143,3.3692,3.4031,3.4267,3.4397,3.4397,3.4397,3.4397,3.4397,3.4397,3.4397,3.4397,3.4894,3.5103,3.4476,3.5077,3.5521,3.5312,3.5783,3.6175,3.641,3.6776,3.709,3.7299,3.7691,3.79,3.79,3.79,3.7743,3.7351,3.7691,3.7821,3.7612,3.7429,3.7403,3.7612,3.6462,3.5913,3.5887,3.5286,3.4894]}]]